<?xml version="1.0" encoding="UTF-8" standalone="no" ?>
<gpx xmlns="http://www.topografix.com/GPX/1/1" xmlns:xsi="http://www.w3.org/2001/XMLSchema-instance" xsi:schemaLocation="http://www.topografix.com/GPX/1/1 http://www.topografix.com/GPX/1/1/gpx.xsd" version="1.1" creator="VisuGPX - https://www.visugpx.com">
  <metadata>
    <name>Randonnée 10-03-2018-Clermont le Fort</name>
    <desc><![CDATA[Boucle au départ de Clermont le Fort]]></desc>
  </metadata>
  <trk>
    <name><![CDATA[Randonnée 10-03-2018-Clermont le Fort_1]]></name>
    <trkseg>
      <trkpt lat="43.4583" lon="1.43235">
        <ele>229</ele>
        <time>2018-03-10T09:31:00Z</time>
      </trkpt>
      <trkpt lat="43.45831" lon="1.43237">
        <ele>229</ele>
        <time>2018-03-10T09:31:01Z</time>
      </trkpt>
      <trkpt lat="43.45833" lon="1.43239">
        <ele>229</ele>
        <time>2018-03-10T09:31:01Z</time>
      </trkpt>
      <trkpt lat="43.45836" lon="1.43239">
        <ele>229</ele>
        <time>2018-03-10T09:31:01Z</time>
      </trkpt>
      <trkpt lat="43.45839" lon="1.43239">
        <ele>229</ele>
        <time>2018-03-10T09:31:01Z</time>
      </trkpt>
      <trkpt lat="43.45846" lon="1.43241">
        <ele>229</ele>
        <time>2018-03-10T09:31:24Z</time>
      </trkpt>
      <trkpt lat="43.45849" lon="1.43242">
        <ele>229</ele>
        <time>2018-03-10T09:31:25Z</time>
      </trkpt>
      <trkpt lat="43.4585" lon="1.43242">
        <ele>229</ele>
        <time>2018-03-10T09:31:25Z</time>
      </trkpt>
      <trkpt lat="43.4585" lon="1.43243">
        <ele>229</ele>
        <time>2018-03-10T09:31:25Z</time>
      </trkpt>
      <trkpt lat="43.45854" lon="1.43246">
        <ele>229</ele>
        <time>2018-03-10T09:31:25Z</time>
      </trkpt>
      <trkpt lat="43.4586" lon="1.43251">
        <ele>229</ele>
        <time>2018-03-10T09:31:41Z</time>
      </trkpt>
      <trkpt lat="43.45864" lon="1.43255">
        <ele>229</ele>
        <time>2018-03-10T09:31:41Z</time>
      </trkpt>
      <trkpt lat="43.45869" lon="1.4326">
        <ele>229</ele>
        <time>2018-03-10T09:31:41Z</time>
      </trkpt>
      <trkpt lat="43.45876" lon="1.43264">
        <ele>219</ele>
        <time>2018-03-10T09:31:41Z</time>
      </trkpt>
      <trkpt lat="43.4588" lon="1.43267">
        <ele>219</ele>
        <time>2018-03-10T09:31:56Z</time>
      </trkpt>
      <trkpt lat="43.45883" lon="1.4327">
        <ele>219</ele>
        <time>2018-03-10T09:31:57Z</time>
      </trkpt>
      <trkpt lat="43.45888" lon="1.43272">
        <ele>219</ele>
        <time>2018-03-10T09:31:57Z</time>
      </trkpt>
      <trkpt lat="43.45892" lon="1.43274">
        <ele>219</ele>
        <time>2018-03-10T09:31:57Z</time>
      </trkpt>
      <trkpt lat="43.45895" lon="1.43275">
        <ele>219</ele>
        <time>2018-03-10T09:32:16Z</time>
      </trkpt>
      <trkpt lat="43.45899" lon="1.43279">
        <ele>219</ele>
        <time>2018-03-10T09:32:17Z</time>
      </trkpt>
      <trkpt lat="43.459" lon="1.43281">
        <ele>219</ele>
        <time>2018-03-10T09:32:17Z</time>
      </trkpt>
      <trkpt lat="43.45902" lon="1.43283">
        <ele>219</ele>
        <time>2018-03-10T09:32:17Z</time>
      </trkpt>
      <trkpt lat="43.45903" lon="1.43283">
        <ele>219</ele>
        <time>2018-03-10T09:32:17Z</time>
      </trkpt>
      <trkpt lat="43.45906" lon="1.43284">
        <ele>219</ele>
        <time>2018-03-10T09:32:32Z</time>
      </trkpt>
      <trkpt lat="43.45908" lon="1.43285">
        <ele>219</ele>
        <time>2018-03-10T09:32:33Z</time>
      </trkpt>
      <trkpt lat="43.4591" lon="1.43286">
        <ele>219</ele>
        <time>2018-03-10T09:32:33Z</time>
      </trkpt>
      <trkpt lat="43.45915" lon="1.43288">
        <ele>219</ele>
        <time>2018-03-10T09:32:33Z</time>
      </trkpt>
      <trkpt lat="43.45924" lon="1.43287">
        <ele>219</ele>
        <time>2018-03-10T09:32:48Z</time>
      </trkpt>
      <trkpt lat="43.45936" lon="1.43288">
        <ele>219</ele>
        <time>2018-03-10T09:32:49Z</time>
      </trkpt>
      <trkpt lat="43.45944" lon="1.43288">
        <ele>219</ele>
        <time>2018-03-10T09:32:49Z</time>
      </trkpt>
      <trkpt lat="43.45952" lon="1.43286">
        <ele>219</ele>
        <time>2018-03-10T09:32:49Z</time>
      </trkpt>
      <trkpt lat="43.45958" lon="1.43284">
        <ele>219</ele>
        <time>2018-03-10T09:33:04Z</time>
      </trkpt>
      <trkpt lat="43.45961" lon="1.43281">
        <ele>209</ele>
        <time>2018-03-10T09:33:05Z</time>
      </trkpt>
      <trkpt lat="43.45966" lon="1.43279">
        <ele>209</ele>
        <time>2018-03-10T09:33:05Z</time>
      </trkpt>
      <trkpt lat="43.45972" lon="1.43277">
        <ele>209</ele>
        <time>2018-03-10T09:33:05Z</time>
      </trkpt>
      <trkpt lat="43.45979" lon="1.43275">
        <ele>209</ele>
        <time>2018-03-10T09:33:20Z</time>
      </trkpt>
      <trkpt lat="43.45985" lon="1.43273">
        <ele>209</ele>
        <time>2018-03-10T09:33:21Z</time>
      </trkpt>
      <trkpt lat="43.45991" lon="1.43271">
        <ele>209</ele>
        <time>2018-03-10T09:33:21Z</time>
      </trkpt>
      <trkpt lat="43.45996" lon="1.43268">
        <ele>209</ele>
        <time>2018-03-10T09:33:21Z</time>
      </trkpt>
      <trkpt lat="43.46" lon="1.43266">
        <ele>209</ele>
        <time>2018-03-10T09:33:36Z</time>
      </trkpt>
      <trkpt lat="43.46003" lon="1.43264">
        <ele>209</ele>
        <time>2018-03-10T09:33:37Z</time>
      </trkpt>
      <trkpt lat="43.46006" lon="1.43263">
        <ele>209</ele>
        <time>2018-03-10T09:33:37Z</time>
      </trkpt>
      <trkpt lat="43.46012" lon="1.43261">
        <ele>209</ele>
        <time>2018-03-10T09:33:37Z</time>
      </trkpt>
      <trkpt lat="43.46017" lon="1.43259">
        <ele>209</ele>
        <time>2018-03-10T09:33:52Z</time>
      </trkpt>
      <trkpt lat="43.46022" lon="1.43257">
        <ele>209</ele>
        <time>2018-03-10T09:33:53Z</time>
      </trkpt>
      <trkpt lat="43.46026" lon="1.43255">
        <ele>209</ele>
        <time>2018-03-10T09:33:53Z</time>
      </trkpt>
      <trkpt lat="43.4603" lon="1.43253">
        <ele>209</ele>
        <time>2018-03-10T09:33:53Z</time>
      </trkpt>
      <trkpt lat="43.46035" lon="1.4325">
        <ele>209</ele>
        <time>2018-03-10T09:34:08Z</time>
      </trkpt>
      <trkpt lat="43.46039" lon="1.43245">
        <ele>209</ele>
        <time>2018-03-10T09:34:09Z</time>
      </trkpt>
      <trkpt lat="43.46042" lon="1.43239">
        <ele>220</ele>
        <time>2018-03-10T09:34:09Z</time>
      </trkpt>
      <trkpt lat="43.46042" lon="1.43232">
        <ele>220</ele>
        <time>2018-03-10T09:34:09Z</time>
      </trkpt>
      <trkpt lat="43.46042" lon="1.43232">
        <ele>220</ele>
        <time>2018-03-10T09:34:40Z</time>
      </trkpt>
      <trkpt lat="43.46044" lon="1.43233">
        <ele>220</ele>
        <time>2018-03-10T09:34:41Z</time>
      </trkpt>
      <trkpt lat="43.46049" lon="1.43236">
        <ele>220</ele>
        <time>2018-03-10T09:34:41Z</time>
      </trkpt>
      <trkpt lat="43.46053" lon="1.43238">
        <ele>220</ele>
        <time>2018-03-10T09:34:41Z</time>
      </trkpt>
      <trkpt lat="43.46059" lon="1.43241">
        <ele>220</ele>
        <time>2018-03-10T09:34:41Z</time>
      </trkpt>
      <trkpt lat="43.46063" lon="1.43244">
        <ele>220</ele>
        <time>2018-03-10T09:34:56Z</time>
      </trkpt>
      <trkpt lat="43.46065" lon="1.43246">
        <ele>220</ele>
        <time>2018-03-10T09:34:57Z</time>
      </trkpt>
      <trkpt lat="43.46069" lon="1.43249">
        <ele>220</ele>
        <time>2018-03-10T09:34:57Z</time>
      </trkpt>
      <trkpt lat="43.46073" lon="1.43252">
        <ele>220</ele>
        <time>2018-03-10T09:34:57Z</time>
      </trkpt>
      <trkpt lat="43.46076" lon="1.43253">
        <ele>220</ele>
        <time>2018-03-10T09:35:12Z</time>
      </trkpt>
      <trkpt lat="43.46079" lon="1.43255">
        <ele>220</ele>
        <time>2018-03-10T09:35:13Z</time>
      </trkpt>
      <trkpt lat="43.46083" lon="1.43258">
        <ele>220</ele>
        <time>2018-03-10T09:35:13Z</time>
      </trkpt>
      <trkpt lat="43.46087" lon="1.43261">
        <ele>220</ele>
        <time>2018-03-10T09:35:13Z</time>
      </trkpt>
      <trkpt lat="43.46089" lon="1.43263">
        <ele>220</ele>
        <time>2018-03-10T09:35:28Z</time>
      </trkpt>
      <trkpt lat="43.46094" lon="1.43264">
        <ele>220</ele>
        <time>2018-03-10T09:35:29Z</time>
      </trkpt>
      <trkpt lat="43.46098" lon="1.43265">
        <ele>220</ele>
        <time>2018-03-10T09:35:29Z</time>
      </trkpt>
      <trkpt lat="43.46101" lon="1.43266">
        <ele>220</ele>
        <time>2018-03-10T09:35:29Z</time>
      </trkpt>
      <trkpt lat="43.46104" lon="1.43268">
        <ele>220</ele>
        <time>2018-03-10T09:35:44Z</time>
      </trkpt>
      <trkpt lat="43.46107" lon="1.43271">
        <ele>220</ele>
        <time>2018-03-10T09:35:45Z</time>
      </trkpt>
      <trkpt lat="43.46111" lon="1.43272">
        <ele>220</ele>
        <time>2018-03-10T09:35:45Z</time>
      </trkpt>
      <trkpt lat="43.46115" lon="1.43275">
        <ele>220</ele>
        <time>2018-03-10T09:35:45Z</time>
      </trkpt>
      <trkpt lat="43.46118" lon="1.43277">
        <ele>220</ele>
        <time>2018-03-10T09:36:00Z</time>
      </trkpt>
      <trkpt lat="43.46119" lon="1.43282">
        <ele>220</ele>
        <time>2018-03-10T09:36:01Z</time>
      </trkpt>
      <trkpt lat="43.46122" lon="1.43284">
        <ele>220</ele>
        <time>2018-03-10T09:36:01Z</time>
      </trkpt>
      <trkpt lat="43.46125" lon="1.43287">
        <ele>232</ele>
        <time>2018-03-10T09:36:01Z</time>
      </trkpt>
      <trkpt lat="43.46128" lon="1.43289">
        <ele>232</ele>
        <time>2018-03-10T09:36:16Z</time>
      </trkpt>
      <trkpt lat="43.46133" lon="1.43293">
        <ele>237</ele>
        <time>2018-03-10T09:36:17Z</time>
      </trkpt>
      <trkpt lat="43.46137" lon="1.43295">
        <ele>237</ele>
        <time>2018-03-10T09:36:17Z</time>
      </trkpt>
      <trkpt lat="43.4614" lon="1.43296">
        <ele>237</ele>
        <time>2018-03-10T09:36:17Z</time>
      </trkpt>
      <trkpt lat="43.46143" lon="1.43297">
        <ele>237</ele>
        <time>2018-03-10T09:36:36Z</time>
      </trkpt>
      <trkpt lat="43.46146" lon="1.43297">
        <ele>237</ele>
        <time>2018-03-10T09:36:37Z</time>
      </trkpt>
      <trkpt lat="43.46149" lon="1.43295">
        <ele>237</ele>
        <time>2018-03-10T09:36:37Z</time>
      </trkpt>
      <trkpt lat="43.46151" lon="1.43295">
        <ele>237</ele>
        <time>2018-03-10T09:36:37Z</time>
      </trkpt>
      <trkpt lat="43.46152" lon="1.43295">
        <ele>237</ele>
        <time>2018-03-10T09:36:37Z</time>
      </trkpt>
      <trkpt lat="43.46156" lon="1.43294">
        <ele>237</ele>
        <time>2018-03-10T09:36:52Z</time>
      </trkpt>
      <trkpt lat="43.4616" lon="1.43293">
        <ele>237</ele>
        <time>2018-03-10T09:36:53Z</time>
      </trkpt>
      <trkpt lat="43.46163" lon="1.43294">
        <ele>237</ele>
        <time>2018-03-10T09:36:53Z</time>
      </trkpt>
      <trkpt lat="43.46166" lon="1.43294">
        <ele>237</ele>
        <time>2018-03-10T09:36:53Z</time>
      </trkpt>
      <trkpt lat="43.46169" lon="1.43295">
        <ele>237</ele>
        <time>2018-03-10T09:37:08Z</time>
      </trkpt>
      <trkpt lat="43.46172" lon="1.43295">
        <ele>237</ele>
        <time>2018-03-10T09:37:09Z</time>
      </trkpt>
      <trkpt lat="43.46176" lon="1.43294">
        <ele>237</ele>
        <time>2018-03-10T09:37:09Z</time>
      </trkpt>
      <trkpt lat="43.4618" lon="1.43293">
        <ele>237</ele>
        <time>2018-03-10T09:37:09Z</time>
      </trkpt>
      <trkpt lat="43.46185" lon="1.43294">
        <ele>237</ele>
        <time>2018-03-10T09:37:24Z</time>
      </trkpt>
      <trkpt lat="43.46188" lon="1.43294">
        <ele>237</ele>
        <time>2018-03-10T09:37:25Z</time>
      </trkpt>
      <trkpt lat="43.46193" lon="1.43293">
        <ele>237</ele>
        <time>2018-03-10T09:37:25Z</time>
      </trkpt>
      <trkpt lat="43.46198" lon="1.43294">
        <ele>237</ele>
        <time>2018-03-10T09:37:25Z</time>
      </trkpt>
      <trkpt lat="43.46208" lon="1.43294">
        <ele>237</ele>
        <time>2018-03-10T09:38:04Z</time>
      </trkpt>
      <trkpt lat="43.4621" lon="1.43295">
        <ele>231</ele>
        <time>2018-03-10T09:38:05Z</time>
      </trkpt>
      <trkpt lat="43.46214" lon="1.43296">
        <ele>231</ele>
        <time>2018-03-10T09:38:05Z</time>
      </trkpt>
      <trkpt lat="43.46219" lon="1.433">
        <ele>231</ele>
        <time>2018-03-10T09:38:05Z</time>
      </trkpt>
      <trkpt lat="43.46223" lon="1.43303">
        <ele>231</ele>
        <time>2018-03-10T09:38:05Z</time>
      </trkpt>
      <trkpt lat="43.46227" lon="1.43304">
        <ele>231</ele>
        <time>2018-03-10T09:38:20Z</time>
      </trkpt>
      <trkpt lat="43.46231" lon="1.43306">
        <ele>231</ele>
        <time>2018-03-10T09:38:21Z</time>
      </trkpt>
      <trkpt lat="43.46234" lon="1.43308">
        <ele>231</ele>
        <time>2018-03-10T09:38:21Z</time>
      </trkpt>
      <trkpt lat="43.46237" lon="1.43312">
        <ele>231</ele>
        <time>2018-03-10T09:38:21Z</time>
      </trkpt>
      <trkpt lat="43.4624" lon="1.43316">
        <ele>231</ele>
        <time>2018-03-10T09:38:36Z</time>
      </trkpt>
      <trkpt lat="43.46242" lon="1.43321">
        <ele>231</ele>
        <time>2018-03-10T09:38:37Z</time>
      </trkpt>
      <trkpt lat="43.46245" lon="1.43326">
        <ele>231</ele>
        <time>2018-03-10T09:38:37Z</time>
      </trkpt>
      <trkpt lat="43.46247" lon="1.43331">
        <ele>231</ele>
        <time>2018-03-10T09:38:37Z</time>
      </trkpt>
      <trkpt lat="43.4625" lon="1.43337">
        <ele>231</ele>
        <time>2018-03-10T09:38:52Z</time>
      </trkpt>
      <trkpt lat="43.46253" lon="1.43343">
        <ele>231</ele>
        <time>2018-03-10T09:38:53Z</time>
      </trkpt>
      <trkpt lat="43.46256" lon="1.43349">
        <ele>231</ele>
        <time>2018-03-10T09:38:53Z</time>
      </trkpt>
      <trkpt lat="43.46259" lon="1.43354">
        <ele>231</ele>
        <time>2018-03-10T09:38:53Z</time>
      </trkpt>
      <trkpt lat="43.46261" lon="1.43359">
        <ele>231</ele>
        <time>2018-03-10T09:39:08Z</time>
      </trkpt>
      <trkpt lat="43.46263" lon="1.43364">
        <ele>231</ele>
        <time>2018-03-10T09:39:09Z</time>
      </trkpt>
      <trkpt lat="43.46267" lon="1.43367">
        <ele>231</ele>
        <time>2018-03-10T09:39:09Z</time>
      </trkpt>
      <trkpt lat="43.46269" lon="1.43371">
        <ele>231</ele>
        <time>2018-03-10T09:39:09Z</time>
      </trkpt>
      <trkpt lat="43.46273" lon="1.43373">
        <ele>231</ele>
        <time>2018-03-10T09:39:24Z</time>
      </trkpt>
      <trkpt lat="43.46276" lon="1.4337">
        <ele>231</ele>
        <time>2018-03-10T09:39:25Z</time>
      </trkpt>
      <trkpt lat="43.46278" lon="1.43366">
        <ele>231</ele>
        <time>2018-03-10T09:39:25Z</time>
      </trkpt>
      <trkpt lat="43.46279" lon="1.43362">
        <ele>231</ele>
        <time>2018-03-10T09:39:25Z</time>
      </trkpt>
      <trkpt lat="43.46279" lon="1.43357">
        <ele>231</ele>
        <time>2018-03-10T09:39:40Z</time>
      </trkpt>
      <trkpt lat="43.46281" lon="1.43349">
        <ele>231</ele>
        <time>2018-03-10T09:39:41Z</time>
      </trkpt>
      <trkpt lat="43.46282" lon="1.43343">
        <ele>231</ele>
        <time>2018-03-10T09:39:41Z</time>
      </trkpt>
      <trkpt lat="43.46283" lon="1.43336">
        <ele>231</ele>
        <time>2018-03-10T09:39:41Z</time>
      </trkpt>
      <trkpt lat="43.46284" lon="1.4333">
        <ele>231</ele>
        <time>2018-03-10T09:39:56Z</time>
      </trkpt>
      <trkpt lat="43.46284" lon="1.43324">
        <ele>231</ele>
        <time>2018-03-10T09:39:57Z</time>
      </trkpt>
      <trkpt lat="43.46285" lon="1.43319">
        <ele>231</ele>
        <time>2018-03-10T09:39:57Z</time>
      </trkpt>
      <trkpt lat="43.46287" lon="1.43312">
        <ele>231</ele>
        <time>2018-03-10T09:39:57Z</time>
      </trkpt>
      <trkpt lat="43.46287" lon="1.43306">
        <ele>231</ele>
        <time>2018-03-10T09:40:12Z</time>
      </trkpt>
      <trkpt lat="43.46289" lon="1.43302">
        <ele>231</ele>
        <time>2018-03-10T09:40:13Z</time>
      </trkpt>
      <trkpt lat="43.46291" lon="1.43295">
        <ele>231</ele>
        <time>2018-03-10T09:40:13Z</time>
      </trkpt>
      <trkpt lat="43.46292" lon="1.43291">
        <ele>226</ele>
        <time>2018-03-10T09:40:13Z</time>
      </trkpt>
      <trkpt lat="43.46294" lon="1.43284">
        <ele>226</ele>
        <time>2018-03-10T09:40:28Z</time>
      </trkpt>
      <trkpt lat="43.46294" lon="1.4328">
        <ele>226</ele>
        <time>2018-03-10T09:40:29Z</time>
      </trkpt>
      <trkpt lat="43.46296" lon="1.43275">
        <ele>226</ele>
        <time>2018-03-10T09:40:29Z</time>
      </trkpt>
      <trkpt lat="43.46297" lon="1.43269">
        <ele>226</ele>
        <time>2018-03-10T09:40:29Z</time>
      </trkpt>
      <trkpt lat="43.46298" lon="1.43263">
        <ele>226</ele>
        <time>2018-03-10T09:40:44Z</time>
      </trkpt>
      <trkpt lat="43.46299" lon="1.43258">
        <ele>226</ele>
        <time>2018-03-10T09:40:45Z</time>
      </trkpt>
      <trkpt lat="43.463" lon="1.43252">
        <ele>226</ele>
        <time>2018-03-10T09:40:45Z</time>
      </trkpt>
      <trkpt lat="43.46301" lon="1.43247">
        <ele>226</ele>
        <time>2018-03-10T09:40:45Z</time>
      </trkpt>
      <trkpt lat="43.46302" lon="1.43242">
        <ele>226</ele>
        <time>2018-03-10T09:41:00Z</time>
      </trkpt>
      <trkpt lat="43.46303" lon="1.43236">
        <ele>226</ele>
        <time>2018-03-10T09:41:01Z</time>
      </trkpt>
      <trkpt lat="43.46304" lon="1.4323">
        <ele>226</ele>
        <time>2018-03-10T09:41:01Z</time>
      </trkpt>
      <trkpt lat="43.46305" lon="1.43224">
        <ele>226</ele>
        <time>2018-03-10T09:41:01Z</time>
      </trkpt>
      <trkpt lat="43.46306" lon="1.43218">
        <ele>226</ele>
        <time>2018-03-10T09:41:16Z</time>
      </trkpt>
      <trkpt lat="43.46307" lon="1.43212">
        <ele>226</ele>
        <time>2018-03-10T09:41:17Z</time>
      </trkpt>
      <trkpt lat="43.46308" lon="1.43206">
        <ele>216</ele>
        <time>2018-03-10T09:41:17Z</time>
      </trkpt>
      <trkpt lat="43.46309" lon="1.43201">
        <ele>216</ele>
        <time>2018-03-10T09:41:17Z</time>
      </trkpt>
      <trkpt lat="43.46309" lon="1.43196">
        <ele>216</ele>
        <time>2018-03-10T09:41:32Z</time>
      </trkpt>
      <trkpt lat="43.46309" lon="1.4319">
        <ele>216</ele>
        <time>2018-03-10T09:41:33Z</time>
      </trkpt>
      <trkpt lat="43.46309" lon="1.43183">
        <ele>216</ele>
        <time>2018-03-10T09:41:33Z</time>
      </trkpt>
      <trkpt lat="43.4631" lon="1.43178">
        <ele>216</ele>
        <time>2018-03-10T09:41:33Z</time>
      </trkpt>
      <trkpt lat="43.46311" lon="1.43173">
        <ele>216</ele>
        <time>2018-03-10T09:41:48Z</time>
      </trkpt>
      <trkpt lat="43.46312" lon="1.43167">
        <ele>216</ele>
        <time>2018-03-10T09:41:49Z</time>
      </trkpt>
      <trkpt lat="43.46313" lon="1.43161">
        <ele>216</ele>
        <time>2018-03-10T09:41:49Z</time>
      </trkpt>
      <trkpt lat="43.46313" lon="1.43155">
        <ele>216</ele>
        <time>2018-03-10T09:41:49Z</time>
      </trkpt>
      <trkpt lat="43.46314" lon="1.43149">
        <ele>216</ele>
        <time>2018-03-10T09:42:04Z</time>
      </trkpt>
      <trkpt lat="43.46314" lon="1.43144">
        <ele>216</ele>
        <time>2018-03-10T09:42:05Z</time>
      </trkpt>
      <trkpt lat="43.46316" lon="1.43138">
        <ele>216</ele>
        <time>2018-03-10T09:42:05Z</time>
      </trkpt>
      <trkpt lat="43.46317" lon="1.43131">
        <ele>216</ele>
        <time>2018-03-10T09:42:05Z</time>
      </trkpt>
      <trkpt lat="43.46318" lon="1.43125">
        <ele>216</ele>
        <time>2018-03-10T09:42:20Z</time>
      </trkpt>
      <trkpt lat="43.46318" lon="1.43119">
        <ele>213</ele>
        <time>2018-03-10T09:42:21Z</time>
      </trkpt>
      <trkpt lat="43.46319" lon="1.43113">
        <ele>213</ele>
        <time>2018-03-10T09:42:21Z</time>
      </trkpt>
      <trkpt lat="43.4632" lon="1.43107">
        <ele>213</ele>
        <time>2018-03-10T09:42:21Z</time>
      </trkpt>
      <trkpt lat="43.4632" lon="1.43102">
        <ele>213</ele>
        <time>2018-03-10T09:42:36Z</time>
      </trkpt>
      <trkpt lat="43.46321" lon="1.43096">
        <ele>213</ele>
        <time>2018-03-10T09:42:37Z</time>
      </trkpt>
      <trkpt lat="43.4632" lon="1.43091">
        <ele>213</ele>
        <time>2018-03-10T09:42:37Z</time>
      </trkpt>
      <trkpt lat="43.46319" lon="1.43085">
        <ele>213</ele>
        <time>2018-03-10T09:42:37Z</time>
      </trkpt>
      <trkpt lat="43.46318" lon="1.4308">
        <ele>213</ele>
        <time>2018-03-10T09:42:52Z</time>
      </trkpt>
      <trkpt lat="43.46318" lon="1.43074">
        <ele>213</ele>
        <time>2018-03-10T09:42:53Z</time>
      </trkpt>
      <trkpt lat="43.46317" lon="1.43069">
        <ele>213</ele>
        <time>2018-03-10T09:42:53Z</time>
      </trkpt>
      <trkpt lat="43.46317" lon="1.43064">
        <ele>213</ele>
        <time>2018-03-10T09:42:53Z</time>
      </trkpt>
      <trkpt lat="43.46317" lon="1.43057">
        <ele>213</ele>
        <time>2018-03-10T09:43:08Z</time>
      </trkpt>
      <trkpt lat="43.46317" lon="1.43051">
        <ele>213</ele>
        <time>2018-03-10T09:43:09Z</time>
      </trkpt>
      <trkpt lat="43.46316" lon="1.43045">
        <ele>213</ele>
        <time>2018-03-10T09:43:09Z</time>
      </trkpt>
      <trkpt lat="43.46315" lon="1.43038">
        <ele>213</ele>
        <time>2018-03-10T09:43:09Z</time>
      </trkpt>
      <trkpt lat="43.46315" lon="1.43032">
        <ele>213</ele>
        <time>2018-03-10T09:43:24Z</time>
      </trkpt>
      <trkpt lat="43.46313" lon="1.43027">
        <ele>213</ele>
        <time>2018-03-10T09:43:25Z</time>
      </trkpt>
      <trkpt lat="43.46311" lon="1.43021">
        <ele>213</ele>
        <time>2018-03-10T09:43:25Z</time>
      </trkpt>
      <trkpt lat="43.46309" lon="1.43016">
        <ele>213</ele>
        <time>2018-03-10T09:43:25Z</time>
      </trkpt>
      <trkpt lat="43.46305" lon="1.43014">
        <ele>213</ele>
        <time>2018-03-10T09:43:40Z</time>
      </trkpt>
      <trkpt lat="43.46303" lon="1.4301">
        <ele>213</ele>
        <time>2018-03-10T09:43:41Z</time>
      </trkpt>
      <trkpt lat="43.46301" lon="1.43004">
        <ele>213</ele>
        <time>2018-03-10T09:43:41Z</time>
      </trkpt>
      <trkpt lat="43.46298" lon="1.43">
        <ele>213</ele>
        <time>2018-03-10T09:43:41Z</time>
      </trkpt>
      <trkpt lat="43.46295" lon="1.42997">
        <ele>213</ele>
        <time>2018-03-10T09:43:56Z</time>
      </trkpt>
      <trkpt lat="43.46292" lon="1.42993">
        <ele>213</ele>
        <time>2018-03-10T09:43:57Z</time>
      </trkpt>
      <trkpt lat="43.46289" lon="1.42988">
        <ele>205</ele>
        <time>2018-03-10T09:43:57Z</time>
      </trkpt>
      <trkpt lat="43.46285" lon="1.42984">
        <ele>205</ele>
        <time>2018-03-10T09:43:57Z</time>
      </trkpt>
      <trkpt lat="43.46281" lon="1.4298">
        <ele>205</ele>
        <time>2018-03-10T09:44:12Z</time>
      </trkpt>
      <trkpt lat="43.46278" lon="1.42976">
        <ele>205</ele>
        <time>2018-03-10T09:44:13Z</time>
      </trkpt>
      <trkpt lat="43.46275" lon="1.42972">
        <ele>205</ele>
        <time>2018-03-10T09:44:13Z</time>
      </trkpt>
      <trkpt lat="43.46272" lon="1.4297">
        <ele>205</ele>
        <time>2018-03-10T09:44:13Z</time>
      </trkpt>
      <trkpt lat="43.46269" lon="1.42968">
        <ele>205</ele>
        <time>2018-03-10T09:44:28Z</time>
      </trkpt>
      <trkpt lat="43.46267" lon="1.42965">
        <ele>205</ele>
        <time>2018-03-10T09:44:29Z</time>
      </trkpt>
      <trkpt lat="43.46264" lon="1.42962">
        <ele>205</ele>
        <time>2018-03-10T09:44:29Z</time>
      </trkpt>
      <trkpt lat="43.4626" lon="1.42959">
        <ele>205</ele>
        <time>2018-03-10T09:44:29Z</time>
      </trkpt>
      <trkpt lat="43.46257" lon="1.42956">
        <ele>202</ele>
        <time>2018-03-10T09:44:44Z</time>
      </trkpt>
      <trkpt lat="43.46254" lon="1.42954">
        <ele>202</ele>
        <time>2018-03-10T09:44:45Z</time>
      </trkpt>
      <trkpt lat="43.4625" lon="1.42952">
        <ele>202</ele>
        <time>2018-03-10T09:44:45Z</time>
      </trkpt>
      <trkpt lat="43.46246" lon="1.42948">
        <ele>202</ele>
        <time>2018-03-10T09:44:45Z</time>
      </trkpt>
      <trkpt lat="43.46241" lon="1.42944">
        <ele>202</ele>
        <time>2018-03-10T09:45:00Z</time>
      </trkpt>
      <trkpt lat="43.46237" lon="1.4294">
        <ele>202</ele>
        <time>2018-03-10T09:45:01Z</time>
      </trkpt>
      <trkpt lat="43.46233" lon="1.42937">
        <ele>202</ele>
        <time>2018-03-10T09:45:01Z</time>
      </trkpt>
      <trkpt lat="43.46226" lon="1.42934">
        <ele>202</ele>
        <time>2018-03-10T09:45:01Z</time>
      </trkpt>
      <trkpt lat="43.46223" lon="1.42932">
        <ele>202</ele>
        <time>2018-03-10T09:45:16Z</time>
      </trkpt>
      <trkpt lat="43.4622" lon="1.4293">
        <ele>202</ele>
        <time>2018-03-10T09:45:17Z</time>
      </trkpt>
      <trkpt lat="43.46215" lon="1.42928">
        <ele>202</ele>
        <time>2018-03-10T09:45:17Z</time>
      </trkpt>
      <trkpt lat="43.46211" lon="1.42925">
        <ele>202</ele>
        <time>2018-03-10T09:45:17Z</time>
      </trkpt>
      <trkpt lat="43.46206" lon="1.42922">
        <ele>188</ele>
        <time>2018-03-10T09:45:32Z</time>
      </trkpt>
      <trkpt lat="43.46202" lon="1.42919">
        <ele>188</ele>
        <time>2018-03-10T09:45:33Z</time>
      </trkpt>
      <trkpt lat="43.46197" lon="1.42916">
        <ele>188</ele>
        <time>2018-03-10T09:45:33Z</time>
      </trkpt>
      <trkpt lat="43.46193" lon="1.42914">
        <ele>188</ele>
        <time>2018-03-10T09:45:33Z</time>
      </trkpt>
      <trkpt lat="43.46189" lon="1.42912">
        <ele>188</ele>
        <time>2018-03-10T09:45:48Z</time>
      </trkpt>
      <trkpt lat="43.46184" lon="1.42911">
        <ele>188</ele>
        <time>2018-03-10T09:45:49Z</time>
      </trkpt>
      <trkpt lat="43.4618" lon="1.4291">
        <ele>188</ele>
        <time>2018-03-10T09:45:49Z</time>
      </trkpt>
      <trkpt lat="43.46175" lon="1.42909">
        <ele>188</ele>
        <time>2018-03-10T09:45:49Z</time>
      </trkpt>
      <trkpt lat="43.4617" lon="1.42908">
        <ele>188</ele>
        <time>2018-03-10T09:46:04Z</time>
      </trkpt>
      <trkpt lat="43.46165" lon="1.42907">
        <ele>188</ele>
        <time>2018-03-10T09:46:05Z</time>
      </trkpt>
      <trkpt lat="43.46162" lon="1.42905">
        <ele>188</ele>
        <time>2018-03-10T09:46:05Z</time>
      </trkpt>
      <trkpt lat="43.46158" lon="1.42906">
        <ele>188</ele>
        <time>2018-03-10T09:46:05Z</time>
      </trkpt>
      <trkpt lat="43.46154" lon="1.42905">
        <ele>188</ele>
        <time>2018-03-10T09:46:20Z</time>
      </trkpt>
      <trkpt lat="43.4615" lon="1.42903">
        <ele>188</ele>
        <time>2018-03-10T09:46:21Z</time>
      </trkpt>
      <trkpt lat="43.46146" lon="1.429">
        <ele>188</ele>
        <time>2018-03-10T09:46:21Z</time>
      </trkpt>
      <trkpt lat="43.46143" lon="1.42898">
        <ele>188</ele>
        <time>2018-03-10T09:46:21Z</time>
      </trkpt>
      <trkpt lat="43.46137" lon="1.42894">
        <ele>188</ele>
        <time>2018-03-10T09:46:36Z</time>
      </trkpt>
      <trkpt lat="43.46133" lon="1.42892">
        <ele>188</ele>
        <time>2018-03-10T09:46:37Z</time>
      </trkpt>
      <trkpt lat="43.46131" lon="1.42891">
        <ele>188</ele>
        <time>2018-03-10T09:46:37Z</time>
      </trkpt>
      <trkpt lat="43.46128" lon="1.42891">
        <ele>188</ele>
        <time>2018-03-10T09:46:37Z</time>
      </trkpt>
      <trkpt lat="43.46124" lon="1.42889">
        <ele>188</ele>
        <time>2018-03-10T09:46:52Z</time>
      </trkpt>
      <trkpt lat="43.4612" lon="1.42886">
        <ele>188</ele>
        <time>2018-03-10T09:46:53Z</time>
      </trkpt>
      <trkpt lat="43.46116" lon="1.42882">
        <ele>188</ele>
        <time>2018-03-10T09:46:53Z</time>
      </trkpt>
      <trkpt lat="43.46112" lon="1.42879">
        <ele>188</ele>
        <time>2018-03-10T09:46:53Z</time>
      </trkpt>
      <trkpt lat="43.46109" lon="1.42878">
        <ele>188</ele>
        <time>2018-03-10T09:47:08Z</time>
      </trkpt>
      <trkpt lat="43.46104" lon="1.42872">
        <ele>185</ele>
        <time>2018-03-10T09:47:09Z</time>
      </trkpt>
      <trkpt lat="43.46101" lon="1.42866">
        <ele>185</ele>
        <time>2018-03-10T09:47:09Z</time>
      </trkpt>
      <trkpt lat="43.46099" lon="1.4286">
        <ele>185</ele>
        <time>2018-03-10T09:47:09Z</time>
      </trkpt>
      <trkpt lat="43.46098" lon="1.42854">
        <ele>185</ele>
        <time>2018-03-10T09:47:24Z</time>
      </trkpt>
      <trkpt lat="43.46097" lon="1.42847">
        <ele>185</ele>
        <time>2018-03-10T09:47:25Z</time>
      </trkpt>
      <trkpt lat="43.46097" lon="1.4284">
        <ele>185</ele>
        <time>2018-03-10T09:47:25Z</time>
      </trkpt>
      <trkpt lat="43.46095" lon="1.42833">
        <ele>185</ele>
        <time>2018-03-10T09:47:25Z</time>
      </trkpt>
      <trkpt lat="43.46095" lon="1.42826">
        <ele>185</ele>
        <time>2018-03-10T09:47:40Z</time>
      </trkpt>
      <trkpt lat="43.46092" lon="1.4282">
        <ele>185</ele>
        <time>2018-03-10T09:47:41Z</time>
      </trkpt>
      <trkpt lat="43.46091" lon="1.42815">
        <ele>185</ele>
        <time>2018-03-10T09:47:41Z</time>
      </trkpt>
      <trkpt lat="43.4609" lon="1.4281">
        <ele>185</ele>
        <time>2018-03-10T09:47:41Z</time>
      </trkpt>
      <trkpt lat="43.46091" lon="1.42804">
        <ele>185</ele>
        <time>2018-03-10T09:47:56Z</time>
      </trkpt>
      <trkpt lat="43.46089" lon="1.42798">
        <ele>185</ele>
        <time>2018-03-10T09:47:57Z</time>
      </trkpt>
      <trkpt lat="43.46087" lon="1.42793">
        <ele>185</ele>
        <time>2018-03-10T09:47:57Z</time>
      </trkpt>
      <trkpt lat="43.46086" lon="1.42787">
        <ele>179</ele>
        <time>2018-03-10T09:47:57Z</time>
      </trkpt>
      <trkpt lat="43.46084" lon="1.4278">
        <ele>179</ele>
        <time>2018-03-10T09:48:12Z</time>
      </trkpt>
      <trkpt lat="43.46084" lon="1.42774">
        <ele>179</ele>
        <time>2018-03-10T09:48:13Z</time>
      </trkpt>
      <trkpt lat="43.46085" lon="1.42769">
        <ele>179</ele>
        <time>2018-03-10T09:48:13Z</time>
      </trkpt>
      <trkpt lat="43.46085" lon="1.42763">
        <ele>179</ele>
        <time>2018-03-10T09:48:13Z</time>
      </trkpt>
      <trkpt lat="43.46084" lon="1.42757">
        <ele>179</ele>
        <time>2018-03-10T09:48:28Z</time>
      </trkpt>
      <trkpt lat="43.46082" lon="1.42751">
        <ele>179</ele>
        <time>2018-03-10T09:48:29Z</time>
      </trkpt>
      <trkpt lat="43.46078" lon="1.42745">
        <ele>179</ele>
        <time>2018-03-10T09:48:29Z</time>
      </trkpt>
      <trkpt lat="43.46075" lon="1.42739">
        <ele>179</ele>
        <time>2018-03-10T09:48:29Z</time>
      </trkpt>
      <trkpt lat="43.46071" lon="1.42736">
        <ele>179</ele>
        <time>2018-03-10T09:48:44Z</time>
      </trkpt>
      <trkpt lat="43.46067" lon="1.42735">
        <ele>179</ele>
        <time>2018-03-10T09:48:45Z</time>
      </trkpt>
      <trkpt lat="43.46063" lon="1.42735">
        <ele>179</ele>
        <time>2018-03-10T09:48:45Z</time>
      </trkpt>
      <trkpt lat="43.46059" lon="1.42734">
        <ele>179</ele>
        <time>2018-03-10T09:48:45Z</time>
      </trkpt>
      <trkpt lat="43.46056" lon="1.4273">
        <ele>179</ele>
        <time>2018-03-10T09:49:00Z</time>
      </trkpt>
      <trkpt lat="43.46052" lon="1.4273">
        <ele>179</ele>
        <time>2018-03-10T09:49:01Z</time>
      </trkpt>
      <trkpt lat="43.46047" lon="1.42731">
        <ele>179</ele>
        <time>2018-03-10T09:49:01Z</time>
      </trkpt>
      <trkpt lat="43.46043" lon="1.42731">
        <ele>179</ele>
        <time>2018-03-10T09:49:01Z</time>
      </trkpt>
      <trkpt lat="43.4604" lon="1.42733">
        <ele>180</ele>
        <time>2018-03-10T09:49:16Z</time>
      </trkpt>
      <trkpt lat="43.46035" lon="1.42732">
        <ele>180</ele>
        <time>2018-03-10T09:49:17Z</time>
      </trkpt>
      <trkpt lat="43.4603" lon="1.42731">
        <ele>180</ele>
        <time>2018-03-10T09:49:17Z</time>
      </trkpt>
      <trkpt lat="43.46025" lon="1.42732">
        <ele>180</ele>
        <time>2018-03-10T09:49:17Z</time>
      </trkpt>
      <trkpt lat="43.4602" lon="1.42731">
        <ele>180</ele>
        <time>2018-03-10T09:49:32Z</time>
      </trkpt>
      <trkpt lat="43.46013" lon="1.4273">
        <ele>180</ele>
        <time>2018-03-10T09:49:33Z</time>
      </trkpt>
      <trkpt lat="43.46007" lon="1.42729">
        <ele>180</ele>
        <time>2018-03-10T09:49:33Z</time>
      </trkpt>
      <trkpt lat="43.46002" lon="1.42728">
        <ele>180</ele>
        <time>2018-03-10T09:49:33Z</time>
      </trkpt>
      <trkpt lat="43.45998" lon="1.42726">
        <ele>180</ele>
        <time>2018-03-10T09:49:48Z</time>
      </trkpt>
      <trkpt lat="43.45995" lon="1.42724">
        <ele>180</ele>
        <time>2018-03-10T09:49:49Z</time>
      </trkpt>
      <trkpt lat="43.45991" lon="1.42721">
        <ele>180</ele>
        <time>2018-03-10T09:49:49Z</time>
      </trkpt>
      <trkpt lat="43.45987" lon="1.42718">
        <ele>180</ele>
        <time>2018-03-10T09:49:49Z</time>
      </trkpt>
      <trkpt lat="43.45983" lon="1.42714">
        <ele>180</ele>
        <time>2018-03-10T09:50:04Z</time>
      </trkpt>
      <trkpt lat="43.45979" lon="1.42709">
        <ele>180</ele>
        <time>2018-03-10T09:50:05Z</time>
      </trkpt>
      <trkpt lat="43.45976" lon="1.42703">
        <ele>168</ele>
        <time>2018-03-10T09:50:05Z</time>
      </trkpt>
      <trkpt lat="43.45972" lon="1.42696">
        <ele>168</ele>
        <time>2018-03-10T09:50:05Z</time>
      </trkpt>
      <trkpt lat="43.4597" lon="1.42691">
        <ele>168</ele>
        <time>2018-03-10T09:50:20Z</time>
      </trkpt>
      <trkpt lat="43.45966" lon="1.42686">
        <ele>168</ele>
        <time>2018-03-10T09:50:21Z</time>
      </trkpt>
      <trkpt lat="43.45962" lon="1.42679">
        <ele>168</ele>
        <time>2018-03-10T09:50:21Z</time>
      </trkpt>
      <trkpt lat="43.45958" lon="1.42672">
        <ele>168</ele>
        <time>2018-03-10T09:50:21Z</time>
      </trkpt>
      <trkpt lat="43.45955" lon="1.42665">
        <ele>165</ele>
        <time>2018-03-10T09:50:36Z</time>
      </trkpt>
      <trkpt lat="43.45954" lon="1.42658">
        <ele>165</ele>
        <time>2018-03-10T09:50:37Z</time>
      </trkpt>
      <trkpt lat="43.45954" lon="1.42652">
        <ele>165</ele>
        <time>2018-03-10T09:50:37Z</time>
      </trkpt>
      <trkpt lat="43.45956" lon="1.42649">
        <ele>165</ele>
        <time>2018-03-10T09:50:37Z</time>
      </trkpt>
      <trkpt lat="43.45958" lon="1.42648">
        <ele>165</ele>
        <time>2018-03-10T09:50:52Z</time>
      </trkpt>
      <trkpt lat="43.45961" lon="1.42648">
        <ele>168</ele>
        <time>2018-03-10T09:50:53Z</time>
      </trkpt>
      <trkpt lat="43.45965" lon="1.42645">
        <ele>168</ele>
        <time>2018-03-10T09:50:53Z</time>
      </trkpt>
      <trkpt lat="43.45969" lon="1.42642">
        <ele>168</ele>
        <time>2018-03-10T09:50:53Z</time>
      </trkpt>
      <trkpt lat="43.45972" lon="1.42637">
        <ele>168</ele>
        <time>2018-03-10T09:51:08Z</time>
      </trkpt>
      <trkpt lat="43.45975" lon="1.42633">
        <ele>168</ele>
        <time>2018-03-10T09:51:09Z</time>
      </trkpt>
      <trkpt lat="43.45979" lon="1.42632">
        <ele>168</ele>
        <time>2018-03-10T09:51:09Z</time>
      </trkpt>
      <trkpt lat="43.45982" lon="1.42631">
        <ele>168</ele>
        <time>2018-03-10T09:51:09Z</time>
      </trkpt>
      <trkpt lat="43.45988" lon="1.42626">
        <ele>168</ele>
        <time>2018-03-10T09:51:24Z</time>
      </trkpt>
      <trkpt lat="43.45993" lon="1.42623">
        <ele>161</ele>
        <time>2018-03-10T09:51:25Z</time>
      </trkpt>
      <trkpt lat="43.45996" lon="1.4262">
        <ele>161</ele>
        <time>2018-03-10T09:51:25Z</time>
      </trkpt>
      <trkpt lat="43.46" lon="1.42614">
        <ele>161</ele>
        <time>2018-03-10T09:51:25Z</time>
      </trkpt>
      <trkpt lat="43.46004" lon="1.42609">
        <ele>161</ele>
        <time>2018-03-10T09:51:40Z</time>
      </trkpt>
      <trkpt lat="43.46008" lon="1.42605">
        <ele>161</ele>
        <time>2018-03-10T09:51:41Z</time>
      </trkpt>
      <trkpt lat="43.46012" lon="1.42601">
        <ele>161</ele>
        <time>2018-03-10T09:51:41Z</time>
      </trkpt>
      <trkpt lat="43.46016" lon="1.42598">
        <ele>161</ele>
        <time>2018-03-10T09:51:41Z</time>
      </trkpt>
      <trkpt lat="43.46019" lon="1.42595">
        <ele>161</ele>
        <time>2018-03-10T09:51:56Z</time>
      </trkpt>
      <trkpt lat="43.46023" lon="1.42592">
        <ele>161</ele>
        <time>2018-03-10T09:51:57Z</time>
      </trkpt>
      <trkpt lat="43.46026" lon="1.42588">
        <ele>161</ele>
        <time>2018-03-10T09:51:57Z</time>
      </trkpt>
      <trkpt lat="43.46031" lon="1.42585">
        <ele>161</ele>
        <time>2018-03-10T09:51:57Z</time>
      </trkpt>
      <trkpt lat="43.46035" lon="1.42581">
        <ele>161</ele>
        <time>2018-03-10T09:52:12Z</time>
      </trkpt>
      <trkpt lat="43.46041" lon="1.42577">
        <ele>161</ele>
        <time>2018-03-10T09:52:13Z</time>
      </trkpt>
      <trkpt lat="43.46045" lon="1.42574">
        <ele>164</ele>
        <time>2018-03-10T09:52:13Z</time>
      </trkpt>
      <trkpt lat="43.4605" lon="1.42571">
        <ele>164</ele>
        <time>2018-03-10T09:52:13Z</time>
      </trkpt>
      <trkpt lat="43.46053" lon="1.42568">
        <ele>164</ele>
        <time>2018-03-10T09:52:28Z</time>
      </trkpt>
      <trkpt lat="43.46057" lon="1.42564">
        <ele>164</ele>
        <time>2018-03-10T09:52:29Z</time>
      </trkpt>
      <trkpt lat="43.46061" lon="1.4256">
        <ele>164</ele>
        <time>2018-03-10T09:52:29Z</time>
      </trkpt>
      <trkpt lat="43.46065" lon="1.42556">
        <ele>164</ele>
        <time>2018-03-10T09:52:29Z</time>
      </trkpt>
      <trkpt lat="43.46069" lon="1.42552">
        <ele>164</ele>
        <time>2018-03-10T09:52:44Z</time>
      </trkpt>
      <trkpt lat="43.46071" lon="1.42551">
        <ele>164</ele>
        <time>2018-03-10T09:52:45Z</time>
      </trkpt>
      <trkpt lat="43.46075" lon="1.42547">
        <ele>164</ele>
        <time>2018-03-10T09:52:45Z</time>
      </trkpt>
      <trkpt lat="43.46078" lon="1.42544">
        <ele>164</ele>
        <time>2018-03-10T09:52:45Z</time>
      </trkpt>
      <trkpt lat="43.46082" lon="1.42543">
        <ele>164</ele>
        <time>2018-03-10T09:53:00Z</time>
      </trkpt>
      <trkpt lat="43.46085" lon="1.42543">
        <ele>164</ele>
        <time>2018-03-10T09:53:01Z</time>
      </trkpt>
      <trkpt lat="43.46089" lon="1.42543">
        <ele>164</ele>
        <time>2018-03-10T09:53:01Z</time>
      </trkpt>
      <trkpt lat="43.46095" lon="1.42543">
        <ele>164</ele>
        <time>2018-03-10T09:53:01Z</time>
      </trkpt>
      <trkpt lat="43.461" lon="1.42544">
        <ele>164</ele>
        <time>2018-03-10T09:53:16Z</time>
      </trkpt>
      <trkpt lat="43.46105" lon="1.42544">
        <ele>164</ele>
        <time>2018-03-10T09:53:17Z</time>
      </trkpt>
      <trkpt lat="43.46111" lon="1.42544">
        <ele>164</ele>
        <time>2018-03-10T09:53:17Z</time>
      </trkpt>
      <trkpt lat="43.46116" lon="1.42545">
        <ele>164</ele>
        <time>2018-03-10T09:53:17Z</time>
      </trkpt>
      <trkpt lat="43.46119" lon="1.42547">
        <ele>164</ele>
        <time>2018-03-10T09:53:32Z</time>
      </trkpt>
      <trkpt lat="43.46123" lon="1.42548">
        <ele>164</ele>
        <time>2018-03-10T09:53:33Z</time>
      </trkpt>
      <trkpt lat="43.46128" lon="1.4255">
        <ele>164</ele>
        <time>2018-03-10T09:53:33Z</time>
      </trkpt>
      <trkpt lat="43.46134" lon="1.42551">
        <ele>164</ele>
        <time>2018-03-10T09:53:33Z</time>
      </trkpt>
      <trkpt lat="43.46143" lon="1.42553">
        <ele>164</ele>
        <time>2018-03-10T09:54:04Z</time>
      </trkpt>
      <trkpt lat="43.46143" lon="1.42554">
        <ele>164</ele>
        <time>2018-03-10T09:54:05Z</time>
      </trkpt>
      <trkpt lat="43.46145" lon="1.42555">
        <ele>164</ele>
        <time>2018-03-10T09:54:05Z</time>
      </trkpt>
      <trkpt lat="43.46149" lon="1.42556">
        <ele>164</ele>
        <time>2018-03-10T09:54:05Z</time>
      </trkpt>
      <trkpt lat="43.46154" lon="1.42556">
        <ele>164</ele>
        <time>2018-03-10T09:54:05Z</time>
      </trkpt>
      <trkpt lat="43.4616" lon="1.42555">
        <ele>164</ele>
        <time>2018-03-10T09:54:20Z</time>
      </trkpt>
      <trkpt lat="43.46165" lon="1.42552">
        <ele>164</ele>
        <time>2018-03-10T09:54:21Z</time>
      </trkpt>
      <trkpt lat="43.46168" lon="1.42548">
        <ele>164</ele>
        <time>2018-03-10T09:54:21Z</time>
      </trkpt>
      <trkpt lat="43.4617" lon="1.42544">
        <ele>164</ele>
        <time>2018-03-10T09:54:21Z</time>
      </trkpt>
      <trkpt lat="43.4617" lon="1.42538">
        <ele>162</ele>
        <time>2018-03-10T09:54:36Z</time>
      </trkpt>
      <trkpt lat="43.46172" lon="1.42532">
        <ele>162</ele>
        <time>2018-03-10T09:54:37Z</time>
      </trkpt>
      <trkpt lat="43.46172" lon="1.42525">
        <ele>162</ele>
        <time>2018-03-10T09:54:37Z</time>
      </trkpt>
      <trkpt lat="43.46171" lon="1.42521">
        <ele>162</ele>
        <time>2018-03-10T09:54:37Z</time>
      </trkpt>
      <trkpt lat="43.46175" lon="1.4248">
        <ele>162</ele>
        <time>2018-03-10T09:55:04Z</time>
      </trkpt>
      <trkpt lat="43.46173" lon="1.42473">
        <ele>162</ele>
        <time>2018-03-10T09:55:05Z</time>
      </trkpt>
      <trkpt lat="43.46174" lon="1.42468">
        <ele>162</ele>
        <time>2018-03-10T09:55:05Z</time>
      </trkpt>
      <trkpt lat="43.46175" lon="1.42464">
        <ele>162</ele>
        <time>2018-03-10T09:55:05Z</time>
      </trkpt>
      <trkpt lat="43.46176" lon="1.42458">
        <ele>162</ele>
        <time>2018-03-10T09:55:20Z</time>
      </trkpt>
      <trkpt lat="43.46178" lon="1.42453">
        <ele>162</ele>
        <time>2018-03-10T09:55:21Z</time>
      </trkpt>
      <trkpt lat="43.46181" lon="1.42448">
        <ele>162</ele>
        <time>2018-03-10T09:55:21Z</time>
      </trkpt>
      <trkpt lat="43.46185" lon="1.42443">
        <ele>162</ele>
        <time>2018-03-10T09:55:21Z</time>
      </trkpt>
      <trkpt lat="43.4619" lon="1.4244">
        <ele>162</ele>
        <time>2018-03-10T09:55:36Z</time>
      </trkpt>
      <trkpt lat="43.46195" lon="1.42437">
        <ele>162</ele>
        <time>2018-03-10T09:55:37Z</time>
      </trkpt>
      <trkpt lat="43.462" lon="1.42434">
        <ele>162</ele>
        <time>2018-03-10T09:55:37Z</time>
      </trkpt>
      <trkpt lat="43.46206" lon="1.42431">
        <ele>162</ele>
        <time>2018-03-10T09:55:37Z</time>
      </trkpt>
      <trkpt lat="43.46211" lon="1.42427">
        <ele>159</ele>
        <time>2018-03-10T09:55:52Z</time>
      </trkpt>
      <trkpt lat="43.46216" lon="1.42424">
        <ele>159</ele>
        <time>2018-03-10T09:55:53Z</time>
      </trkpt>
      <trkpt lat="43.46221" lon="1.42421">
        <ele>159</ele>
        <time>2018-03-10T09:55:53Z</time>
      </trkpt>
      <trkpt lat="43.46226" lon="1.42418">
        <ele>159</ele>
        <time>2018-03-10T09:55:53Z</time>
      </trkpt>
      <trkpt lat="43.46231" lon="1.42414">
        <ele>159</ele>
        <time>2018-03-10T09:56:08Z</time>
      </trkpt>
      <trkpt lat="43.46237" lon="1.42411">
        <ele>159</ele>
        <time>2018-03-10T09:56:09Z</time>
      </trkpt>
      <trkpt lat="43.46241" lon="1.42408">
        <ele>159</ele>
        <time>2018-03-10T09:56:09Z</time>
      </trkpt>
      <trkpt lat="43.46245" lon="1.42404">
        <ele>159</ele>
        <time>2018-03-10T09:56:09Z</time>
      </trkpt>
      <trkpt lat="43.46249" lon="1.42401">
        <ele>159</ele>
        <time>2018-03-10T09:56:24Z</time>
      </trkpt>
      <trkpt lat="43.46253" lon="1.42397">
        <ele>159</ele>
        <time>2018-03-10T09:56:25Z</time>
      </trkpt>
      <trkpt lat="43.46257" lon="1.42393">
        <ele>159</ele>
        <time>2018-03-10T09:56:25Z</time>
      </trkpt>
      <trkpt lat="43.46261" lon="1.42389">
        <ele>159</ele>
        <time>2018-03-10T09:56:25Z</time>
      </trkpt>
      <trkpt lat="43.46264" lon="1.42385">
        <ele>159</ele>
        <time>2018-03-10T09:56:40Z</time>
      </trkpt>
      <trkpt lat="43.46268" lon="1.42382">
        <ele>159</ele>
        <time>2018-03-10T09:56:41Z</time>
      </trkpt>
      <trkpt lat="43.46272" lon="1.42379">
        <ele>159</ele>
        <time>2018-03-10T09:56:41Z</time>
      </trkpt>
      <trkpt lat="43.46276" lon="1.42375">
        <ele>159</ele>
        <time>2018-03-10T09:56:41Z</time>
      </trkpt>
      <trkpt lat="43.4628" lon="1.42372">
        <ele>159</ele>
        <time>2018-03-10T09:56:56Z</time>
      </trkpt>
      <trkpt lat="43.46285" lon="1.42368">
        <ele>159</ele>
        <time>2018-03-10T09:56:57Z</time>
      </trkpt>
      <trkpt lat="43.46289" lon="1.42364">
        <ele>159</ele>
        <time>2018-03-10T09:56:57Z</time>
      </trkpt>
      <trkpt lat="43.4629" lon="1.42362">
        <ele>159</ele>
        <time>2018-03-10T09:56:57Z</time>
      </trkpt>
      <trkpt lat="43.46291" lon="1.42359">
        <ele>159</ele>
        <time>2018-03-10T09:57:12Z</time>
      </trkpt>
      <trkpt lat="43.46293" lon="1.42355">
        <ele>159</ele>
        <time>2018-03-10T09:57:13Z</time>
      </trkpt>
      <trkpt lat="43.46295" lon="1.42352">
        <ele>159</ele>
        <time>2018-03-10T09:57:13Z</time>
      </trkpt>
      <trkpt lat="43.463" lon="1.42349">
        <ele>159</ele>
        <time>2018-03-10T09:57:13Z</time>
      </trkpt>
      <trkpt lat="43.46304" lon="1.42346">
        <ele>159</ele>
        <time>2018-03-10T09:57:28Z</time>
      </trkpt>
      <trkpt lat="43.46308" lon="1.42342">
        <ele>159</ele>
        <time>2018-03-10T09:57:29Z</time>
      </trkpt>
      <trkpt lat="43.4631" lon="1.42339">
        <ele>159</ele>
        <time>2018-03-10T09:57:29Z</time>
      </trkpt>
      <trkpt lat="43.46312" lon="1.42336">
        <ele>159</ele>
        <time>2018-03-10T09:57:29Z</time>
      </trkpt>
      <trkpt lat="43.46315" lon="1.42332">
        <ele>159</ele>
        <time>2018-03-10T09:57:44Z</time>
      </trkpt>
      <trkpt lat="43.46318" lon="1.42328">
        <ele>159</ele>
        <time>2018-03-10T09:57:45Z</time>
      </trkpt>
      <trkpt lat="43.46322" lon="1.42324">
        <ele>159</ele>
        <time>2018-03-10T09:57:45Z</time>
      </trkpt>
      <trkpt lat="43.46326" lon="1.42321">
        <ele>159</ele>
        <time>2018-03-10T09:57:45Z</time>
      </trkpt>
      <trkpt lat="43.4633" lon="1.42318">
        <ele>159</ele>
        <time>2018-03-10T09:58:00Z</time>
      </trkpt>
      <trkpt lat="43.46334" lon="1.42315">
        <ele>159</ele>
        <time>2018-03-10T09:58:01Z</time>
      </trkpt>
      <trkpt lat="43.46339" lon="1.42312">
        <ele>159</ele>
        <time>2018-03-10T09:58:01Z</time>
      </trkpt>
      <trkpt lat="43.46344" lon="1.42308">
        <ele>159</ele>
        <time>2018-03-10T09:58:01Z</time>
      </trkpt>
      <trkpt lat="43.46348" lon="1.42304">
        <ele>159</ele>
        <time>2018-03-10T09:58:16Z</time>
      </trkpt>
      <trkpt lat="43.46352" lon="1.423">
        <ele>159</ele>
        <time>2018-03-10T09:58:17Z</time>
      </trkpt>
      <trkpt lat="43.46356" lon="1.42297">
        <ele>159</ele>
        <time>2018-03-10T09:58:17Z</time>
      </trkpt>
      <trkpt lat="43.46359" lon="1.42293">
        <ele>159</ele>
        <time>2018-03-10T09:58:17Z</time>
      </trkpt>
      <trkpt lat="43.46362" lon="1.42289">
        <ele>158</ele>
        <time>2018-03-10T09:58:32Z</time>
      </trkpt>
      <trkpt lat="43.46366" lon="1.42286">
        <ele>158</ele>
        <time>2018-03-10T09:58:33Z</time>
      </trkpt>
      <trkpt lat="43.4637" lon="1.42282">
        <ele>158</ele>
        <time>2018-03-10T09:58:33Z</time>
      </trkpt>
      <trkpt lat="43.46374" lon="1.42279">
        <ele>158</ele>
        <time>2018-03-10T09:58:33Z</time>
      </trkpt>
      <trkpt lat="43.46378" lon="1.42277">
        <ele>158</ele>
        <time>2018-03-10T09:58:48Z</time>
      </trkpt>
      <trkpt lat="43.46382" lon="1.42273">
        <ele>158</ele>
        <time>2018-03-10T09:58:49Z</time>
      </trkpt>
      <trkpt lat="43.46386" lon="1.42269">
        <ele>158</ele>
        <time>2018-03-10T09:58:49Z</time>
      </trkpt>
      <trkpt lat="43.46391" lon="1.42265">
        <ele>158</ele>
        <time>2018-03-10T09:58:49Z</time>
      </trkpt>
      <trkpt lat="43.46395" lon="1.42262">
        <ele>158</ele>
        <time>2018-03-10T09:59:04Z</time>
      </trkpt>
      <trkpt lat="43.46399" lon="1.42258">
        <ele>158</ele>
        <time>2018-03-10T09:59:05Z</time>
      </trkpt>
      <trkpt lat="43.46402" lon="1.42255">
        <ele>158</ele>
        <time>2018-03-10T09:59:05Z</time>
      </trkpt>
      <trkpt lat="43.46406" lon="1.42252">
        <ele>158</ele>
        <time>2018-03-10T09:59:05Z</time>
      </trkpt>
      <trkpt lat="43.4641" lon="1.4225">
        <ele>158</ele>
        <time>2018-03-10T09:59:20Z</time>
      </trkpt>
      <trkpt lat="43.46415" lon="1.42247">
        <ele>158</ele>
        <time>2018-03-10T09:59:21Z</time>
      </trkpt>
      <trkpt lat="43.46419" lon="1.42245">
        <ele>158</ele>
        <time>2018-03-10T09:59:21Z</time>
      </trkpt>
      <trkpt lat="43.46424" lon="1.42243">
        <ele>158</ele>
        <time>2018-03-10T09:59:21Z</time>
      </trkpt>
      <trkpt lat="43.46428" lon="1.4224">
        <ele>158</ele>
        <time>2018-03-10T09:59:36Z</time>
      </trkpt>
      <trkpt lat="43.46432" lon="1.42238">
        <ele>158</ele>
        <time>2018-03-10T09:59:37Z</time>
      </trkpt>
      <trkpt lat="43.46436" lon="1.42236">
        <ele>158</ele>
        <time>2018-03-10T09:59:37Z</time>
      </trkpt>
      <trkpt lat="43.4644" lon="1.42234">
        <ele>158</ele>
        <time>2018-03-10T09:59:37Z</time>
      </trkpt>
      <trkpt lat="43.46444" lon="1.42231">
        <ele>158</ele>
        <time>2018-03-10T09:59:52Z</time>
      </trkpt>
      <trkpt lat="43.46449" lon="1.42229">
        <ele>158</ele>
        <time>2018-03-10T09:59:53Z</time>
      </trkpt>
      <trkpt lat="43.46453" lon="1.42228">
        <ele>158</ele>
        <time>2018-03-10T09:59:53Z</time>
      </trkpt>
      <trkpt lat="43.46458" lon="1.42227">
        <ele>158</ele>
        <time>2018-03-10T09:59:53Z</time>
      </trkpt>
      <trkpt lat="43.46463" lon="1.42226">
        <ele>158</ele>
        <time>2018-03-10T10:00:08Z</time>
      </trkpt>
      <trkpt lat="43.46467" lon="1.42224">
        <ele>158</ele>
        <time>2018-03-10T10:00:09Z</time>
      </trkpt>
      <trkpt lat="43.46472" lon="1.42222">
        <ele>158</ele>
        <time>2018-03-10T10:00:09Z</time>
      </trkpt>
      <trkpt lat="43.46476" lon="1.4222">
        <ele>158</ele>
        <time>2018-03-10T10:00:09Z</time>
      </trkpt>
      <trkpt lat="43.46481" lon="1.42219">
        <ele>158</ele>
        <time>2018-03-10T10:00:24Z</time>
      </trkpt>
      <trkpt lat="43.46486" lon="1.42217">
        <ele>158</ele>
        <time>2018-03-10T10:00:25Z</time>
      </trkpt>
      <trkpt lat="43.46491" lon="1.42216">
        <ele>158</ele>
        <time>2018-03-10T10:00:25Z</time>
      </trkpt>
      <trkpt lat="43.46496" lon="1.42214">
        <ele>158</ele>
        <time>2018-03-10T10:00:25Z</time>
      </trkpt>
      <trkpt lat="43.46501" lon="1.42212">
        <ele>158</ele>
        <time>2018-03-10T10:00:40Z</time>
      </trkpt>
      <trkpt lat="43.46506" lon="1.42211">
        <ele>158</ele>
        <time>2018-03-10T10:00:41Z</time>
      </trkpt>
      <trkpt lat="43.46511" lon="1.4221">
        <ele>158</ele>
        <time>2018-03-10T10:00:41Z</time>
      </trkpt>
      <trkpt lat="43.46516" lon="1.42208">
        <ele>158</ele>
        <time>2018-03-10T10:00:41Z</time>
      </trkpt>
      <trkpt lat="43.46522" lon="1.42207">
        <ele>158</ele>
        <time>2018-03-10T10:00:56Z</time>
      </trkpt>
      <trkpt lat="43.46528" lon="1.42203">
        <ele>158</ele>
        <time>2018-03-10T10:00:57Z</time>
      </trkpt>
      <trkpt lat="43.46533" lon="1.42201">
        <ele>158</ele>
        <time>2018-03-10T10:00:57Z</time>
      </trkpt>
      <trkpt lat="43.46537" lon="1.42199">
        <ele>158</ele>
        <time>2018-03-10T10:00:57Z</time>
      </trkpt>
      <trkpt lat="43.46541" lon="1.42197">
        <ele>158</ele>
        <time>2018-03-10T10:01:12Z</time>
      </trkpt>
      <trkpt lat="43.46544" lon="1.42196">
        <ele>158</ele>
        <time>2018-03-10T10:01:13Z</time>
      </trkpt>
      <trkpt lat="43.46547" lon="1.42195">
        <ele>158</ele>
        <time>2018-03-10T10:01:13Z</time>
      </trkpt>
      <trkpt lat="43.46551" lon="1.42194">
        <ele>158</ele>
        <time>2018-03-10T10:01:13Z</time>
      </trkpt>
      <trkpt lat="43.46554" lon="1.42193">
        <ele>158</ele>
        <time>2018-03-10T10:01:28Z</time>
      </trkpt>
      <trkpt lat="43.46559" lon="1.42191">
        <ele>158</ele>
        <time>2018-03-10T10:01:29Z</time>
      </trkpt>
      <trkpt lat="43.46564" lon="1.42189">
        <ele>158</ele>
        <time>2018-03-10T10:01:29Z</time>
      </trkpt>
      <trkpt lat="43.46568" lon="1.42188">
        <ele>158</ele>
        <time>2018-03-10T10:01:29Z</time>
      </trkpt>
      <trkpt lat="43.46572" lon="1.42186">
        <ele>158</ele>
        <time>2018-03-10T10:01:44Z</time>
      </trkpt>
      <trkpt lat="43.46576" lon="1.42185">
        <ele>158</ele>
        <time>2018-03-10T10:01:45Z</time>
      </trkpt>
      <trkpt lat="43.46581" lon="1.42182">
        <ele>158</ele>
        <time>2018-03-10T10:01:45Z</time>
      </trkpt>
      <trkpt lat="43.46586" lon="1.42181">
        <ele>158</ele>
        <time>2018-03-10T10:01:45Z</time>
      </trkpt>
      <trkpt lat="43.46592" lon="1.42179">
        <ele>158</ele>
        <time>2018-03-10T10:02:00Z</time>
      </trkpt>
      <trkpt lat="43.46597" lon="1.42177">
        <ele>158</ele>
        <time>2018-03-10T10:02:01Z</time>
      </trkpt>
      <trkpt lat="43.46601" lon="1.42175">
        <ele>158</ele>
        <time>2018-03-10T10:02:01Z</time>
      </trkpt>
      <trkpt lat="43.46609" lon="1.42173">
        <ele>158</ele>
        <time>2018-03-10T10:02:01Z</time>
      </trkpt>
      <trkpt lat="43.46613" lon="1.42172">
        <ele>158</ele>
        <time>2018-03-10T10:02:16Z</time>
      </trkpt>
      <trkpt lat="43.46618" lon="1.42171">
        <ele>158</ele>
        <time>2018-03-10T10:02:17Z</time>
      </trkpt>
      <trkpt lat="43.46623" lon="1.4217">
        <ele>158</ele>
        <time>2018-03-10T10:02:17Z</time>
      </trkpt>
      <trkpt lat="43.46628" lon="1.42169">
        <ele>158</ele>
        <time>2018-03-10T10:02:17Z</time>
      </trkpt>
      <trkpt lat="43.46631" lon="1.42167">
        <ele>158</ele>
        <time>2018-03-10T10:02:32Z</time>
      </trkpt>
      <trkpt lat="43.46635" lon="1.42165">
        <ele>158</ele>
        <time>2018-03-10T10:02:33Z</time>
      </trkpt>
      <trkpt lat="43.4664" lon="1.42163">
        <ele>158</ele>
        <time>2018-03-10T10:02:33Z</time>
      </trkpt>
      <trkpt lat="43.46644" lon="1.42161">
        <ele>158</ele>
        <time>2018-03-10T10:02:33Z</time>
      </trkpt>
      <trkpt lat="43.46649" lon="1.4216">
        <ele>158</ele>
        <time>2018-03-10T10:02:48Z</time>
      </trkpt>
      <trkpt lat="43.46654" lon="1.42158">
        <ele>158</ele>
        <time>2018-03-10T10:02:49Z</time>
      </trkpt>
      <trkpt lat="43.46658" lon="1.42156">
        <ele>158</ele>
        <time>2018-03-10T10:02:49Z</time>
      </trkpt>
      <trkpt lat="43.46662" lon="1.42154">
        <ele>158</ele>
        <time>2018-03-10T10:02:49Z</time>
      </trkpt>
      <trkpt lat="43.46667" lon="1.42152">
        <ele>158</ele>
        <time>2018-03-10T10:03:04Z</time>
      </trkpt>
      <trkpt lat="43.46673" lon="1.42151">
        <ele>158</ele>
        <time>2018-03-10T10:03:05Z</time>
      </trkpt>
      <trkpt lat="43.46678" lon="1.42149">
        <ele>158</ele>
        <time>2018-03-10T10:03:05Z</time>
      </trkpt>
      <trkpt lat="43.46682" lon="1.42149">
        <ele>158</ele>
        <time>2018-03-10T10:03:05Z</time>
      </trkpt>
      <trkpt lat="43.46686" lon="1.42147">
        <ele>158</ele>
        <time>2018-03-10T10:03:20Z</time>
      </trkpt>
      <trkpt lat="43.4669" lon="1.42144">
        <ele>158</ele>
        <time>2018-03-10T10:03:21Z</time>
      </trkpt>
      <trkpt lat="43.46694" lon="1.42143">
        <ele>158</ele>
        <time>2018-03-10T10:03:21Z</time>
      </trkpt>
      <trkpt lat="43.46698" lon="1.42142">
        <ele>158</ele>
        <time>2018-03-10T10:03:21Z</time>
      </trkpt>
      <trkpt lat="43.46701" lon="1.4214">
        <ele>158</ele>
        <time>2018-03-10T10:03:36Z</time>
      </trkpt>
      <trkpt lat="43.46704" lon="1.4214">
        <ele>158</ele>
        <time>2018-03-10T10:03:37Z</time>
      </trkpt>
      <trkpt lat="43.46708" lon="1.42139">
        <ele>158</ele>
        <time>2018-03-10T10:03:37Z</time>
      </trkpt>
      <trkpt lat="43.46713" lon="1.42136">
        <ele>159</ele>
        <time>2018-03-10T10:03:37Z</time>
      </trkpt>
      <trkpt lat="43.46717" lon="1.42134">
        <ele>159</ele>
        <time>2018-03-10T10:03:52Z</time>
      </trkpt>
      <trkpt lat="43.46721" lon="1.42132">
        <ele>159</ele>
        <time>2018-03-10T10:03:53Z</time>
      </trkpt>
      <trkpt lat="43.46725" lon="1.4213">
        <ele>159</ele>
        <time>2018-03-10T10:03:53Z</time>
      </trkpt>
      <trkpt lat="43.46729" lon="1.42129">
        <ele>159</ele>
        <time>2018-03-10T10:03:53Z</time>
      </trkpt>
      <trkpt lat="43.46734" lon="1.42128">
        <ele>159</ele>
        <time>2018-03-10T10:04:08Z</time>
      </trkpt>
      <trkpt lat="43.46739" lon="1.42126">
        <ele>159</ele>
        <time>2018-03-10T10:04:09Z</time>
      </trkpt>
      <trkpt lat="43.46742" lon="1.42126">
        <ele>159</ele>
        <time>2018-03-10T10:04:09Z</time>
      </trkpt>
      <trkpt lat="43.46746" lon="1.42124">
        <ele>157</ele>
        <time>2018-03-10T10:04:09Z</time>
      </trkpt>
      <trkpt lat="43.4676" lon="1.42119">
        <ele>157</ele>
        <time>2018-03-10T10:04:40Z</time>
      </trkpt>
      <trkpt lat="43.46762" lon="1.42118">
        <ele>157</ele>
        <time>2018-03-10T10:04:41Z</time>
      </trkpt>
      <trkpt lat="43.46769" lon="1.42117">
        <ele>157</ele>
        <time>2018-03-10T10:04:41Z</time>
      </trkpt>
      <trkpt lat="43.46775" lon="1.42116">
        <ele>157</ele>
        <time>2018-03-10T10:04:41Z</time>
      </trkpt>
      <trkpt lat="43.4678" lon="1.42115">
        <ele>157</ele>
        <time>2018-03-10T10:04:41Z</time>
      </trkpt>
      <trkpt lat="43.46785" lon="1.42114">
        <ele>157</ele>
        <time>2018-03-10T10:04:56Z</time>
      </trkpt>
      <trkpt lat="43.46788" lon="1.42115">
        <ele>157</ele>
        <time>2018-03-10T10:04:57Z</time>
      </trkpt>
      <trkpt lat="43.46792" lon="1.42114">
        <ele>157</ele>
        <time>2018-03-10T10:04:57Z</time>
      </trkpt>
      <trkpt lat="43.46798" lon="1.42113">
        <ele>157</ele>
        <time>2018-03-10T10:04:57Z</time>
      </trkpt>
      <trkpt lat="43.46804" lon="1.42113">
        <ele>157</ele>
        <time>2018-03-10T10:05:12Z</time>
      </trkpt>
      <trkpt lat="43.46808" lon="1.42113">
        <ele>157</ele>
        <time>2018-03-10T10:05:13Z</time>
      </trkpt>
      <trkpt lat="43.46812" lon="1.42113">
        <ele>157</ele>
        <time>2018-03-10T10:05:13Z</time>
      </trkpt>
      <trkpt lat="43.46816" lon="1.42113">
        <ele>157</ele>
        <time>2018-03-10T10:05:13Z</time>
      </trkpt>
      <trkpt lat="43.46821" lon="1.42114">
        <ele>157</ele>
        <time>2018-03-10T10:05:28Z</time>
      </trkpt>
      <trkpt lat="43.46826" lon="1.42114">
        <ele>157</ele>
        <time>2018-03-10T10:05:29Z</time>
      </trkpt>
      <trkpt lat="43.4683" lon="1.42114">
        <ele>157</ele>
        <time>2018-03-10T10:05:29Z</time>
      </trkpt>
      <trkpt lat="43.46835" lon="1.42115">
        <ele>157</ele>
        <time>2018-03-10T10:05:29Z</time>
      </trkpt>
      <trkpt lat="43.4684" lon="1.42115">
        <ele>157</ele>
        <time>2018-03-10T10:05:44Z</time>
      </trkpt>
      <trkpt lat="43.46846" lon="1.42114">
        <ele>157</ele>
        <time>2018-03-10T10:05:45Z</time>
      </trkpt>
      <trkpt lat="43.4685" lon="1.42114">
        <ele>157</ele>
        <time>2018-03-10T10:05:45Z</time>
      </trkpt>
      <trkpt lat="43.46855" lon="1.42114">
        <ele>157</ele>
        <time>2018-03-10T10:05:45Z</time>
      </trkpt>
      <trkpt lat="43.4686" lon="1.42113">
        <ele>157</ele>
        <time>2018-03-10T10:06:00Z</time>
      </trkpt>
      <trkpt lat="43.46865" lon="1.42113">
        <ele>157</ele>
        <time>2018-03-10T10:06:01Z</time>
      </trkpt>
      <trkpt lat="43.46869" lon="1.42114">
        <ele>157</ele>
        <time>2018-03-10T10:06:01Z</time>
      </trkpt>
      <trkpt lat="43.46874" lon="1.42114">
        <ele>157</ele>
        <time>2018-03-10T10:06:01Z</time>
      </trkpt>
      <trkpt lat="43.46879" lon="1.42115">
        <ele>157</ele>
        <time>2018-03-10T10:06:16Z</time>
      </trkpt>
      <trkpt lat="43.46883" lon="1.42114">
        <ele>157</ele>
        <time>2018-03-10T10:06:17Z</time>
      </trkpt>
      <trkpt lat="43.46887" lon="1.42114">
        <ele>157</ele>
        <time>2018-03-10T10:06:17Z</time>
      </trkpt>
      <trkpt lat="43.46893" lon="1.42114">
        <ele>157</ele>
        <time>2018-03-10T10:06:17Z</time>
      </trkpt>
      <trkpt lat="43.46898" lon="1.42113">
        <ele>157</ele>
        <time>2018-03-10T10:06:32Z</time>
      </trkpt>
      <trkpt lat="43.46902" lon="1.42113">
        <ele>157</ele>
        <time>2018-03-10T10:06:33Z</time>
      </trkpt>
      <trkpt lat="43.46907" lon="1.42113">
        <ele>157</ele>
        <time>2018-03-10T10:06:33Z</time>
      </trkpt>
      <trkpt lat="43.46912" lon="1.42111">
        <ele>157</ele>
        <time>2018-03-10T10:06:33Z</time>
      </trkpt>
      <trkpt lat="43.46914" lon="1.4211">
        <ele>157</ele>
        <time>2018-03-10T10:06:48Z</time>
      </trkpt>
      <trkpt lat="43.46918" lon="1.42109">
        <ele>157</ele>
        <time>2018-03-10T10:06:49Z</time>
      </trkpt>
      <trkpt lat="43.46923" lon="1.42108">
        <ele>157</ele>
        <time>2018-03-10T10:06:49Z</time>
      </trkpt>
      <trkpt lat="43.46928" lon="1.42107">
        <ele>157</ele>
        <time>2018-03-10T10:06:49Z</time>
      </trkpt>
      <trkpt lat="43.46933" lon="1.42105">
        <ele>157</ele>
        <time>2018-03-10T10:07:04Z</time>
      </trkpt>
      <trkpt lat="43.46938" lon="1.42103">
        <ele>157</ele>
        <time>2018-03-10T10:07:05Z</time>
      </trkpt>
      <trkpt lat="43.46945" lon="1.42101">
        <ele>157</ele>
        <time>2018-03-10T10:07:05Z</time>
      </trkpt>
      <trkpt lat="43.4695" lon="1.421">
        <ele>157</ele>
        <time>2018-03-10T10:07:05Z</time>
      </trkpt>
      <trkpt lat="43.46954" lon="1.42098">
        <ele>157</ele>
        <time>2018-03-10T10:07:20Z</time>
      </trkpt>
      <trkpt lat="43.46959" lon="1.42095">
        <ele>162</ele>
        <time>2018-03-10T10:07:21Z</time>
      </trkpt>
      <trkpt lat="43.46963" lon="1.42094">
        <ele>162</ele>
        <time>2018-03-10T10:07:21Z</time>
      </trkpt>
      <trkpt lat="43.46968" lon="1.42093">
        <ele>162</ele>
        <time>2018-03-10T10:07:21Z</time>
      </trkpt>
      <trkpt lat="43.46972" lon="1.42091">
        <ele>162</ele>
        <time>2018-03-10T10:07:36Z</time>
      </trkpt>
      <trkpt lat="43.46976" lon="1.42089">
        <ele>162</ele>
        <time>2018-03-10T10:07:37Z</time>
      </trkpt>
      <trkpt lat="43.4698" lon="1.42089">
        <ele>162</ele>
        <time>2018-03-10T10:07:37Z</time>
      </trkpt>
      <trkpt lat="43.46983" lon="1.42087">
        <ele>162</ele>
        <time>2018-03-10T10:07:37Z</time>
      </trkpt>
      <trkpt lat="43.46987" lon="1.42084">
        <ele>162</ele>
        <time>2018-03-10T10:07:52Z</time>
      </trkpt>
      <trkpt lat="43.46989" lon="1.42084">
        <ele>162</ele>
        <time>2018-03-10T10:07:53Z</time>
      </trkpt>
      <trkpt lat="43.46993" lon="1.42083">
        <ele>162</ele>
        <time>2018-03-10T10:07:53Z</time>
      </trkpt>
      <trkpt lat="43.47" lon="1.4208">
        <ele>162</ele>
        <time>2018-03-10T10:07:53Z</time>
      </trkpt>
      <trkpt lat="43.47008" lon="1.42077">
        <ele>162</ele>
        <time>2018-03-10T10:08:08Z</time>
      </trkpt>
      <trkpt lat="43.47014" lon="1.42074">
        <ele>162</ele>
        <time>2018-03-10T10:08:09Z</time>
      </trkpt>
      <trkpt lat="43.47019" lon="1.42073">
        <ele>162</ele>
        <time>2018-03-10T10:08:09Z</time>
      </trkpt>
      <trkpt lat="43.47026" lon="1.42072">
        <ele>162</ele>
        <time>2018-03-10T10:08:09Z</time>
      </trkpt>
      <trkpt lat="43.47031" lon="1.42071">
        <ele>162</ele>
        <time>2018-03-10T10:08:24Z</time>
      </trkpt>
      <trkpt lat="43.47036" lon="1.4207">
        <ele>162</ele>
        <time>2018-03-10T10:08:25Z</time>
      </trkpt>
      <trkpt lat="43.4704" lon="1.42069">
        <ele>162</ele>
        <time>2018-03-10T10:08:25Z</time>
      </trkpt>
      <trkpt lat="43.47045" lon="1.4207">
        <ele>161</ele>
        <time>2018-03-10T10:08:25Z</time>
      </trkpt>
      <trkpt lat="43.47049" lon="1.42072">
        <ele>161</ele>
        <time>2018-03-10T10:08:40Z</time>
      </trkpt>
      <trkpt lat="43.47053" lon="1.42073">
        <ele>161</ele>
        <time>2018-03-10T10:08:41Z</time>
      </trkpt>
      <trkpt lat="43.47058" lon="1.42074">
        <ele>161</ele>
        <time>2018-03-10T10:08:41Z</time>
      </trkpt>
      <trkpt lat="43.47062" lon="1.42075">
        <ele>161</ele>
        <time>2018-03-10T10:08:41Z</time>
      </trkpt>
      <trkpt lat="43.47067" lon="1.42076">
        <ele>161</ele>
        <time>2018-03-10T10:08:56Z</time>
      </trkpt>
      <trkpt lat="43.47071" lon="1.42077">
        <ele>161</ele>
        <time>2018-03-10T10:08:57Z</time>
      </trkpt>
      <trkpt lat="43.47075" lon="1.42077">
        <ele>161</ele>
        <time>2018-03-10T10:08:57Z</time>
      </trkpt>
      <trkpt lat="43.47079" lon="1.42079">
        <ele>161</ele>
        <time>2018-03-10T10:08:57Z</time>
      </trkpt>
      <trkpt lat="43.47084" lon="1.4208">
        <ele>161</ele>
        <time>2018-03-10T10:09:12Z</time>
      </trkpt>
      <trkpt lat="43.4709" lon="1.42079">
        <ele>161</ele>
        <time>2018-03-10T10:09:13Z</time>
      </trkpt>
      <trkpt lat="43.47093" lon="1.42081">
        <ele>161</ele>
        <time>2018-03-10T10:09:13Z</time>
      </trkpt>
      <trkpt lat="43.47098" lon="1.4208">
        <ele>161</ele>
        <time>2018-03-10T10:09:13Z</time>
      </trkpt>
      <trkpt lat="43.47102" lon="1.4208">
        <ele>161</ele>
        <time>2018-03-10T10:09:28Z</time>
      </trkpt>
      <trkpt lat="43.47107" lon="1.4208">
        <ele>161</ele>
        <time>2018-03-10T10:09:29Z</time>
      </trkpt>
      <trkpt lat="43.47111" lon="1.42082">
        <ele>161</ele>
        <time>2018-03-10T10:09:29Z</time>
      </trkpt>
      <trkpt lat="43.47115" lon="1.42082">
        <ele>161</ele>
        <time>2018-03-10T10:09:29Z</time>
      </trkpt>
      <trkpt lat="43.4712" lon="1.42081">
        <ele>161</ele>
        <time>2018-03-10T10:09:44Z</time>
      </trkpt>
      <trkpt lat="43.47126" lon="1.42079">
        <ele>164</ele>
        <time>2018-03-10T10:09:45Z</time>
      </trkpt>
      <trkpt lat="43.4713" lon="1.42077">
        <ele>164</ele>
        <time>2018-03-10T10:09:45Z</time>
      </trkpt>
      <trkpt lat="43.47134" lon="1.42074">
        <ele>164</ele>
        <time>2018-03-10T10:09:45Z</time>
      </trkpt>
      <trkpt lat="43.47139" lon="1.4207">
        <ele>164</ele>
        <time>2018-03-10T10:10:00Z</time>
      </trkpt>
      <trkpt lat="43.47142" lon="1.42067">
        <ele>164</ele>
        <time>2018-03-10T10:10:01Z</time>
      </trkpt>
      <trkpt lat="43.47146" lon="1.42064">
        <ele>164</ele>
        <time>2018-03-10T10:10:01Z</time>
      </trkpt>
      <trkpt lat="43.47151" lon="1.4206">
        <ele>164</ele>
        <time>2018-03-10T10:10:01Z</time>
      </trkpt>
      <trkpt lat="43.47156" lon="1.42057">
        <ele>164</ele>
        <time>2018-03-10T10:10:16Z</time>
      </trkpt>
      <trkpt lat="43.47162" lon="1.42053">
        <ele>164</ele>
        <time>2018-03-10T10:10:17Z</time>
      </trkpt>
      <trkpt lat="43.47166" lon="1.42051">
        <ele>164</ele>
        <time>2018-03-10T10:10:17Z</time>
      </trkpt>
      <trkpt lat="43.47171" lon="1.42049">
        <ele>164</ele>
        <time>2018-03-10T10:10:17Z</time>
      </trkpt>
      <trkpt lat="43.47176" lon="1.42049">
        <ele>164</ele>
        <time>2018-03-10T10:10:32Z</time>
      </trkpt>
      <trkpt lat="43.47182" lon="1.42048">
        <ele>164</ele>
        <time>2018-03-10T10:10:33Z</time>
      </trkpt>
      <trkpt lat="43.47186" lon="1.42048">
        <ele>164</ele>
        <time>2018-03-10T10:10:33Z</time>
      </trkpt>
      <trkpt lat="43.4719" lon="1.42047">
        <ele>164</ele>
        <time>2018-03-10T10:10:33Z</time>
      </trkpt>
      <trkpt lat="43.47194" lon="1.42046">
        <ele>164</ele>
        <time>2018-03-10T10:10:48Z</time>
      </trkpt>
      <trkpt lat="43.472" lon="1.42045">
        <ele>164</ele>
        <time>2018-03-10T10:10:49Z</time>
      </trkpt>
      <trkpt lat="43.47204" lon="1.42045">
        <ele>164</ele>
        <time>2018-03-10T10:10:49Z</time>
      </trkpt>
      <trkpt lat="43.47209" lon="1.42044">
        <ele>173</ele>
        <time>2018-03-10T10:10:49Z</time>
      </trkpt>
      <trkpt lat="43.47213" lon="1.42044">
        <ele>173</ele>
        <time>2018-03-10T10:11:04Z</time>
      </trkpt>
      <trkpt lat="43.47216" lon="1.42044">
        <ele>173</ele>
        <time>2018-03-10T10:11:05Z</time>
      </trkpt>
      <trkpt lat="43.47219" lon="1.42044">
        <ele>173</ele>
        <time>2018-03-10T10:11:05Z</time>
      </trkpt>
      <trkpt lat="43.47222" lon="1.42044">
        <ele>173</ele>
        <time>2018-03-10T10:11:05Z</time>
      </trkpt>
      <trkpt lat="43.47227" lon="1.42044">
        <ele>173</ele>
        <time>2018-03-10T10:11:20Z</time>
      </trkpt>
      <trkpt lat="43.47232" lon="1.42044">
        <ele>173</ele>
        <time>2018-03-10T10:11:21Z</time>
      </trkpt>
      <trkpt lat="43.47235" lon="1.42043">
        <ele>173</ele>
        <time>2018-03-10T10:11:21Z</time>
      </trkpt>
      <trkpt lat="43.47239" lon="1.42043">
        <ele>173</ele>
        <time>2018-03-10T10:11:21Z</time>
      </trkpt>
      <trkpt lat="43.47243" lon="1.42042">
        <ele>173</ele>
        <time>2018-03-10T10:11:36Z</time>
      </trkpt>
      <trkpt lat="43.47246" lon="1.42041">
        <ele>159</ele>
        <time>2018-03-10T10:11:37Z</time>
      </trkpt>
      <trkpt lat="43.4725" lon="1.42041">
        <ele>159</ele>
        <time>2018-03-10T10:11:37Z</time>
      </trkpt>
      <trkpt lat="43.47255" lon="1.42039">
        <ele>159</ele>
        <time>2018-03-10T10:11:37Z</time>
      </trkpt>
      <trkpt lat="43.47259" lon="1.42039">
        <ele>159</ele>
        <time>2018-03-10T10:11:52Z</time>
      </trkpt>
      <trkpt lat="43.47264" lon="1.42039">
        <ele>159</ele>
        <time>2018-03-10T10:11:53Z</time>
      </trkpt>
      <trkpt lat="43.47268" lon="1.42037">
        <ele>159</ele>
        <time>2018-03-10T10:11:53Z</time>
      </trkpt>
      <trkpt lat="43.47274" lon="1.42036">
        <ele>159</ele>
        <time>2018-03-10T10:11:53Z</time>
      </trkpt>
      <trkpt lat="43.4728" lon="1.42034">
        <ele>159</ele>
        <time>2018-03-10T10:12:08Z</time>
      </trkpt>
      <trkpt lat="43.47285" lon="1.42034">
        <ele>159</ele>
        <time>2018-03-10T10:12:09Z</time>
      </trkpt>
      <trkpt lat="43.4729" lon="1.42033">
        <ele>159</ele>
        <time>2018-03-10T10:12:09Z</time>
      </trkpt>
      <trkpt lat="43.47294" lon="1.42034">
        <ele>162</ele>
        <time>2018-03-10T10:12:09Z</time>
      </trkpt>
      <trkpt lat="43.47298" lon="1.42032">
        <ele>162</ele>
        <time>2018-03-10T10:12:24Z</time>
      </trkpt>
      <trkpt lat="43.47303" lon="1.42032">
        <ele>162</ele>
        <time>2018-03-10T10:12:25Z</time>
      </trkpt>
      <trkpt lat="43.47308" lon="1.42031">
        <ele>162</ele>
        <time>2018-03-10T10:12:25Z</time>
      </trkpt>
      <trkpt lat="43.47315" lon="1.42031">
        <ele>162</ele>
        <time>2018-03-10T10:12:25Z</time>
      </trkpt>
      <trkpt lat="43.47321" lon="1.42029">
        <ele>162</ele>
        <time>2018-03-10T10:12:40Z</time>
      </trkpt>
      <trkpt lat="43.47326" lon="1.42027">
        <ele>162</ele>
        <time>2018-03-10T10:12:41Z</time>
      </trkpt>
      <trkpt lat="43.47329" lon="1.42028">
        <ele>162</ele>
        <time>2018-03-10T10:12:41Z</time>
      </trkpt>
      <trkpt lat="43.47334" lon="1.42027">
        <ele>162</ele>
        <time>2018-03-10T10:12:41Z</time>
      </trkpt>
      <trkpt lat="43.47338" lon="1.42027">
        <ele>162</ele>
        <time>2018-03-10T10:12:56Z</time>
      </trkpt>
      <trkpt lat="43.47342" lon="1.42026">
        <ele>162</ele>
        <time>2018-03-10T10:12:57Z</time>
      </trkpt>
      <trkpt lat="43.47347" lon="1.42025">
        <ele>162</ele>
        <time>2018-03-10T10:12:57Z</time>
      </trkpt>
      <trkpt lat="43.47353" lon="1.42024">
        <ele>162</ele>
        <time>2018-03-10T10:12:57Z</time>
      </trkpt>
      <trkpt lat="43.47357" lon="1.42023">
        <ele>162</ele>
        <time>2018-03-10T10:13:12Z</time>
      </trkpt>
      <trkpt lat="43.47361" lon="1.42022">
        <ele>162</ele>
        <time>2018-03-10T10:13:13Z</time>
      </trkpt>
      <trkpt lat="43.47368" lon="1.42019">
        <ele>162</ele>
        <time>2018-03-10T10:13:13Z</time>
      </trkpt>
      <trkpt lat="43.47374" lon="1.42017">
        <ele>162</ele>
        <time>2018-03-10T10:13:13Z</time>
      </trkpt>
      <trkpt lat="43.47379" lon="1.42015">
        <ele>164</ele>
        <time>2018-03-10T10:13:28Z</time>
      </trkpt>
      <trkpt lat="43.47385" lon="1.42012">
        <ele>164</ele>
        <time>2018-03-10T10:13:29Z</time>
      </trkpt>
      <trkpt lat="43.47391" lon="1.42009">
        <ele>164</ele>
        <time>2018-03-10T10:13:29Z</time>
      </trkpt>
      <trkpt lat="43.47394" lon="1.42009">
        <ele>164</ele>
        <time>2018-03-10T10:13:29Z</time>
      </trkpt>
      <trkpt lat="43.47398" lon="1.42007">
        <ele>164</ele>
        <time>2018-03-10T10:13:44Z</time>
      </trkpt>
      <trkpt lat="43.47401" lon="1.42005">
        <ele>164</ele>
        <time>2018-03-10T10:13:45Z</time>
      </trkpt>
      <trkpt lat="43.47405" lon="1.42005">
        <ele>164</ele>
        <time>2018-03-10T10:13:45Z</time>
      </trkpt>
      <trkpt lat="43.4741" lon="1.42003">
        <ele>164</ele>
        <time>2018-03-10T10:13:45Z</time>
      </trkpt>
      <trkpt lat="43.47415" lon="1.42002">
        <ele>164</ele>
        <time>2018-03-10T10:14:00Z</time>
      </trkpt>
      <trkpt lat="43.4742" lon="1.42001">
        <ele>164</ele>
        <time>2018-03-10T10:14:01Z</time>
      </trkpt>
      <trkpt lat="43.47426" lon="1.42001">
        <ele>164</ele>
        <time>2018-03-10T10:14:01Z</time>
      </trkpt>
      <trkpt lat="43.47431" lon="1.41999">
        <ele>164</ele>
        <time>2018-03-10T10:14:01Z</time>
      </trkpt>
      <trkpt lat="43.47434" lon="1.41998">
        <ele>164</ele>
        <time>2018-03-10T10:14:20Z</time>
      </trkpt>
      <trkpt lat="43.47435" lon="1.41997">
        <ele>164</ele>
        <time>2018-03-10T10:14:21Z</time>
      </trkpt>
      <trkpt lat="43.47438" lon="1.41996">
        <ele>164</ele>
        <time>2018-03-10T10:14:21Z</time>
      </trkpt>
      <trkpt lat="43.47442" lon="1.41994">
        <ele>164</ele>
        <time>2018-03-10T10:14:21Z</time>
      </trkpt>
      <trkpt lat="43.47446" lon="1.41993">
        <ele>164</ele>
        <time>2018-03-10T10:14:21Z</time>
      </trkpt>
      <trkpt lat="43.47452" lon="1.4199">
        <ele>164</ele>
        <time>2018-03-10T10:14:36Z</time>
      </trkpt>
      <trkpt lat="43.47457" lon="1.41989">
        <ele>164</ele>
        <time>2018-03-10T10:14:37Z</time>
      </trkpt>
      <trkpt lat="43.47459" lon="1.4199">
        <ele>164</ele>
        <time>2018-03-10T10:14:37Z</time>
      </trkpt>
      <trkpt lat="43.47465" lon="1.41988">
        <ele>164</ele>
        <time>2018-03-10T10:14:37Z</time>
      </trkpt>
      <trkpt lat="43.47475" lon="1.41983">
        <ele>164</ele>
        <time>2018-03-10T10:14:52Z</time>
      </trkpt>
      <trkpt lat="43.47481" lon="1.4198">
        <ele>164</ele>
        <time>2018-03-10T10:14:53Z</time>
      </trkpt>
      <trkpt lat="43.47485" lon="1.41977">
        <ele>164</ele>
        <time>2018-03-10T10:14:53Z</time>
      </trkpt>
      <trkpt lat="43.47489" lon="1.41974">
        <ele>164</ele>
        <time>2018-03-10T10:14:53Z</time>
      </trkpt>
      <trkpt lat="43.47491" lon="1.41973">
        <ele>164</ele>
        <time>2018-03-10T10:15:08Z</time>
      </trkpt>
      <trkpt lat="43.47494" lon="1.41972">
        <ele>164</ele>
        <time>2018-03-10T10:15:09Z</time>
      </trkpt>
      <trkpt lat="43.475" lon="1.41971">
        <ele>164</ele>
        <time>2018-03-10T10:15:09Z</time>
      </trkpt>
      <trkpt lat="43.47506" lon="1.41969">
        <ele>164</ele>
        <time>2018-03-10T10:15:09Z</time>
      </trkpt>
      <trkpt lat="43.47506" lon="1.41968">
        <ele>164</ele>
        <time>2018-03-10T10:15:24Z</time>
      </trkpt>
      <trkpt lat="43.47511" lon="1.41967">
        <ele>164</ele>
        <time>2018-03-10T10:15:25Z</time>
      </trkpt>
      <trkpt lat="43.47516" lon="1.41966">
        <ele>164</ele>
        <time>2018-03-10T10:15:25Z</time>
      </trkpt>
      <trkpt lat="43.4752" lon="1.41967">
        <ele>164</ele>
        <time>2018-03-10T10:15:25Z</time>
      </trkpt>
      <trkpt lat="43.47526" lon="1.41968">
        <ele>164</ele>
        <time>2018-03-10T10:15:40Z</time>
      </trkpt>
      <trkpt lat="43.47533" lon="1.41968">
        <ele>164</ele>
        <time>2018-03-10T10:15:41Z</time>
      </trkpt>
      <trkpt lat="43.47538" lon="1.41968">
        <ele>164</ele>
        <time>2018-03-10T10:15:41Z</time>
      </trkpt>
      <trkpt lat="43.47542" lon="1.41968">
        <ele>165</ele>
        <time>2018-03-10T10:15:41Z</time>
      </trkpt>
      <trkpt lat="43.47551" lon="1.41964">
        <ele>165</ele>
        <time>2018-03-10T10:16:08Z</time>
      </trkpt>
      <trkpt lat="43.47552" lon="1.41963">
        <ele>165</ele>
        <time>2018-03-10T10:16:09Z</time>
      </trkpt>
      <trkpt lat="43.47553" lon="1.41962">
        <ele>165</ele>
        <time>2018-03-10T10:16:09Z</time>
      </trkpt>
      <trkpt lat="43.47555" lon="1.41959">
        <ele>165</ele>
        <time>2018-03-10T10:16:09Z</time>
      </trkpt>
      <trkpt lat="43.47556" lon="1.41959">
        <ele>165</ele>
        <time>2018-03-10T10:16:09Z</time>
      </trkpt>
      <trkpt lat="43.47554" lon="1.41955">
        <ele>157</ele>
        <time>2018-03-10T10:17:56Z</time>
      </trkpt>
      <trkpt lat="43.47555" lon="1.41953">
        <ele>157</ele>
        <time>2018-03-10T10:17:57Z</time>
      </trkpt>
      <trkpt lat="43.47554" lon="1.41951">
        <ele>157</ele>
        <time>2018-03-10T10:17:57Z</time>
      </trkpt>
      <trkpt lat="43.47554" lon="1.4195">
        <ele>157</ele>
        <time>2018-03-10T10:17:57Z</time>
      </trkpt>
      <trkpt lat="43.47554" lon="1.41949">
        <ele>157</ele>
        <time>2018-03-10T10:17:57Z</time>
      </trkpt>
      <trkpt lat="43.47555" lon="1.41943">
        <ele>157</ele>
        <time>2018-03-10T10:25:36Z</time>
      </trkpt>
      <trkpt lat="43.47555" lon="1.41942">
        <ele>157</ele>
        <time>2018-03-10T10:25:37Z</time>
      </trkpt>
      <trkpt lat="43.47557" lon="1.41941">
        <ele>157</ele>
        <time>2018-03-10T10:25:37Z</time>
      </trkpt>
      <trkpt lat="43.47557" lon="1.4194">
        <ele>157</ele>
        <time>2018-03-10T10:25:37Z</time>
      </trkpt>
      <trkpt lat="43.47559" lon="1.41938">
        <ele>157</ele>
        <time>2018-03-10T10:25:37Z</time>
      </trkpt>
      <trkpt lat="43.47568" lon="1.41933">
        <ele>157</ele>
        <time>2018-03-10T10:25:52Z</time>
      </trkpt>
      <trkpt lat="43.47573" lon="1.41928">
        <ele>157</ele>
        <time>2018-03-10T10:25:53Z</time>
      </trkpt>
      <trkpt lat="43.47575" lon="1.41924">
        <ele>157</ele>
        <time>2018-03-10T10:25:53Z</time>
      </trkpt>
      <trkpt lat="43.4758" lon="1.41921">
        <ele>157</ele>
        <time>2018-03-10T10:25:53Z</time>
      </trkpt>
      <trkpt lat="43.47585" lon="1.41918">
        <ele>157</ele>
        <time>2018-03-10T10:26:08Z</time>
      </trkpt>
      <trkpt lat="43.47592" lon="1.41915">
        <ele>157</ele>
        <time>2018-03-10T10:26:09Z</time>
      </trkpt>
      <trkpt lat="43.47602" lon="1.4191">
        <ele>157</ele>
        <time>2018-03-10T10:26:09Z</time>
      </trkpt>
      <trkpt lat="43.47608" lon="1.41906">
        <ele>157</ele>
        <time>2018-03-10T10:26:09Z</time>
      </trkpt>
      <trkpt lat="43.47614" lon="1.41902">
        <ele>157</ele>
        <time>2018-03-10T10:26:24Z</time>
      </trkpt>
      <trkpt lat="43.47621" lon="1.41897">
        <ele>157</ele>
        <time>2018-03-10T10:26:25Z</time>
      </trkpt>
      <trkpt lat="43.47627" lon="1.41895">
        <ele>165</ele>
        <time>2018-03-10T10:26:25Z</time>
      </trkpt>
      <trkpt lat="43.47631" lon="1.41892">
        <ele>165</ele>
        <time>2018-03-10T10:26:25Z</time>
      </trkpt>
      <trkpt lat="43.47636" lon="1.41891">
        <ele>165</ele>
        <time>2018-03-10T10:26:40Z</time>
      </trkpt>
      <trkpt lat="43.47642" lon="1.41889">
        <ele>165</ele>
        <time>2018-03-10T10:26:41Z</time>
      </trkpt>
      <trkpt lat="43.47645" lon="1.41885">
        <ele>165</ele>
        <time>2018-03-10T10:26:41Z</time>
      </trkpt>
      <trkpt lat="43.47648" lon="1.41883">
        <ele>165</ele>
        <time>2018-03-10T10:26:41Z</time>
      </trkpt>
      <trkpt lat="43.47652" lon="1.4188">
        <ele>165</ele>
        <time>2018-03-10T10:26:57Z</time>
      </trkpt>
      <trkpt lat="43.47655" lon="1.41877">
        <ele>165</ele>
        <time>2018-03-10T10:26:57Z</time>
      </trkpt>
      <trkpt lat="43.4766" lon="1.41874">
        <ele>158</ele>
        <time>2018-03-10T10:26:57Z</time>
      </trkpt>
      <trkpt lat="43.47665" lon="1.4187">
        <ele>158</ele>
        <time>2018-03-10T10:26:57Z</time>
      </trkpt>
      <trkpt lat="43.47667" lon="1.41867">
        <ele>158</ele>
        <time>2018-03-10T10:27:12Z</time>
      </trkpt>
      <trkpt lat="43.47666" lon="1.41863">
        <ele>158</ele>
        <time>2018-03-10T10:27:13Z</time>
      </trkpt>
      <trkpt lat="43.47667" lon="1.4186">
        <ele>158</ele>
        <time>2018-03-10T10:27:13Z</time>
      </trkpt>
      <trkpt lat="43.47672" lon="1.41855">
        <ele>158</ele>
        <time>2018-03-10T10:27:13Z</time>
      </trkpt>
      <trkpt lat="43.47679" lon="1.41845">
        <ele>158</ele>
        <time>2018-03-10T10:27:48Z</time>
      </trkpt>
      <trkpt lat="43.47683" lon="1.41847">
        <ele>158</ele>
        <time>2018-03-10T10:27:49Z</time>
      </trkpt>
      <trkpt lat="43.47687" lon="1.41849">
        <ele>158</ele>
        <time>2018-03-10T10:27:49Z</time>
      </trkpt>
      <trkpt lat="43.47692" lon="1.41852">
        <ele>158</ele>
        <time>2018-03-10T10:27:49Z</time>
      </trkpt>
      <trkpt lat="43.47696" lon="1.41856">
        <ele>158</ele>
        <time>2018-03-10T10:27:49Z</time>
      </trkpt>
      <trkpt lat="43.477" lon="1.41857">
        <ele>158</ele>
        <time>2018-03-10T10:28:04Z</time>
      </trkpt>
      <trkpt lat="43.47703" lon="1.4186">
        <ele>158</ele>
        <time>2018-03-10T10:28:05Z</time>
      </trkpt>
      <trkpt lat="43.47708" lon="1.4186">
        <ele>158</ele>
        <time>2018-03-10T10:28:05Z</time>
      </trkpt>
      <trkpt lat="43.47712" lon="1.41859">
        <ele>170</ele>
        <time>2018-03-10T10:28:05Z</time>
      </trkpt>
      <trkpt lat="43.47714" lon="1.4186">
        <ele>170</ele>
        <time>2018-03-10T10:28:24Z</time>
      </trkpt>
      <trkpt lat="43.47716" lon="1.41857">
        <ele>170</ele>
        <time>2018-03-10T10:28:25Z</time>
      </trkpt>
      <trkpt lat="43.47718" lon="1.41854">
        <ele>170</ele>
        <time>2018-03-10T10:28:25Z</time>
      </trkpt>
      <trkpt lat="43.47719" lon="1.4185">
        <ele>170</ele>
        <time>2018-03-10T10:28:25Z</time>
      </trkpt>
      <trkpt lat="43.47721" lon="1.41847">
        <ele>170</ele>
        <time>2018-03-10T10:28:25Z</time>
      </trkpt>
      <trkpt lat="43.47727" lon="1.41843">
        <ele>170</ele>
        <time>2018-03-10T10:28:40Z</time>
      </trkpt>
      <trkpt lat="43.47732" lon="1.41838">
        <ele>170</ele>
        <time>2018-03-10T10:28:41Z</time>
      </trkpt>
      <trkpt lat="43.47737" lon="1.41832">
        <ele>170</ele>
        <time>2018-03-10T10:28:41Z</time>
      </trkpt>
      <trkpt lat="43.4774" lon="1.41827">
        <ele>170</ele>
        <time>2018-03-10T10:28:41Z</time>
      </trkpt>
      <trkpt lat="43.47744" lon="1.41821">
        <ele>170</ele>
        <time>2018-03-10T10:28:56Z</time>
      </trkpt>
      <trkpt lat="43.4775" lon="1.41816">
        <ele>170</ele>
        <time>2018-03-10T10:28:57Z</time>
      </trkpt>
      <trkpt lat="43.47754" lon="1.4181">
        <ele>170</ele>
        <time>2018-03-10T10:28:57Z</time>
      </trkpt>
      <trkpt lat="43.47758" lon="1.41805">
        <ele>170</ele>
        <time>2018-03-10T10:28:57Z</time>
      </trkpt>
      <trkpt lat="43.47761" lon="1.41799">
        <ele>170</ele>
        <time>2018-03-10T10:29:12Z</time>
      </trkpt>
      <trkpt lat="43.47763" lon="1.41795">
        <ele>170</ele>
        <time>2018-03-10T10:29:13Z</time>
      </trkpt>
      <trkpt lat="43.47766" lon="1.41789">
        <ele>162</ele>
        <time>2018-03-10T10:29:13Z</time>
      </trkpt>
      <trkpt lat="43.4777" lon="1.41786">
        <ele>162</ele>
        <time>2018-03-10T10:29:13Z</time>
      </trkpt>
      <trkpt lat="43.47773" lon="1.41782">
        <ele>162</ele>
        <time>2018-03-10T10:29:28Z</time>
      </trkpt>
      <trkpt lat="43.47775" lon="1.41778">
        <ele>162</ele>
        <time>2018-03-10T10:29:29Z</time>
      </trkpt>
      <trkpt lat="43.47779" lon="1.41774">
        <ele>162</ele>
        <time>2018-03-10T10:29:29Z</time>
      </trkpt>
      <trkpt lat="43.47782" lon="1.41768">
        <ele>162</ele>
        <time>2018-03-10T10:29:29Z</time>
      </trkpt>
      <trkpt lat="43.47783" lon="1.41762">
        <ele>162</ele>
        <time>2018-03-10T10:29:44Z</time>
      </trkpt>
      <trkpt lat="43.47787" lon="1.41755">
        <ele>162</ele>
        <time>2018-03-10T10:29:45Z</time>
      </trkpt>
      <trkpt lat="43.47792" lon="1.41748">
        <ele>162</ele>
        <time>2018-03-10T10:29:45Z</time>
      </trkpt>
      <trkpt lat="43.47793" lon="1.41743">
        <ele>183</ele>
        <time>2018-03-10T10:29:45Z</time>
      </trkpt>
      <trkpt lat="43.47795" lon="1.41738">
        <ele>183</ele>
        <time>2018-03-10T10:30:00Z</time>
      </trkpt>
      <trkpt lat="43.47797" lon="1.41733">
        <ele>183</ele>
        <time>2018-03-10T10:30:01Z</time>
      </trkpt>
      <trkpt lat="43.47799" lon="1.41727">
        <ele>183</ele>
        <time>2018-03-10T10:30:01Z</time>
      </trkpt>
      <trkpt lat="43.47801" lon="1.41721">
        <ele>183</ele>
        <time>2018-03-10T10:30:01Z</time>
      </trkpt>
      <trkpt lat="43.47804" lon="1.41715">
        <ele>183</ele>
        <time>2018-03-10T10:30:16Z</time>
      </trkpt>
      <trkpt lat="43.47809" lon="1.4171">
        <ele>183</ele>
        <time>2018-03-10T10:30:17Z</time>
      </trkpt>
      <trkpt lat="43.47811" lon="1.41704">
        <ele>166</ele>
        <time>2018-03-10T10:30:17Z</time>
      </trkpt>
      <trkpt lat="43.47812" lon="1.41701">
        <ele>166</ele>
        <time>2018-03-10T10:30:17Z</time>
      </trkpt>
      <trkpt lat="43.47814" lon="1.41697">
        <ele>166</ele>
        <time>2018-03-10T10:30:32Z</time>
      </trkpt>
      <trkpt lat="43.47817" lon="1.41693">
        <ele>166</ele>
        <time>2018-03-10T10:30:33Z</time>
      </trkpt>
      <trkpt lat="43.47819" lon="1.41689">
        <ele>166</ele>
        <time>2018-03-10T10:30:33Z</time>
      </trkpt>
      <trkpt lat="43.47821" lon="1.41684">
        <ele>166</ele>
        <time>2018-03-10T10:30:33Z</time>
      </trkpt>
      <trkpt lat="43.47825" lon="1.41679">
        <ele>166</ele>
        <time>2018-03-10T10:30:48Z</time>
      </trkpt>
      <trkpt lat="43.47829" lon="1.41674">
        <ele>166</ele>
        <time>2018-03-10T10:30:49Z</time>
      </trkpt>
      <trkpt lat="43.47833" lon="1.4167">
        <ele>166</ele>
        <time>2018-03-10T10:30:49Z</time>
      </trkpt>
      <trkpt lat="43.47835" lon="1.41668">
        <ele>166</ele>
        <time>2018-03-10T10:30:49Z</time>
      </trkpt>
      <trkpt lat="43.47837" lon="1.41666">
        <ele>166</ele>
        <time>2018-03-10T10:31:04Z</time>
      </trkpt>
      <trkpt lat="43.4784" lon="1.41662">
        <ele>166</ele>
        <time>2018-03-10T10:31:05Z</time>
      </trkpt>
      <trkpt lat="43.47843" lon="1.41659">
        <ele>166</ele>
        <time>2018-03-10T10:31:05Z</time>
      </trkpt>
      <trkpt lat="43.47849" lon="1.41656">
        <ele>166</ele>
        <time>2018-03-10T10:31:05Z</time>
      </trkpt>
      <trkpt lat="43.47854" lon="1.41652">
        <ele>166</ele>
        <time>2018-03-10T10:31:20Z</time>
      </trkpt>
      <trkpt lat="43.47859" lon="1.41647">
        <ele>166</ele>
        <time>2018-03-10T10:31:21Z</time>
      </trkpt>
      <trkpt lat="43.47864" lon="1.41643">
        <ele>166</ele>
        <time>2018-03-10T10:31:21Z</time>
      </trkpt>
      <trkpt lat="43.47869" lon="1.41639">
        <ele>166</ele>
        <time>2018-03-10T10:31:21Z</time>
      </trkpt>
      <trkpt lat="43.47873" lon="1.41636">
        <ele>166</ele>
        <time>2018-03-10T10:31:36Z</time>
      </trkpt>
      <trkpt lat="43.47877" lon="1.41631">
        <ele>181</ele>
        <time>2018-03-10T10:31:37Z</time>
      </trkpt>
      <trkpt lat="43.47879" lon="1.41626">
        <ele>181</ele>
        <time>2018-03-10T10:31:37Z</time>
      </trkpt>
      <trkpt lat="43.47883" lon="1.41622">
        <ele>164</ele>
        <time>2018-03-10T10:31:37Z</time>
      </trkpt>
      <trkpt lat="43.47888" lon="1.41619">
        <ele>164</ele>
        <time>2018-03-10T10:31:52Z</time>
      </trkpt>
      <trkpt lat="43.47891" lon="1.41617">
        <ele>164</ele>
        <time>2018-03-10T10:31:53Z</time>
      </trkpt>
      <trkpt lat="43.47895" lon="1.41615">
        <ele>164</ele>
        <time>2018-03-10T10:31:53Z</time>
      </trkpt>
      <trkpt lat="43.47899" lon="1.41612">
        <ele>164</ele>
        <time>2018-03-10T10:31:53Z</time>
      </trkpt>
      <trkpt lat="43.47907" lon="1.41606">
        <ele>164</ele>
        <time>2018-03-10T10:32:20Z</time>
      </trkpt>
      <trkpt lat="43.47907" lon="1.41605">
        <ele>164</ele>
        <time>2018-03-10T10:32:21Z</time>
      </trkpt>
      <trkpt lat="43.47908" lon="1.41603">
        <ele>164</ele>
        <time>2018-03-10T10:32:21Z</time>
      </trkpt>
      <trkpt lat="43.47909" lon="1.41601">
        <ele>164</ele>
        <time>2018-03-10T10:32:21Z</time>
      </trkpt>
      <trkpt lat="43.47912" lon="1.41598">
        <ele>164</ele>
        <time>2018-03-10T10:32:21Z</time>
      </trkpt>
      <trkpt lat="43.47916" lon="1.41598">
        <ele>164</ele>
        <time>2018-03-10T10:32:36Z</time>
      </trkpt>
      <trkpt lat="43.47919" lon="1.41596">
        <ele>164</ele>
        <time>2018-03-10T10:32:37Z</time>
      </trkpt>
      <trkpt lat="43.47926" lon="1.41592">
        <ele>164</ele>
        <time>2018-03-10T10:32:37Z</time>
      </trkpt>
      <trkpt lat="43.47931" lon="1.4159">
        <ele>164</ele>
        <time>2018-03-10T10:32:37Z</time>
      </trkpt>
      <trkpt lat="43.47938" lon="1.41588">
        <ele>164</ele>
        <time>2018-03-10T10:32:52Z</time>
      </trkpt>
      <trkpt lat="43.47942" lon="1.41587">
        <ele>164</ele>
        <time>2018-03-10T10:32:53Z</time>
      </trkpt>
      <trkpt lat="43.47946" lon="1.41586">
        <ele>164</ele>
        <time>2018-03-10T10:32:53Z</time>
      </trkpt>
      <trkpt lat="43.47951" lon="1.41583">
        <ele>164</ele>
        <time>2018-03-10T10:32:53Z</time>
      </trkpt>
      <trkpt lat="43.47956" lon="1.41582">
        <ele>164</ele>
        <time>2018-03-10T10:33:08Z</time>
      </trkpt>
      <trkpt lat="43.47961" lon="1.41578">
        <ele>173</ele>
        <time>2018-03-10T10:33:09Z</time>
      </trkpt>
      <trkpt lat="43.47966" lon="1.41577">
        <ele>173</ele>
        <time>2018-03-10T10:33:09Z</time>
      </trkpt>
      <trkpt lat="43.4797" lon="1.41574">
        <ele>173</ele>
        <time>2018-03-10T10:33:09Z</time>
      </trkpt>
      <trkpt lat="43.47973" lon="1.41573">
        <ele>173</ele>
        <time>2018-03-10T10:33:24Z</time>
      </trkpt>
      <trkpt lat="43.47976" lon="1.41572">
        <ele>173</ele>
        <time>2018-03-10T10:33:25Z</time>
      </trkpt>
      <trkpt lat="43.47981" lon="1.41569">
        <ele>173</ele>
        <time>2018-03-10T10:33:25Z</time>
      </trkpt>
      <trkpt lat="43.47985" lon="1.41566">
        <ele>173</ele>
        <time>2018-03-10T10:33:25Z</time>
      </trkpt>
      <trkpt lat="43.47989" lon="1.41564">
        <ele>173</ele>
        <time>2018-03-10T10:33:40Z</time>
      </trkpt>
      <trkpt lat="43.47993" lon="1.41561">
        <ele>173</ele>
        <time>2018-03-10T10:33:41Z</time>
      </trkpt>
      <trkpt lat="43.47997" lon="1.41559">
        <ele>173</ele>
        <time>2018-03-10T10:33:41Z</time>
      </trkpt>
      <trkpt lat="43.48001" lon="1.41556">
        <ele>173</ele>
        <time>2018-03-10T10:33:41Z</time>
      </trkpt>
      <trkpt lat="43.48006" lon="1.41556">
        <ele>173</ele>
        <time>2018-03-10T10:33:56Z</time>
      </trkpt>
      <trkpt lat="43.48014" lon="1.41554">
        <ele>173</ele>
        <time>2018-03-10T10:33:57Z</time>
      </trkpt>
      <trkpt lat="43.48017" lon="1.41552">
        <ele>173</ele>
        <time>2018-03-10T10:33:57Z</time>
      </trkpt>
      <trkpt lat="43.48021" lon="1.4155">
        <ele>173</ele>
        <time>2018-03-10T10:33:57Z</time>
      </trkpt>
      <trkpt lat="43.48028" lon="1.41547">
        <ele>173</ele>
        <time>2018-03-10T10:34:12Z</time>
      </trkpt>
      <trkpt lat="43.48035" lon="1.41545">
        <ele>173</ele>
        <time>2018-03-10T10:34:13Z</time>
      </trkpt>
      <trkpt lat="43.48042" lon="1.41542">
        <ele>180</ele>
        <time>2018-03-10T10:34:13Z</time>
      </trkpt>
      <trkpt lat="43.48049" lon="1.4154">
        <ele>161</ele>
        <time>2018-03-10T10:34:13Z</time>
      </trkpt>
      <trkpt lat="43.48053" lon="1.41538">
        <ele>161</ele>
        <time>2018-03-10T10:34:28Z</time>
      </trkpt>
      <trkpt lat="43.48058" lon="1.41538">
        <ele>161</ele>
        <time>2018-03-10T10:34:29Z</time>
      </trkpt>
      <trkpt lat="43.48061" lon="1.41536">
        <ele>161</ele>
        <time>2018-03-10T10:34:29Z</time>
      </trkpt>
      <trkpt lat="43.48063" lon="1.41534">
        <ele>161</ele>
        <time>2018-03-10T10:34:29Z</time>
      </trkpt>
      <trkpt lat="43.48067" lon="1.41533">
        <ele>161</ele>
        <time>2018-03-10T10:34:44Z</time>
      </trkpt>
      <trkpt lat="43.48073" lon="1.41532">
        <ele>161</ele>
        <time>2018-03-10T10:34:45Z</time>
      </trkpt>
      <trkpt lat="43.48079" lon="1.4153">
        <ele>161</ele>
        <time>2018-03-10T10:34:45Z</time>
      </trkpt>
      <trkpt lat="43.48084" lon="1.41528">
        <ele>161</ele>
        <time>2018-03-10T10:34:45Z</time>
      </trkpt>
      <trkpt lat="43.4809" lon="1.41525">
        <ele>161</ele>
        <time>2018-03-10T10:35:00Z</time>
      </trkpt>
      <trkpt lat="43.48094" lon="1.41523">
        <ele>161</ele>
        <time>2018-03-10T10:35:01Z</time>
      </trkpt>
      <trkpt lat="43.48098" lon="1.41521">
        <ele>161</ele>
        <time>2018-03-10T10:35:01Z</time>
      </trkpt>
      <trkpt lat="43.48102" lon="1.4152">
        <ele>161</ele>
        <time>2018-03-10T10:35:01Z</time>
      </trkpt>
      <trkpt lat="43.48107" lon="1.41519">
        <ele>161</ele>
        <time>2018-03-10T10:35:16Z</time>
      </trkpt>
      <trkpt lat="43.48111" lon="1.41517">
        <ele>161</ele>
        <time>2018-03-10T10:35:17Z</time>
      </trkpt>
      <trkpt lat="43.48115" lon="1.41518">
        <ele>161</ele>
        <time>2018-03-10T10:35:17Z</time>
      </trkpt>
      <trkpt lat="43.48118" lon="1.41518">
        <ele>161</ele>
        <time>2018-03-10T10:35:17Z</time>
      </trkpt>
      <trkpt lat="43.4812" lon="1.41516">
        <ele>161</ele>
        <time>2018-03-10T10:35:36Z</time>
      </trkpt>
      <trkpt lat="43.48122" lon="1.41514">
        <ele>161</ele>
        <time>2018-03-10T10:35:37Z</time>
      </trkpt>
      <trkpt lat="43.48124" lon="1.41513">
        <ele>161</ele>
        <time>2018-03-10T10:35:37Z</time>
      </trkpt>
      <trkpt lat="43.48128" lon="1.41512">
        <ele>163</ele>
        <time>2018-03-10T10:35:37Z</time>
      </trkpt>
      <trkpt lat="43.48132" lon="1.41512">
        <ele>163</ele>
        <time>2018-03-10T10:35:37Z</time>
      </trkpt>
      <trkpt lat="43.48135" lon="1.41513">
        <ele>163</ele>
        <time>2018-03-10T10:35:56Z</time>
      </trkpt>
      <trkpt lat="43.48137" lon="1.41514">
        <ele>163</ele>
        <time>2018-03-10T10:35:57Z</time>
      </trkpt>
      <trkpt lat="43.48138" lon="1.41514">
        <ele>163</ele>
        <time>2018-03-10T10:35:57Z</time>
      </trkpt>
      <trkpt lat="43.48141" lon="1.41515">
        <ele>163</ele>
        <time>2018-03-10T10:35:57Z</time>
      </trkpt>
      <trkpt lat="43.48144" lon="1.41516">
        <ele>163</ele>
        <time>2018-03-10T10:35:57Z</time>
      </trkpt>
      <trkpt lat="43.48151" lon="1.41515">
        <ele>163</ele>
        <time>2018-03-10T10:36:12Z</time>
      </trkpt>
      <trkpt lat="43.48162" lon="1.41516">
        <ele>163</ele>
        <time>2018-03-10T10:36:13Z</time>
      </trkpt>
      <trkpt lat="43.48168" lon="1.41516">
        <ele>163</ele>
        <time>2018-03-10T10:36:13Z</time>
      </trkpt>
      <trkpt lat="43.48171" lon="1.41517">
        <ele>163</ele>
        <time>2018-03-10T10:36:13Z</time>
      </trkpt>
      <trkpt lat="43.48176" lon="1.41518">
        <ele>163</ele>
        <time>2018-03-10T10:36:28Z</time>
      </trkpt>
      <trkpt lat="43.48183" lon="1.4152">
        <ele>163</ele>
        <time>2018-03-10T10:36:29Z</time>
      </trkpt>
      <trkpt lat="43.48189" lon="1.41523">
        <ele>163</ele>
        <time>2018-03-10T10:36:29Z</time>
      </trkpt>
      <trkpt lat="43.48194" lon="1.41526">
        <ele>163</ele>
        <time>2018-03-10T10:36:29Z</time>
      </trkpt>
      <trkpt lat="43.48197" lon="1.41528">
        <ele>163</ele>
        <time>2018-03-10T10:36:48Z</time>
      </trkpt>
      <trkpt lat="43.48199" lon="1.41529">
        <ele>163</ele>
        <time>2018-03-10T10:36:49Z</time>
      </trkpt>
      <trkpt lat="43.48201" lon="1.4153">
        <ele>163</ele>
        <time>2018-03-10T10:36:49Z</time>
      </trkpt>
      <trkpt lat="43.48204" lon="1.41531">
        <ele>163</ele>
        <time>2018-03-10T10:36:49Z</time>
      </trkpt>
      <trkpt lat="43.48207" lon="1.4153">
        <ele>163</ele>
        <time>2018-03-10T10:36:49Z</time>
      </trkpt>
      <trkpt lat="43.48212" lon="1.4153">
        <ele>172</ele>
        <time>2018-03-10T10:37:28Z</time>
      </trkpt>
      <trkpt lat="43.48213" lon="1.41529">
        <ele>172</ele>
        <time>2018-03-10T10:37:29Z</time>
      </trkpt>
      <trkpt lat="43.48215" lon="1.41528">
        <ele>172</ele>
        <time>2018-03-10T10:37:29Z</time>
      </trkpt>
      <trkpt lat="43.48215" lon="1.41528">
        <ele>172</ele>
        <time>2018-03-10T10:37:29Z</time>
      </trkpt>
      <trkpt lat="43.48217" lon="1.41528">
        <ele>172</ele>
        <time>2018-03-10T10:37:29Z</time>
      </trkpt>
      <trkpt lat="43.4822" lon="1.41531">
        <ele>172</ele>
        <time>2018-03-10T10:37:44Z</time>
      </trkpt>
      <trkpt lat="43.48223" lon="1.41535">
        <ele>172</ele>
        <time>2018-03-10T10:37:45Z</time>
      </trkpt>
      <trkpt lat="43.48226" lon="1.41538">
        <ele>172</ele>
        <time>2018-03-10T10:37:45Z</time>
      </trkpt>
      <trkpt lat="43.48228" lon="1.41543">
        <ele>179</ele>
        <time>2018-03-10T10:37:45Z</time>
      </trkpt>
      <trkpt lat="43.48231" lon="1.41547">
        <ele>179</ele>
        <time>2018-03-10T10:38:00Z</time>
      </trkpt>
      <trkpt lat="43.48232" lon="1.4155">
        <ele>179</ele>
        <time>2018-03-10T10:38:01Z</time>
      </trkpt>
      <trkpt lat="43.48234" lon="1.41554">
        <ele>179</ele>
        <time>2018-03-10T10:38:01Z</time>
      </trkpt>
      <trkpt lat="43.48237" lon="1.41558">
        <ele>179</ele>
        <time>2018-03-10T10:38:01Z</time>
      </trkpt>
      <trkpt lat="43.4824" lon="1.41567">
        <ele>179</ele>
        <time>2018-03-10T10:38:16Z</time>
      </trkpt>
      <trkpt lat="43.48243" lon="1.41573">
        <ele>179</ele>
        <time>2018-03-10T10:38:17Z</time>
      </trkpt>
      <trkpt lat="43.48246" lon="1.41579">
        <ele>179</ele>
        <time>2018-03-10T10:38:17Z</time>
      </trkpt>
      <trkpt lat="43.4825" lon="1.41583">
        <ele>179</ele>
        <time>2018-03-10T10:38:17Z</time>
      </trkpt>
      <trkpt lat="43.48253" lon="1.41588">
        <ele>179</ele>
        <time>2018-03-10T10:38:32Z</time>
      </trkpt>
      <trkpt lat="43.48257" lon="1.41591">
        <ele>179</ele>
        <time>2018-03-10T10:38:33Z</time>
      </trkpt>
      <trkpt lat="43.4826" lon="1.41594">
        <ele>179</ele>
        <time>2018-03-10T10:38:33Z</time>
      </trkpt>
      <trkpt lat="43.48264" lon="1.41597">
        <ele>179</ele>
        <time>2018-03-10T10:38:33Z</time>
      </trkpt>
      <trkpt lat="43.48267" lon="1.41601">
        <ele>179</ele>
        <time>2018-03-10T10:38:48Z</time>
      </trkpt>
      <trkpt lat="43.48269" lon="1.41605">
        <ele>179</ele>
        <time>2018-03-10T10:38:49Z</time>
      </trkpt>
      <trkpt lat="43.48272" lon="1.41606">
        <ele>179</ele>
        <time>2018-03-10T10:38:49Z</time>
      </trkpt>
      <trkpt lat="43.48274" lon="1.41612">
        <ele>179</ele>
        <time>2018-03-10T10:38:49Z</time>
      </trkpt>
      <trkpt lat="43.48276" lon="1.41617">
        <ele>179</ele>
        <time>2018-03-10T10:39:04Z</time>
      </trkpt>
      <trkpt lat="43.48278" lon="1.41621">
        <ele>179</ele>
        <time>2018-03-10T10:39:05Z</time>
      </trkpt>
      <trkpt lat="43.48279" lon="1.41624">
        <ele>179</ele>
        <time>2018-03-10T10:39:05Z</time>
      </trkpt>
      <trkpt lat="43.48283" lon="1.41627">
        <ele>178</ele>
        <time>2018-03-10T10:39:05Z</time>
      </trkpt>
      <trkpt lat="43.48286" lon="1.4163">
        <ele>178</ele>
        <time>2018-03-10T10:39:20Z</time>
      </trkpt>
      <trkpt lat="43.48288" lon="1.41631">
        <ele>178</ele>
        <time>2018-03-10T10:39:21Z</time>
      </trkpt>
      <trkpt lat="43.48291" lon="1.41635">
        <ele>178</ele>
        <time>2018-03-10T10:39:21Z</time>
      </trkpt>
      <trkpt lat="43.48294" lon="1.4164">
        <ele>185</ele>
        <time>2018-03-10T10:39:21Z</time>
      </trkpt>
      <trkpt lat="43.48297" lon="1.41646">
        <ele>185</ele>
        <time>2018-03-10T10:39:36Z</time>
      </trkpt>
      <trkpt lat="43.48299" lon="1.4165">
        <ele>185</ele>
        <time>2018-03-10T10:39:37Z</time>
      </trkpt>
      <trkpt lat="43.48301" lon="1.41658">
        <ele>185</ele>
        <time>2018-03-10T10:39:37Z</time>
      </trkpt>
      <trkpt lat="43.48302" lon="1.41661">
        <ele>185</ele>
        <time>2018-03-10T10:39:37Z</time>
      </trkpt>
      <trkpt lat="43.48304" lon="1.41666">
        <ele>185</ele>
        <time>2018-03-10T10:39:56Z</time>
      </trkpt>
      <trkpt lat="43.48305" lon="1.41671">
        <ele>185</ele>
        <time>2018-03-10T10:39:57Z</time>
      </trkpt>
      <trkpt lat="43.48306" lon="1.41672">
        <ele>185</ele>
        <time>2018-03-10T10:39:57Z</time>
      </trkpt>
      <trkpt lat="43.48309" lon="1.41676">
        <ele>185</ele>
        <time>2018-03-10T10:39:57Z</time>
      </trkpt>
      <trkpt lat="43.4831" lon="1.41681">
        <ele>185</ele>
        <time>2018-03-10T10:39:57Z</time>
      </trkpt>
      <trkpt lat="43.48313" lon="1.41686">
        <ele>185</ele>
        <time>2018-03-10T10:40:12Z</time>
      </trkpt>
      <trkpt lat="43.48315" lon="1.4169">
        <ele>185</ele>
        <time>2018-03-10T10:40:13Z</time>
      </trkpt>
      <trkpt lat="43.48317" lon="1.41693">
        <ele>185</ele>
        <time>2018-03-10T10:40:13Z</time>
      </trkpt>
      <trkpt lat="43.48318" lon="1.417">
        <ele>185</ele>
        <time>2018-03-10T10:40:13Z</time>
      </trkpt>
      <trkpt lat="43.48318" lon="1.41708">
        <ele>187</ele>
        <time>2018-03-10T10:40:28Z</time>
      </trkpt>
      <trkpt lat="43.48318" lon="1.41711">
        <ele>187</ele>
        <time>2018-03-10T10:40:29Z</time>
      </trkpt>
      <trkpt lat="43.48319" lon="1.41717">
        <ele>187</ele>
        <time>2018-03-10T10:40:29Z</time>
      </trkpt>
      <trkpt lat="43.4832" lon="1.41726">
        <ele>187</ele>
        <time>2018-03-10T10:40:29Z</time>
      </trkpt>
      <trkpt lat="43.48321" lon="1.41735">
        <ele>187</ele>
        <time>2018-03-10T10:40:44Z</time>
      </trkpt>
      <trkpt lat="43.48321" lon="1.41741">
        <ele>187</ele>
        <time>2018-03-10T10:40:45Z</time>
      </trkpt>
      <trkpt lat="43.48321" lon="1.41744">
        <ele>187</ele>
        <time>2018-03-10T10:40:45Z</time>
      </trkpt>
      <trkpt lat="43.4832" lon="1.41749">
        <ele>187</ele>
        <time>2018-03-10T10:40:45Z</time>
      </trkpt>
      <trkpt lat="43.4832" lon="1.4175">
        <ele>187</ele>
        <time>2018-03-10T10:41:00Z</time>
      </trkpt>
      <trkpt lat="43.4832" lon="1.41755">
        <ele>187</ele>
        <time>2018-03-10T10:41:01Z</time>
      </trkpt>
      <trkpt lat="43.48319" lon="1.41762">
        <ele>187</ele>
        <time>2018-03-10T10:41:01Z</time>
      </trkpt>
      <trkpt lat="43.48318" lon="1.4177">
        <ele>187</ele>
        <time>2018-03-10T10:41:01Z</time>
      </trkpt>
      <trkpt lat="43.48315" lon="1.41777">
        <ele>187</ele>
        <time>2018-03-10T10:41:16Z</time>
      </trkpt>
      <trkpt lat="43.48315" lon="1.41782">
        <ele>187</ele>
        <time>2018-03-10T10:41:17Z</time>
      </trkpt>
      <trkpt lat="43.48313" lon="1.41788">
        <ele>187</ele>
        <time>2018-03-10T10:41:17Z</time>
      </trkpt>
      <trkpt lat="43.48312" lon="1.41797">
        <ele>190</ele>
        <time>2018-03-10T10:41:17Z</time>
      </trkpt>
      <trkpt lat="43.48311" lon="1.41805">
        <ele>190</ele>
        <time>2018-03-10T10:41:32Z</time>
      </trkpt>
      <trkpt lat="43.4831" lon="1.41812">
        <ele>190</ele>
        <time>2018-03-10T10:41:33Z</time>
      </trkpt>
      <trkpt lat="43.48308" lon="1.41817">
        <ele>190</ele>
        <time>2018-03-10T10:41:33Z</time>
      </trkpt>
      <trkpt lat="43.48308" lon="1.4182">
        <ele>190</ele>
        <time>2018-03-10T10:41:33Z</time>
      </trkpt>
      <trkpt lat="43.48308" lon="1.41823">
        <ele>190</ele>
        <time>2018-03-10T10:41:48Z</time>
      </trkpt>
      <trkpt lat="43.48308" lon="1.41825">
        <ele>190</ele>
        <time>2018-03-10T10:41:49Z</time>
      </trkpt>
      <trkpt lat="43.48308" lon="1.41831">
        <ele>190</ele>
        <time>2018-03-10T10:41:49Z</time>
      </trkpt>
      <trkpt lat="43.48308" lon="1.41836">
        <ele>190</ele>
        <time>2018-03-10T10:41:49Z</time>
      </trkpt>
      <trkpt lat="43.48307" lon="1.41842">
        <ele>190</ele>
        <time>2018-03-10T10:42:04Z</time>
      </trkpt>
      <trkpt lat="43.48307" lon="1.41849">
        <ele>190</ele>
        <time>2018-03-10T10:42:05Z</time>
      </trkpt>
      <trkpt lat="43.48306" lon="1.41855">
        <ele>190</ele>
        <time>2018-03-10T10:42:05Z</time>
      </trkpt>
      <trkpt lat="43.48306" lon="1.41862">
        <ele>190</ele>
        <time>2018-03-10T10:42:05Z</time>
      </trkpt>
      <trkpt lat="43.48306" lon="1.41868">
        <ele>190</ele>
        <time>2018-03-10T10:42:20Z</time>
      </trkpt>
      <trkpt lat="43.48305" lon="1.41874">
        <ele>190</ele>
        <time>2018-03-10T10:42:21Z</time>
      </trkpt>
      <trkpt lat="43.48304" lon="1.41881">
        <ele>197</ele>
        <time>2018-03-10T10:42:21Z</time>
      </trkpt>
      <trkpt lat="43.48304" lon="1.41889">
        <ele>197</ele>
        <time>2018-03-10T10:42:21Z</time>
      </trkpt>
      <trkpt lat="43.48304" lon="1.41896">
        <ele>197</ele>
        <time>2018-03-10T10:42:36Z</time>
      </trkpt>
      <trkpt lat="43.48303" lon="1.41901">
        <ele>197</ele>
        <time>2018-03-10T10:42:37Z</time>
      </trkpt>
      <trkpt lat="43.48301" lon="1.41907">
        <ele>197</ele>
        <time>2018-03-10T10:42:37Z</time>
      </trkpt>
      <trkpt lat="43.483" lon="1.41913">
        <ele>197</ele>
        <time>2018-03-10T10:42:37Z</time>
      </trkpt>
      <trkpt lat="43.483" lon="1.41916">
        <ele>197</ele>
        <time>2018-03-10T10:42:56Z</time>
      </trkpt>
      <trkpt lat="43.483" lon="1.4192">
        <ele>197</ele>
        <time>2018-03-10T10:42:57Z</time>
      </trkpt>
      <trkpt lat="43.483" lon="1.41922">
        <ele>197</ele>
        <time>2018-03-10T10:42:57Z</time>
      </trkpt>
      <trkpt lat="43.48301" lon="1.41927">
        <ele>197</ele>
        <time>2018-03-10T10:42:57Z</time>
      </trkpt>
      <trkpt lat="43.483" lon="1.41935">
        <ele>197</ele>
        <time>2018-03-10T10:42:57Z</time>
      </trkpt>
      <trkpt lat="43.483" lon="1.41942">
        <ele>197</ele>
        <time>2018-03-10T10:43:12Z</time>
      </trkpt>
      <trkpt lat="43.483" lon="1.41948">
        <ele>197</ele>
        <time>2018-03-10T10:43:13Z</time>
      </trkpt>
      <trkpt lat="43.48301" lon="1.41954">
        <ele>197</ele>
        <time>2018-03-10T10:43:13Z</time>
      </trkpt>
      <trkpt lat="43.48301" lon="1.41959">
        <ele>200</ele>
        <time>2018-03-10T10:43:13Z</time>
      </trkpt>
      <trkpt lat="43.48303" lon="1.41966">
        <ele>200</ele>
        <time>2018-03-10T10:43:32Z</time>
      </trkpt>
      <trkpt lat="43.48304" lon="1.4197">
        <ele>200</ele>
        <time>2018-03-10T10:43:33Z</time>
      </trkpt>
      <trkpt lat="43.48304" lon="1.41972">
        <ele>200</ele>
        <time>2018-03-10T10:43:33Z</time>
      </trkpt>
      <trkpt lat="43.48304" lon="1.41974">
        <ele>200</ele>
        <time>2018-03-10T10:43:33Z</time>
      </trkpt>
      <trkpt lat="43.48306" lon="1.4198">
        <ele>200</ele>
        <time>2018-03-10T10:43:33Z</time>
      </trkpt>
      <trkpt lat="43.48307" lon="1.41989">
        <ele>200</ele>
        <time>2018-03-10T10:43:48Z</time>
      </trkpt>
      <trkpt lat="43.48309" lon="1.41998">
        <ele>200</ele>
        <time>2018-03-10T10:43:49Z</time>
      </trkpt>
      <trkpt lat="43.4831" lon="1.42006">
        <ele>200</ele>
        <time>2018-03-10T10:43:49Z</time>
      </trkpt>
      <trkpt lat="43.48311" lon="1.42013">
        <ele>200</ele>
        <time>2018-03-10T10:43:49Z</time>
      </trkpt>
      <trkpt lat="43.48313" lon="1.42029">
        <ele>200</ele>
        <time>2018-03-10T10:44:04Z</time>
      </trkpt>
      <trkpt lat="43.48314" lon="1.42035">
        <ele>200</ele>
        <time>2018-03-10T10:44:05Z</time>
      </trkpt>
      <trkpt lat="43.48315" lon="1.42043">
        <ele>204</ele>
        <time>2018-03-10T10:44:05Z</time>
      </trkpt>
      <trkpt lat="43.48316" lon="1.42049">
        <ele>204</ele>
        <time>2018-03-10T10:44:05Z</time>
      </trkpt>
      <trkpt lat="43.48317" lon="1.42058">
        <ele>204</ele>
        <time>2018-03-10T10:44:20Z</time>
      </trkpt>
      <trkpt lat="43.48318" lon="1.42063">
        <ele>204</ele>
        <time>2018-03-10T10:44:21Z</time>
      </trkpt>
      <trkpt lat="43.48319" lon="1.42069">
        <ele>204</ele>
        <time>2018-03-10T10:44:21Z</time>
      </trkpt>
      <trkpt lat="43.4832" lon="1.42071">
        <ele>204</ele>
        <time>2018-03-10T10:44:21Z</time>
      </trkpt>
      <trkpt lat="43.48323" lon="1.42075">
        <ele>204</ele>
        <time>2018-03-10T10:44:36Z</time>
      </trkpt>
      <trkpt lat="43.48325" lon="1.42078">
        <ele>204</ele>
        <time>2018-03-10T10:44:37Z</time>
      </trkpt>
      <trkpt lat="43.48328" lon="1.42085">
        <ele>204</ele>
        <time>2018-03-10T10:44:37Z</time>
      </trkpt>
      <trkpt lat="43.48331" lon="1.42091">
        <ele>204</ele>
        <time>2018-03-10T10:44:37Z</time>
      </trkpt>
      <trkpt lat="43.48334" lon="1.42097">
        <ele>204</ele>
        <time>2018-03-10T10:44:52Z</time>
      </trkpt>
      <trkpt lat="43.48338" lon="1.42104">
        <ele>204</ele>
        <time>2018-03-10T10:44:53Z</time>
      </trkpt>
      <trkpt lat="43.48342" lon="1.42111">
        <ele>204</ele>
        <time>2018-03-10T10:44:53Z</time>
      </trkpt>
      <trkpt lat="43.48347" lon="1.42116">
        <ele>204</ele>
        <time>2018-03-10T10:44:53Z</time>
      </trkpt>
      <trkpt lat="43.48351" lon="1.42122">
        <ele>204</ele>
        <time>2018-03-10T10:45:08Z</time>
      </trkpt>
      <trkpt lat="43.48355" lon="1.42125">
        <ele>205</ele>
        <time>2018-03-10T10:45:09Z</time>
      </trkpt>
      <trkpt lat="43.48359" lon="1.42127">
        <ele>205</ele>
        <time>2018-03-10T10:45:09Z</time>
      </trkpt>
      <trkpt lat="43.4836" lon="1.42127">
        <ele>205</ele>
        <time>2018-03-10T10:45:09Z</time>
      </trkpt>
      <trkpt lat="43.4836" lon="1.42125">
        <ele>204</ele>
        <time>2018-03-10T10:46:12Z</time>
      </trkpt>
      <trkpt lat="43.4836" lon="1.42124">
        <ele>204</ele>
        <time>2018-03-10T10:46:13Z</time>
      </trkpt>
      <trkpt lat="43.48363" lon="1.42125">
        <ele>205</ele>
        <time>2018-03-10T10:46:13Z</time>
      </trkpt>
      <trkpt lat="43.48367" lon="1.42127">
        <ele>205</ele>
        <time>2018-03-10T10:46:13Z</time>
      </trkpt>
      <trkpt lat="43.48371" lon="1.4213">
        <ele>205</ele>
        <time>2018-03-10T10:46:13Z</time>
      </trkpt>
      <trkpt lat="43.48374" lon="1.42133">
        <ele>205</ele>
        <time>2018-03-10T10:46:28Z</time>
      </trkpt>
      <trkpt lat="43.48379" lon="1.4214">
        <ele>213</ele>
        <time>2018-03-10T10:46:29Z</time>
      </trkpt>
      <trkpt lat="43.48382" lon="1.42146">
        <ele>213</ele>
        <time>2018-03-10T10:46:29Z</time>
      </trkpt>
      <trkpt lat="43.48386" lon="1.42149">
        <ele>213</ele>
        <time>2018-03-10T10:46:29Z</time>
      </trkpt>
      <trkpt lat="43.48389" lon="1.42153">
        <ele>213</ele>
        <time>2018-03-10T10:46:44Z</time>
      </trkpt>
      <trkpt lat="43.48392" lon="1.42158">
        <ele>213</ele>
        <time>2018-03-10T10:46:45Z</time>
      </trkpt>
      <trkpt lat="43.48396" lon="1.42163">
        <ele>213</ele>
        <time>2018-03-10T10:46:45Z</time>
      </trkpt>
      <trkpt lat="43.48399" lon="1.42167">
        <ele>213</ele>
        <time>2018-03-10T10:46:45Z</time>
      </trkpt>
      <trkpt lat="43.48401" lon="1.42171">
        <ele>213</ele>
        <time>2018-03-10T10:47:00Z</time>
      </trkpt>
      <trkpt lat="43.48405" lon="1.42175">
        <ele>213</ele>
        <time>2018-03-10T10:47:01Z</time>
      </trkpt>
      <trkpt lat="43.48409" lon="1.42179">
        <ele>213</ele>
        <time>2018-03-10T10:47:01Z</time>
      </trkpt>
      <trkpt lat="43.4841" lon="1.42183">
        <ele>213</ele>
        <time>2018-03-10T10:47:01Z</time>
      </trkpt>
      <trkpt lat="43.48415" lon="1.42199">
        <ele>213</ele>
        <time>2018-03-10T10:47:16Z</time>
      </trkpt>
      <trkpt lat="43.48417" lon="1.42207">
        <ele>213</ele>
        <time>2018-03-10T10:47:17Z</time>
      </trkpt>
      <trkpt lat="43.48417" lon="1.42213">
        <ele>214</ele>
        <time>2018-03-10T10:47:17Z</time>
      </trkpt>
      <trkpt lat="43.48417" lon="1.42217">
        <ele>214</ele>
        <time>2018-03-10T10:47:17Z</time>
      </trkpt>
      <trkpt lat="43.48416" lon="1.42221">
        <ele>214</ele>
        <time>2018-03-10T10:47:36Z</time>
      </trkpt>
      <trkpt lat="43.48417" lon="1.42226">
        <ele>214</ele>
        <time>2018-03-10T10:47:37Z</time>
      </trkpt>
      <trkpt lat="43.48418" lon="1.42228">
        <ele>214</ele>
        <time>2018-03-10T10:47:37Z</time>
      </trkpt>
      <trkpt lat="43.48418" lon="1.42231">
        <ele>214</ele>
        <time>2018-03-10T10:47:37Z</time>
      </trkpt>
      <trkpt lat="43.48418" lon="1.42237">
        <ele>214</ele>
        <time>2018-03-10T10:47:37Z</time>
      </trkpt>
      <trkpt lat="43.48418" lon="1.42244">
        <ele>214</ele>
        <time>2018-03-10T10:47:52Z</time>
      </trkpt>
      <trkpt lat="43.48417" lon="1.42248">
        <ele>214</ele>
        <time>2018-03-10T10:47:53Z</time>
      </trkpt>
      <trkpt lat="43.48416" lon="1.42252">
        <ele>214</ele>
        <time>2018-03-10T10:47:53Z</time>
      </trkpt>
      <trkpt lat="43.48418" lon="1.42258">
        <ele>214</ele>
        <time>2018-03-10T10:47:53Z</time>
      </trkpt>
      <trkpt lat="43.48419" lon="1.42261">
        <ele>214</ele>
        <time>2018-03-10T10:48:08Z</time>
      </trkpt>
      <trkpt lat="43.48419" lon="1.42267">
        <ele>214</ele>
        <time>2018-03-10T10:48:09Z</time>
      </trkpt>
      <trkpt lat="43.48419" lon="1.42271">
        <ele>214</ele>
        <time>2018-03-10T10:48:09Z</time>
      </trkpt>
      <trkpt lat="43.48418" lon="1.42276">
        <ele>214</ele>
        <time>2018-03-10T10:48:09Z</time>
      </trkpt>
      <trkpt lat="43.48416" lon="1.42281">
        <ele>214</ele>
        <time>2018-03-10T10:48:24Z</time>
      </trkpt>
      <trkpt lat="43.48415" lon="1.42287">
        <ele>214</ele>
        <time>2018-03-10T10:48:25Z</time>
      </trkpt>
      <trkpt lat="43.48415" lon="1.42296">
        <ele>220</ele>
        <time>2018-03-10T10:48:25Z</time>
      </trkpt>
      <trkpt lat="43.48415" lon="1.42301">
        <ele>220</ele>
        <time>2018-03-10T10:48:25Z</time>
      </trkpt>
      <trkpt lat="43.48414" lon="1.42306">
        <ele>220</ele>
        <time>2018-03-10T10:48:40Z</time>
      </trkpt>
      <trkpt lat="43.48411" lon="1.42312">
        <ele>220</ele>
        <time>2018-03-10T10:48:41Z</time>
      </trkpt>
      <trkpt lat="43.48409" lon="1.42317">
        <ele>220</ele>
        <time>2018-03-10T10:48:41Z</time>
      </trkpt>
      <trkpt lat="43.48408" lon="1.42321">
        <ele>220</ele>
        <time>2018-03-10T10:48:41Z</time>
      </trkpt>
      <trkpt lat="43.48405" lon="1.42328">
        <ele>220</ele>
        <time>2018-03-10T10:49:04Z</time>
      </trkpt>
      <trkpt lat="43.48404" lon="1.42331">
        <ele>220</ele>
        <time>2018-03-10T10:49:05Z</time>
      </trkpt>
      <trkpt lat="43.48403" lon="1.42334">
        <ele>220</ele>
        <time>2018-03-10T10:49:05Z</time>
      </trkpt>
      <trkpt lat="43.48403" lon="1.42337">
        <ele>220</ele>
        <time>2018-03-10T10:49:05Z</time>
      </trkpt>
      <trkpt lat="43.484" lon="1.42344">
        <ele>220</ele>
        <time>2018-03-10T10:49:05Z</time>
      </trkpt>
      <trkpt lat="43.48399" lon="1.4235">
        <ele>220</ele>
        <time>2018-03-10T10:49:20Z</time>
      </trkpt>
      <trkpt lat="43.48397" lon="1.42358">
        <ele>220</ele>
        <time>2018-03-10T10:49:21Z</time>
      </trkpt>
      <trkpt lat="43.48396" lon="1.42365">
        <ele>220</ele>
        <time>2018-03-10T10:49:21Z</time>
      </trkpt>
      <trkpt lat="43.48395" lon="1.42372">
        <ele>220</ele>
        <time>2018-03-10T10:49:21Z</time>
      </trkpt>
      <trkpt lat="43.48394" lon="1.4238">
        <ele>227</ele>
        <time>2018-03-10T10:49:36Z</time>
      </trkpt>
      <trkpt lat="43.48392" lon="1.42388">
        <ele>227</ele>
        <time>2018-03-10T10:49:37Z</time>
      </trkpt>
      <trkpt lat="43.48393" lon="1.42396">
        <ele>227</ele>
        <time>2018-03-10T10:49:37Z</time>
      </trkpt>
      <trkpt lat="43.48392" lon="1.42403">
        <ele>227</ele>
        <time>2018-03-10T10:49:37Z</time>
      </trkpt>
      <trkpt lat="43.48391" lon="1.4241">
        <ele>227</ele>
        <time>2018-03-10T10:49:52Z</time>
      </trkpt>
      <trkpt lat="43.4839" lon="1.42417">
        <ele>227</ele>
        <time>2018-03-10T10:49:53Z</time>
      </trkpt>
      <trkpt lat="43.48388" lon="1.42423">
        <ele>227</ele>
        <time>2018-03-10T10:49:53Z</time>
      </trkpt>
      <trkpt lat="43.48386" lon="1.4243">
        <ele>227</ele>
        <time>2018-03-10T10:49:53Z</time>
      </trkpt>
      <trkpt lat="43.48385" lon="1.42436">
        <ele>227</ele>
        <time>2018-03-10T10:50:08Z</time>
      </trkpt>
      <trkpt lat="43.48385" lon="1.42444">
        <ele>227</ele>
        <time>2018-03-10T10:50:09Z</time>
      </trkpt>
      <trkpt lat="43.48386" lon="1.4245">
        <ele>227</ele>
        <time>2018-03-10T10:50:09Z</time>
      </trkpt>
      <trkpt lat="43.48386" lon="1.42457">
        <ele>227</ele>
        <time>2018-03-10T10:50:09Z</time>
      </trkpt>
      <trkpt lat="43.48386" lon="1.42461">
        <ele>232</ele>
        <time>2018-03-10T10:50:28Z</time>
      </trkpt>
      <trkpt lat="43.48385" lon="1.42466">
        <ele>232</ele>
        <time>2018-03-10T10:50:29Z</time>
      </trkpt>
      <trkpt lat="43.48386" lon="1.4247">
        <ele>232</ele>
        <time>2018-03-10T10:50:29Z</time>
      </trkpt>
      <trkpt lat="43.48386" lon="1.42472">
        <ele>232</ele>
        <time>2018-03-10T10:50:29Z</time>
      </trkpt>
      <trkpt lat="43.48386" lon="1.42479">
        <ele>232</ele>
        <time>2018-03-10T10:50:29Z</time>
      </trkpt>
      <trkpt lat="43.48386" lon="1.42488">
        <ele>232</ele>
        <time>2018-03-10T10:50:44Z</time>
      </trkpt>
      <trkpt lat="43.48386" lon="1.42491">
        <ele>232</ele>
        <time>2018-03-10T10:50:45Z</time>
      </trkpt>
      <trkpt lat="43.48386" lon="1.42494">
        <ele>232</ele>
        <time>2018-03-10T10:50:45Z</time>
      </trkpt>
      <trkpt lat="43.48385" lon="1.42502">
        <ele>232</ele>
        <time>2018-03-10T10:50:45Z</time>
      </trkpt>
      <trkpt lat="43.48385" lon="1.42512">
        <ele>232</ele>
        <time>2018-03-10T10:51:00Z</time>
      </trkpt>
      <trkpt lat="43.48384" lon="1.42521">
        <ele>232</ele>
        <time>2018-03-10T10:51:01Z</time>
      </trkpt>
      <trkpt lat="43.48383" lon="1.4253">
        <ele>232</ele>
        <time>2018-03-10T10:51:01Z</time>
      </trkpt>
      <trkpt lat="43.48381" lon="1.42538">
        <ele>232</ele>
        <time>2018-03-10T10:51:01Z</time>
      </trkpt>
      <trkpt lat="43.48379" lon="1.42546">
        <ele>239</ele>
        <time>2018-03-10T10:51:16Z</time>
      </trkpt>
      <trkpt lat="43.48376" lon="1.42552">
        <ele>239</ele>
        <time>2018-03-10T10:51:17Z</time>
      </trkpt>
      <trkpt lat="43.48374" lon="1.42559">
        <ele>235</ele>
        <time>2018-03-10T10:51:17Z</time>
      </trkpt>
      <trkpt lat="43.48373" lon="1.42567">
        <ele>235</ele>
        <time>2018-03-10T10:51:17Z</time>
      </trkpt>
      <trkpt lat="43.48372" lon="1.42575">
        <ele>235</ele>
        <time>2018-03-10T10:51:32Z</time>
      </trkpt>
      <trkpt lat="43.4837" lon="1.42581">
        <ele>235</ele>
        <time>2018-03-10T10:51:33Z</time>
      </trkpt>
      <trkpt lat="43.48369" lon="1.42587">
        <ele>235</ele>
        <time>2018-03-10T10:51:33Z</time>
      </trkpt>
      <trkpt lat="43.48368" lon="1.42593">
        <ele>235</ele>
        <time>2018-03-10T10:51:33Z</time>
      </trkpt>
      <trkpt lat="43.48366" lon="1.426">
        <ele>235</ele>
        <time>2018-03-10T10:51:48Z</time>
      </trkpt>
      <trkpt lat="43.48364" lon="1.42605">
        <ele>235</ele>
        <time>2018-03-10T10:51:49Z</time>
      </trkpt>
      <trkpt lat="43.48363" lon="1.42611">
        <ele>235</ele>
        <time>2018-03-10T10:51:49Z</time>
      </trkpt>
      <trkpt lat="43.4836" lon="1.42618">
        <ele>235</ele>
        <time>2018-03-10T10:51:49Z</time>
      </trkpt>
      <trkpt lat="43.48359" lon="1.42624">
        <ele>235</ele>
        <time>2018-03-10T10:52:04Z</time>
      </trkpt>
      <trkpt lat="43.48358" lon="1.42631">
        <ele>237</ele>
        <time>2018-03-10T10:52:05Z</time>
      </trkpt>
      <trkpt lat="43.48358" lon="1.4264">
        <ele>237</ele>
        <time>2018-03-10T10:52:05Z</time>
      </trkpt>
      <trkpt lat="43.48357" lon="1.42646">
        <ele>237</ele>
        <time>2018-03-10T10:52:05Z</time>
      </trkpt>
      <trkpt lat="43.48356" lon="1.42653">
        <ele>237</ele>
        <time>2018-03-10T10:52:20Z</time>
      </trkpt>
      <trkpt lat="43.48354" lon="1.42659">
        <ele>237</ele>
        <time>2018-03-10T10:52:21Z</time>
      </trkpt>
      <trkpt lat="43.48352" lon="1.42665">
        <ele>237</ele>
        <time>2018-03-10T10:52:21Z</time>
      </trkpt>
      <trkpt lat="43.48351" lon="1.42671">
        <ele>237</ele>
        <time>2018-03-10T10:52:21Z</time>
      </trkpt>
      <trkpt lat="43.48349" lon="1.42678">
        <ele>237</ele>
        <time>2018-03-10T10:52:36Z</time>
      </trkpt>
      <trkpt lat="43.48348" lon="1.42685">
        <ele>237</ele>
        <time>2018-03-10T10:52:37Z</time>
      </trkpt>
      <trkpt lat="43.48346" lon="1.42692">
        <ele>237</ele>
        <time>2018-03-10T10:52:37Z</time>
      </trkpt>
      <trkpt lat="43.48344" lon="1.42698">
        <ele>237</ele>
        <time>2018-03-10T10:52:37Z</time>
      </trkpt>
      <trkpt lat="43.48342" lon="1.42706">
        <ele>237</ele>
        <time>2018-03-10T10:52:52Z</time>
      </trkpt>
      <trkpt lat="43.4834" lon="1.42712">
        <ele>241</ele>
        <time>2018-03-10T10:52:53Z</time>
      </trkpt>
      <trkpt lat="43.48339" lon="1.42719">
        <ele>241</ele>
        <time>2018-03-10T10:52:53Z</time>
      </trkpt>
      <trkpt lat="43.48337" lon="1.42725">
        <ele>241</ele>
        <time>2018-03-10T10:52:53Z</time>
      </trkpt>
      <trkpt lat="43.48335" lon="1.4273">
        <ele>241</ele>
        <time>2018-03-10T10:53:08Z</time>
      </trkpt>
      <trkpt lat="43.48333" lon="1.42736">
        <ele>241</ele>
        <time>2018-03-10T10:53:09Z</time>
      </trkpt>
      <trkpt lat="43.48331" lon="1.42743">
        <ele>241</ele>
        <time>2018-03-10T10:53:09Z</time>
      </trkpt>
      <trkpt lat="43.4833" lon="1.42749">
        <ele>241</ele>
        <time>2018-03-10T10:53:09Z</time>
      </trkpt>
      <trkpt lat="43.48328" lon="1.42754">
        <ele>241</ele>
        <time>2018-03-10T10:53:24Z</time>
      </trkpt>
      <trkpt lat="43.48325" lon="1.4276">
        <ele>241</ele>
        <time>2018-03-10T10:53:25Z</time>
      </trkpt>
      <trkpt lat="43.48325" lon="1.42765">
        <ele>241</ele>
        <time>2018-03-10T10:53:25Z</time>
      </trkpt>
      <trkpt lat="43.48324" lon="1.42773">
        <ele>241</ele>
        <time>2018-03-10T10:53:25Z</time>
      </trkpt>
      <trkpt lat="43.48321" lon="1.4278">
        <ele>241</ele>
        <time>2018-03-10T10:53:40Z</time>
      </trkpt>
      <trkpt lat="43.48318" lon="1.42786">
        <ele>241</ele>
        <time>2018-03-10T10:53:41Z</time>
      </trkpt>
      <trkpt lat="43.48315" lon="1.42793">
        <ele>248</ele>
        <time>2018-03-10T10:53:41Z</time>
      </trkpt>
      <trkpt lat="43.48313" lon="1.42797">
        <ele>248</ele>
        <time>2018-03-10T10:53:41Z</time>
      </trkpt>
      <trkpt lat="43.48311" lon="1.42804">
        <ele>248</ele>
        <time>2018-03-10T10:53:56Z</time>
      </trkpt>
      <trkpt lat="43.48309" lon="1.4281">
        <ele>248</ele>
        <time>2018-03-10T10:53:57Z</time>
      </trkpt>
      <trkpt lat="43.48306" lon="1.42816">
        <ele>248</ele>
        <time>2018-03-10T10:53:57Z</time>
      </trkpt>
      <trkpt lat="43.48303" lon="1.42823">
        <ele>248</ele>
        <time>2018-03-10T10:53:57Z</time>
      </trkpt>
      <trkpt lat="43.48301" lon="1.42831">
        <ele>248</ele>
        <time>2018-03-10T10:54:12Z</time>
      </trkpt>
      <trkpt lat="43.483" lon="1.42837">
        <ele>248</ele>
        <time>2018-03-10T10:54:13Z</time>
      </trkpt>
      <trkpt lat="43.48298" lon="1.42844">
        <ele>248</ele>
        <time>2018-03-10T10:54:13Z</time>
      </trkpt>
      <trkpt lat="43.48297" lon="1.4285">
        <ele>248</ele>
        <time>2018-03-10T10:54:13Z</time>
      </trkpt>
      <trkpt lat="43.48297" lon="1.42852">
        <ele>248</ele>
        <time>2018-03-10T10:54:28Z</time>
      </trkpt>
      <trkpt lat="43.48295" lon="1.42857">
        <ele>248</ele>
        <time>2018-03-10T10:54:29Z</time>
      </trkpt>
      <trkpt lat="43.48292" lon="1.42862">
        <ele>248</ele>
        <time>2018-03-10T10:54:29Z</time>
      </trkpt>
      <trkpt lat="43.48289" lon="1.42869">
        <ele>250</ele>
        <time>2018-03-10T10:54:29Z</time>
      </trkpt>
      <trkpt lat="43.48286" lon="1.42877">
        <ele>254</ele>
        <time>2018-03-10T10:54:44Z</time>
      </trkpt>
      <trkpt lat="43.48284" lon="1.42884">
        <ele>254</ele>
        <time>2018-03-10T10:54:45Z</time>
      </trkpt>
      <trkpt lat="43.48282" lon="1.42892">
        <ele>254</ele>
        <time>2018-03-10T10:54:45Z</time>
      </trkpt>
      <trkpt lat="43.4828" lon="1.42899">
        <ele>254</ele>
        <time>2018-03-10T10:54:45Z</time>
      </trkpt>
      <trkpt lat="43.48278" lon="1.42906">
        <ele>254</ele>
        <time>2018-03-10T10:55:00Z</time>
      </trkpt>
      <trkpt lat="43.48275" lon="1.42913">
        <ele>254</ele>
        <time>2018-03-10T10:55:01Z</time>
      </trkpt>
      <trkpt lat="43.48271" lon="1.42919">
        <ele>254</ele>
        <time>2018-03-10T10:55:01Z</time>
      </trkpt>
      <trkpt lat="43.48268" lon="1.42926">
        <ele>254</ele>
        <time>2018-03-10T10:55:01Z</time>
      </trkpt>
      <trkpt lat="43.48265" lon="1.42933">
        <ele>254</ele>
        <time>2018-03-10T10:55:16Z</time>
      </trkpt>
      <trkpt lat="43.48262" lon="1.42938">
        <ele>254</ele>
        <time>2018-03-10T10:55:17Z</time>
      </trkpt>
      <trkpt lat="43.4826" lon="1.42944">
        <ele>254</ele>
        <time>2018-03-10T10:55:17Z</time>
      </trkpt>
      <trkpt lat="43.48258" lon="1.4295">
        <ele>254</ele>
        <time>2018-03-10T10:55:17Z</time>
      </trkpt>
      <trkpt lat="43.48254" lon="1.42956">
        <ele>254</ele>
        <time>2018-03-10T10:55:32Z</time>
      </trkpt>
      <trkpt lat="43.4825" lon="1.42961">
        <ele>260</ele>
        <time>2018-03-10T10:55:33Z</time>
      </trkpt>
      <trkpt lat="43.48247" lon="1.42966">
        <ele>260</ele>
        <time>2018-03-10T10:55:33Z</time>
      </trkpt>
      <trkpt lat="43.48243" lon="1.42971">
        <ele>260</ele>
        <time>2018-03-10T10:55:33Z</time>
      </trkpt>
      <trkpt lat="43.4824" lon="1.42976">
        <ele>260</ele>
        <time>2018-03-10T10:55:48Z</time>
      </trkpt>
      <trkpt lat="43.48239" lon="1.4298">
        <ele>260</ele>
        <time>2018-03-10T10:55:49Z</time>
      </trkpt>
      <trkpt lat="43.48237" lon="1.42986">
        <ele>260</ele>
        <time>2018-03-10T10:55:49Z</time>
      </trkpt>
      <trkpt lat="43.48234" lon="1.42991">
        <ele>260</ele>
        <time>2018-03-10T10:55:49Z</time>
      </trkpt>
      <trkpt lat="43.4823" lon="1.42997">
        <ele>260</ele>
        <time>2018-03-10T10:56:04Z</time>
      </trkpt>
      <trkpt lat="43.48228" lon="1.43003">
        <ele>260</ele>
        <time>2018-03-10T10:56:05Z</time>
      </trkpt>
      <trkpt lat="43.48225" lon="1.4301">
        <ele>260</ele>
        <time>2018-03-10T10:56:05Z</time>
      </trkpt>
      <trkpt lat="43.48221" lon="1.43015">
        <ele>260</ele>
        <time>2018-03-10T10:56:05Z</time>
      </trkpt>
      <trkpt lat="43.48218" lon="1.43022">
        <ele>260</ele>
        <time>2018-03-10T10:56:20Z</time>
      </trkpt>
      <trkpt lat="43.48217" lon="1.43028">
        <ele>260</ele>
        <time>2018-03-10T10:56:21Z</time>
      </trkpt>
      <trkpt lat="43.48216" lon="1.43032">
        <ele>260</ele>
        <time>2018-03-10T10:56:21Z</time>
      </trkpt>
      <trkpt lat="43.48213" lon="1.43038">
        <ele>260</ele>
        <time>2018-03-10T10:56:21Z</time>
      </trkpt>
      <trkpt lat="43.48211" lon="1.43043">
        <ele>269</ele>
        <time>2018-03-10T10:56:36Z</time>
      </trkpt>
      <trkpt lat="43.48208" lon="1.4305">
        <ele>265</ele>
        <time>2018-03-10T10:56:37Z</time>
      </trkpt>
      <trkpt lat="43.48205" lon="1.43056">
        <ele>265</ele>
        <time>2018-03-10T10:56:37Z</time>
      </trkpt>
      <trkpt lat="43.48203" lon="1.4306">
        <ele>265</ele>
        <time>2018-03-10T10:56:37Z</time>
      </trkpt>
      <trkpt lat="43.482" lon="1.43064">
        <ele>265</ele>
        <time>2018-03-10T10:56:52Z</time>
      </trkpt>
      <trkpt lat="43.48197" lon="1.4307">
        <ele>265</ele>
        <time>2018-03-10T10:56:53Z</time>
      </trkpt>
      <trkpt lat="43.48195" lon="1.43076">
        <ele>265</ele>
        <time>2018-03-10T10:56:53Z</time>
      </trkpt>
      <trkpt lat="43.48193" lon="1.43082">
        <ele>265</ele>
        <time>2018-03-10T10:56:53Z</time>
      </trkpt>
      <trkpt lat="43.4819" lon="1.43092">
        <ele>265</ele>
        <time>2018-03-10T11:02:20Z</time>
      </trkpt>
      <trkpt lat="43.4819" lon="1.43092">
        <ele>265</ele>
        <time>2018-03-10T11:02:21Z</time>
      </trkpt>
      <trkpt lat="43.4819" lon="1.43093">
        <ele>265</ele>
        <time>2018-03-10T11:02:21Z</time>
      </trkpt>
      <trkpt lat="43.48189" lon="1.43096">
        <ele>265</ele>
        <time>2018-03-10T11:02:21Z</time>
      </trkpt>
      <trkpt lat="43.48186" lon="1.43103">
        <ele>265</ele>
        <time>2018-03-10T11:02:21Z</time>
      </trkpt>
      <trkpt lat="43.48182" lon="1.43111">
        <ele>265</ele>
        <time>2018-03-10T11:02:36Z</time>
      </trkpt>
      <trkpt lat="43.48179" lon="1.43117">
        <ele>265</ele>
        <time>2018-03-10T11:02:37Z</time>
      </trkpt>
      <trkpt lat="43.48177" lon="1.43123">
        <ele>265</ele>
        <time>2018-03-10T11:02:37Z</time>
      </trkpt>
      <trkpt lat="43.48176" lon="1.43125">
        <ele>272</ele>
        <time>2018-03-10T11:02:37Z</time>
      </trkpt>
      <trkpt lat="43.48175" lon="1.43127">
        <ele>272</ele>
        <time>2018-03-10T11:02:52Z</time>
      </trkpt>
      <trkpt lat="43.48174" lon="1.43131">
        <ele>272</ele>
        <time>2018-03-10T11:02:53Z</time>
      </trkpt>
      <trkpt lat="43.48173" lon="1.43137">
        <ele>272</ele>
        <time>2018-03-10T11:02:53Z</time>
      </trkpt>
      <trkpt lat="43.4817" lon="1.43143">
        <ele>272</ele>
        <time>2018-03-10T11:02:53Z</time>
      </trkpt>
      <trkpt lat="43.48169" lon="1.43149">
        <ele>272</ele>
        <time>2018-03-10T11:03:08Z</time>
      </trkpt>
      <trkpt lat="43.48167" lon="1.43154">
        <ele>272</ele>
        <time>2018-03-10T11:03:09Z</time>
      </trkpt>
      <trkpt lat="43.48165" lon="1.43159">
        <ele>272</ele>
        <time>2018-03-10T11:03:09Z</time>
      </trkpt>
      <trkpt lat="43.48163" lon="1.43163">
        <ele>272</ele>
        <time>2018-03-10T11:03:09Z</time>
      </trkpt>
      <trkpt lat="43.48161" lon="1.43168">
        <ele>272</ele>
        <time>2018-03-10T11:03:24Z</time>
      </trkpt>
      <trkpt lat="43.48158" lon="1.43173">
        <ele>272</ele>
        <time>2018-03-10T11:03:25Z</time>
      </trkpt>
      <trkpt lat="43.48156" lon="1.43178">
        <ele>272</ele>
        <time>2018-03-10T11:03:25Z</time>
      </trkpt>
      <trkpt lat="43.48154" lon="1.43182">
        <ele>272</ele>
        <time>2018-03-10T11:03:25Z</time>
      </trkpt>
      <trkpt lat="43.48152" lon="1.43188">
        <ele>272</ele>
        <time>2018-03-10T11:04:20Z</time>
      </trkpt>
      <trkpt lat="43.48152" lon="1.4319">
        <ele>272</ele>
        <time>2018-03-10T11:04:21Z</time>
      </trkpt>
      <trkpt lat="43.48151" lon="1.43192">
        <ele>272</ele>
        <time>2018-03-10T11:04:21Z</time>
      </trkpt>
      <trkpt lat="43.48149" lon="1.43195">
        <ele>272</ele>
        <time>2018-03-10T11:04:21Z</time>
      </trkpt>
      <trkpt lat="43.48148" lon="1.43197">
        <ele>272</ele>
        <time>2018-03-10T11:04:21Z</time>
      </trkpt>
      <trkpt lat="43.48147" lon="1.432">
        <ele>272</ele>
        <time>2018-03-10T11:04:40Z</time>
      </trkpt>
      <trkpt lat="43.48146" lon="1.43204">
        <ele>272</ele>
        <time>2018-03-10T11:04:41Z</time>
      </trkpt>
      <trkpt lat="43.48145" lon="1.43207">
        <ele>272</ele>
        <time>2018-03-10T11:04:41Z</time>
      </trkpt>
      <trkpt lat="43.48144" lon="1.43209">
        <ele>274</ele>
        <time>2018-03-10T11:04:41Z</time>
      </trkpt>
      <trkpt lat="43.48143" lon="1.43213">
        <ele>274</ele>
        <time>2018-03-10T11:04:41Z</time>
      </trkpt>
      <trkpt lat="43.48142" lon="1.43219">
        <ele>274</ele>
        <time>2018-03-10T11:05:04Z</time>
      </trkpt>
      <trkpt lat="43.48142" lon="1.43222">
        <ele>274</ele>
        <time>2018-03-10T11:05:05Z</time>
      </trkpt>
      <trkpt lat="43.48142" lon="1.43224">
        <ele>274</ele>
        <time>2018-03-10T11:05:05Z</time>
      </trkpt>
      <trkpt lat="43.48142" lon="1.43227">
        <ele>274</ele>
        <time>2018-03-10T11:05:05Z</time>
      </trkpt>
      <trkpt lat="43.48143" lon="1.43231">
        <ele>274</ele>
        <time>2018-03-10T11:05:05Z</time>
      </trkpt>
      <trkpt lat="43.48142" lon="1.43232">
        <ele>274</ele>
        <time>2018-03-10T11:05:20Z</time>
      </trkpt>
      <trkpt lat="43.48142" lon="1.43237">
        <ele>274</ele>
        <time>2018-03-10T11:05:21Z</time>
      </trkpt>
      <trkpt lat="43.48143" lon="1.43244">
        <ele>274</ele>
        <time>2018-03-10T11:05:21Z</time>
      </trkpt>
      <trkpt lat="43.48143" lon="1.43248">
        <ele>274</ele>
        <time>2018-03-10T11:05:21Z</time>
      </trkpt>
      <trkpt lat="43.48143" lon="1.43254">
        <ele>274</ele>
        <time>2018-03-10T11:05:36Z</time>
      </trkpt>
      <trkpt lat="43.48142" lon="1.43264">
        <ele>274</ele>
        <time>2018-03-10T11:05:37Z</time>
      </trkpt>
      <trkpt lat="43.48141" lon="1.43272">
        <ele>274</ele>
        <time>2018-03-10T11:05:37Z</time>
      </trkpt>
      <trkpt lat="43.48139" lon="1.43278">
        <ele>274</ele>
        <time>2018-03-10T11:05:37Z</time>
      </trkpt>
      <trkpt lat="43.48138" lon="1.43284">
        <ele>274</ele>
        <time>2018-03-10T11:05:52Z</time>
      </trkpt>
      <trkpt lat="43.48136" lon="1.43289">
        <ele>274</ele>
        <time>2018-03-10T11:05:53Z</time>
      </trkpt>
      <trkpt lat="43.48134" lon="1.43293">
        <ele>270</ele>
        <time>2018-03-10T11:05:53Z</time>
      </trkpt>
      <trkpt lat="43.48132" lon="1.43297">
        <ele>270</ele>
        <time>2018-03-10T11:05:53Z</time>
      </trkpt>
      <trkpt lat="43.4813" lon="1.43302">
        <ele>270</ele>
        <time>2018-03-10T11:06:08Z</time>
      </trkpt>
      <trkpt lat="43.48128" lon="1.43307">
        <ele>270</ele>
        <time>2018-03-10T11:06:09Z</time>
      </trkpt>
      <trkpt lat="43.48126" lon="1.43313">
        <ele>270</ele>
        <time>2018-03-10T11:06:09Z</time>
      </trkpt>
      <trkpt lat="43.48125" lon="1.43318">
        <ele>270</ele>
        <time>2018-03-10T11:06:09Z</time>
      </trkpt>
      <trkpt lat="43.48124" lon="1.43324">
        <ele>269</ele>
        <time>2018-03-10T11:06:24Z</time>
      </trkpt>
      <trkpt lat="43.48121" lon="1.4333">
        <ele>269</ele>
        <time>2018-03-10T11:06:25Z</time>
      </trkpt>
      <trkpt lat="43.48117" lon="1.43335">
        <ele>269</ele>
        <time>2018-03-10T11:06:25Z</time>
      </trkpt>
      <trkpt lat="43.48114" lon="1.43342">
        <ele>269</ele>
        <time>2018-03-10T11:06:25Z</time>
      </trkpt>
      <trkpt lat="43.48111" lon="1.43348">
        <ele>269</ele>
        <time>2018-03-10T11:06:40Z</time>
      </trkpt>
      <trkpt lat="43.4811" lon="1.43353">
        <ele>269</ele>
        <time>2018-03-10T11:06:41Z</time>
      </trkpt>
      <trkpt lat="43.48108" lon="1.43358">
        <ele>269</ele>
        <time>2018-03-10T11:06:41Z</time>
      </trkpt>
      <trkpt lat="43.48107" lon="1.43362">
        <ele>269</ele>
        <time>2018-03-10T11:06:41Z</time>
      </trkpt>
      <trkpt lat="43.48106" lon="1.43367">
        <ele>269</ele>
        <time>2018-03-10T11:06:56Z</time>
      </trkpt>
      <trkpt lat="43.48105" lon="1.4337">
        <ele>269</ele>
        <time>2018-03-10T11:06:57Z</time>
      </trkpt>
      <trkpt lat="43.48103" lon="1.43375">
        <ele>269</ele>
        <time>2018-03-10T11:06:57Z</time>
      </trkpt>
      <trkpt lat="43.48101" lon="1.43379">
        <ele>265</ele>
        <time>2018-03-10T11:06:57Z</time>
      </trkpt>
      <trkpt lat="43.481" lon="1.43384">
        <ele>265</ele>
        <time>2018-03-10T11:07:13Z</time>
      </trkpt>
      <trkpt lat="43.48098" lon="1.43389">
        <ele>265</ele>
        <time>2018-03-10T11:07:13Z</time>
      </trkpt>
      <trkpt lat="43.48096" lon="1.43394">
        <ele>265</ele>
        <time>2018-03-10T11:07:13Z</time>
      </trkpt>
      <trkpt lat="43.48093" lon="1.43401">
        <ele>265</ele>
        <time>2018-03-10T11:07:13Z</time>
      </trkpt>
      <trkpt lat="43.48091" lon="1.43405">
        <ele>265</ele>
        <time>2018-03-10T11:07:28Z</time>
      </trkpt>
      <trkpt lat="43.48091" lon="1.43408">
        <ele>265</ele>
        <time>2018-03-10T11:07:29Z</time>
      </trkpt>
      <trkpt lat="43.48089" lon="1.43413">
        <ele>265</ele>
        <time>2018-03-10T11:07:29Z</time>
      </trkpt>
      <trkpt lat="43.48086" lon="1.4342">
        <ele>265</ele>
        <time>2018-03-10T11:07:29Z</time>
      </trkpt>
      <trkpt lat="43.4808" lon="1.4343">
        <ele>265</ele>
        <time>2018-03-10T11:07:52Z</time>
      </trkpt>
      <trkpt lat="43.48078" lon="1.43431">
        <ele>265</ele>
        <time>2018-03-10T11:07:53Z</time>
      </trkpt>
      <trkpt lat="43.48077" lon="1.4343">
        <ele>265</ele>
        <time>2018-03-10T11:07:53Z</time>
      </trkpt>
      <trkpt lat="43.48075" lon="1.43431">
        <ele>265</ele>
        <time>2018-03-10T11:07:53Z</time>
      </trkpt>
      <trkpt lat="43.48072" lon="1.43431">
        <ele>265</ele>
        <time>2018-03-10T11:07:53Z</time>
      </trkpt>
      <trkpt lat="43.4807" lon="1.4343">
        <ele>265</ele>
        <time>2018-03-10T11:08:12Z</time>
      </trkpt>
      <trkpt lat="43.48068" lon="1.43431">
        <ele>265</ele>
        <time>2018-03-10T11:08:13Z</time>
      </trkpt>
      <trkpt lat="43.48066" lon="1.43432">
        <ele>265</ele>
        <time>2018-03-10T11:08:13Z</time>
      </trkpt>
      <trkpt lat="43.48063" lon="1.43431">
        <ele>265</ele>
        <time>2018-03-10T11:08:13Z</time>
      </trkpt>
      <trkpt lat="43.4806" lon="1.43429">
        <ele>265</ele>
        <time>2018-03-10T11:08:13Z</time>
      </trkpt>
      <trkpt lat="43.48058" lon="1.43426">
        <ele>265</ele>
        <time>2018-03-10T11:08:28Z</time>
      </trkpt>
      <trkpt lat="43.48055" lon="1.43423">
        <ele>265</ele>
        <time>2018-03-10T11:08:29Z</time>
      </trkpt>
      <trkpt lat="43.48052" lon="1.43421">
        <ele>265</ele>
        <time>2018-03-10T11:08:29Z</time>
      </trkpt>
      <trkpt lat="43.48048" lon="1.43416">
        <ele>265</ele>
        <time>2018-03-10T11:08:29Z</time>
      </trkpt>
      <trkpt lat="43.48045" lon="1.4341">
        <ele>265</ele>
        <time>2018-03-10T11:08:44Z</time>
      </trkpt>
      <trkpt lat="43.48041" lon="1.43406">
        <ele>251</ele>
        <time>2018-03-10T11:08:45Z</time>
      </trkpt>
      <trkpt lat="43.48038" lon="1.43403">
        <ele>251</ele>
        <time>2018-03-10T11:08:45Z</time>
      </trkpt>
      <trkpt lat="43.48034" lon="1.43399">
        <ele>251</ele>
        <time>2018-03-10T11:08:45Z</time>
      </trkpt>
      <trkpt lat="43.48031" lon="1.43394">
        <ele>251</ele>
        <time>2018-03-10T11:09:00Z</time>
      </trkpt>
      <trkpt lat="43.48028" lon="1.43393">
        <ele>251</ele>
        <time>2018-03-10T11:09:01Z</time>
      </trkpt>
      <trkpt lat="43.48024" lon="1.43393">
        <ele>251</ele>
        <time>2018-03-10T11:09:01Z</time>
      </trkpt>
      <trkpt lat="43.4802" lon="1.43391">
        <ele>251</ele>
        <time>2018-03-10T11:09:01Z</time>
      </trkpt>
      <trkpt lat="43.48016" lon="1.43385">
        <ele>251</ele>
        <time>2018-03-10T11:09:16Z</time>
      </trkpt>
      <trkpt lat="43.48012" lon="1.4338">
        <ele>251</ele>
        <time>2018-03-10T11:09:17Z</time>
      </trkpt>
      <trkpt lat="43.48008" lon="1.43378">
        <ele>251</ele>
        <time>2018-03-10T11:09:17Z</time>
      </trkpt>
      <trkpt lat="43.48004" lon="1.43374">
        <ele>256</ele>
        <time>2018-03-10T11:09:17Z</time>
      </trkpt>
      <trkpt lat="43.48" lon="1.43372">
        <ele>256</ele>
        <time>2018-03-10T11:09:32Z</time>
      </trkpt>
      <trkpt lat="43.47996" lon="1.43369">
        <ele>256</ele>
        <time>2018-03-10T11:09:33Z</time>
      </trkpt>
      <trkpt lat="43.47992" lon="1.43368">
        <ele>256</ele>
        <time>2018-03-10T11:09:33Z</time>
      </trkpt>
      <trkpt lat="43.47989" lon="1.43368">
        <ele>256</ele>
        <time>2018-03-10T11:09:33Z</time>
      </trkpt>
      <trkpt lat="43.47988" lon="1.43365">
        <ele>256</ele>
        <time>2018-03-10T11:09:48Z</time>
      </trkpt>
      <trkpt lat="43.47987" lon="1.43366">
        <ele>256</ele>
        <time>2018-03-10T11:09:49Z</time>
      </trkpt>
      <trkpt lat="43.47983" lon="1.43368">
        <ele>256</ele>
        <time>2018-03-10T11:09:49Z</time>
      </trkpt>
      <trkpt lat="43.47979" lon="1.43368">
        <ele>256</ele>
        <time>2018-03-10T11:09:49Z</time>
      </trkpt>
      <trkpt lat="43.47975" lon="1.43368">
        <ele>256</ele>
        <time>2018-03-10T11:10:04Z</time>
      </trkpt>
      <trkpt lat="43.47972" lon="1.43368">
        <ele>256</ele>
        <time>2018-03-10T11:10:05Z</time>
      </trkpt>
      <trkpt lat="43.47968" lon="1.43368">
        <ele>256</ele>
        <time>2018-03-10T11:10:05Z</time>
      </trkpt>
      <trkpt lat="43.47963" lon="1.43367">
        <ele>256</ele>
        <time>2018-03-10T11:10:05Z</time>
      </trkpt>
      <trkpt lat="43.47959" lon="1.43364">
        <ele>256</ele>
        <time>2018-03-10T11:10:24Z</time>
      </trkpt>
      <trkpt lat="43.47956" lon="1.43364">
        <ele>240</ele>
        <time>2018-03-10T11:10:25Z</time>
      </trkpt>
      <trkpt lat="43.47954" lon="1.43363">
        <ele>240</ele>
        <time>2018-03-10T11:10:25Z</time>
      </trkpt>
      <trkpt lat="43.47952" lon="1.43362">
        <ele>240</ele>
        <time>2018-03-10T11:10:25Z</time>
      </trkpt>
      <trkpt lat="43.47949" lon="1.43362">
        <ele>240</ele>
        <time>2018-03-10T11:10:25Z</time>
      </trkpt>
      <trkpt lat="43.47944" lon="1.43363">
        <ele>240</ele>
        <time>2018-03-10T11:10:40Z</time>
      </trkpt>
      <trkpt lat="43.47939" lon="1.43362">
        <ele>240</ele>
        <time>2018-03-10T11:10:41Z</time>
      </trkpt>
      <trkpt lat="43.47937" lon="1.43363">
        <ele>240</ele>
        <time>2018-03-10T11:10:41Z</time>
      </trkpt>
      <trkpt lat="43.47934" lon="1.43361">
        <ele>240</ele>
        <time>2018-03-10T11:10:41Z</time>
      </trkpt>
      <trkpt lat="43.4793" lon="1.43357">
        <ele>240</ele>
        <time>2018-03-10T11:11:04Z</time>
      </trkpt>
      <trkpt lat="43.47928" lon="1.43356">
        <ele>240</ele>
        <time>2018-03-10T11:11:05Z</time>
      </trkpt>
      <trkpt lat="43.47925" lon="1.43358">
        <ele>240</ele>
        <time>2018-03-10T11:11:05Z</time>
      </trkpt>
      <trkpt lat="43.47922" lon="1.43359">
        <ele>240</ele>
        <time>2018-03-10T11:11:05Z</time>
      </trkpt>
      <trkpt lat="43.47918" lon="1.4336">
        <ele>240</ele>
        <time>2018-03-10T11:11:05Z</time>
      </trkpt>
      <trkpt lat="43.47912" lon="1.43362">
        <ele>240</ele>
        <time>2018-03-10T11:11:20Z</time>
      </trkpt>
      <trkpt lat="43.47908" lon="1.43363">
        <ele>240</ele>
        <time>2018-03-10T11:11:21Z</time>
      </trkpt>
      <trkpt lat="43.47904" lon="1.43361">
        <ele>240</ele>
        <time>2018-03-10T11:11:21Z</time>
      </trkpt>
      <trkpt lat="43.47902" lon="1.43362">
        <ele>240</ele>
        <time>2018-03-10T11:11:21Z</time>
      </trkpt>
      <trkpt lat="43.47899" lon="1.43362">
        <ele>240</ele>
        <time>2018-03-10T11:11:36Z</time>
      </trkpt>
      <trkpt lat="43.47897" lon="1.43361">
        <ele>240</ele>
        <time>2018-03-10T11:11:37Z</time>
      </trkpt>
      <trkpt lat="43.47893" lon="1.43361">
        <ele>240</ele>
        <time>2018-03-10T11:11:37Z</time>
      </trkpt>
      <trkpt lat="43.47889" lon="1.43361">
        <ele>240</ele>
        <time>2018-03-10T11:11:37Z</time>
      </trkpt>
      <trkpt lat="43.47885" lon="1.4336">
        <ele>240</ele>
        <time>2018-03-10T11:11:52Z</time>
      </trkpt>
      <trkpt lat="43.47879" lon="1.43358">
        <ele>240</ele>
        <time>2018-03-10T11:11:53Z</time>
      </trkpt>
      <trkpt lat="43.47876" lon="1.43357">
        <ele>240</ele>
        <time>2018-03-10T11:11:53Z</time>
      </trkpt>
      <trkpt lat="43.47874" lon="1.43355">
        <ele>224</ele>
        <time>2018-03-10T11:11:53Z</time>
      </trkpt>
      <trkpt lat="43.47872" lon="1.43353">
        <ele>224</ele>
        <time>2018-03-10T11:12:08Z</time>
      </trkpt>
      <trkpt lat="43.4787" lon="1.43354">
        <ele>224</ele>
        <time>2018-03-10T11:12:09Z</time>
      </trkpt>
      <trkpt lat="43.47865" lon="1.43353">
        <ele>224</ele>
        <time>2018-03-10T11:12:09Z</time>
      </trkpt>
      <trkpt lat="43.47861" lon="1.4335">
        <ele>224</ele>
        <time>2018-03-10T11:12:09Z</time>
      </trkpt>
      <trkpt lat="43.47855" lon="1.43346">
        <ele>224</ele>
        <time>2018-03-10T11:12:24Z</time>
      </trkpt>
      <trkpt lat="43.47851" lon="1.43342">
        <ele>224</ele>
        <time>2018-03-10T11:12:25Z</time>
      </trkpt>
      <trkpt lat="43.47844" lon="1.43342">
        <ele>224</ele>
        <time>2018-03-10T11:12:25Z</time>
      </trkpt>
      <trkpt lat="43.47837" lon="1.4334">
        <ele>224</ele>
        <time>2018-03-10T11:12:25Z</time>
      </trkpt>
      <trkpt lat="43.47831" lon="1.43338">
        <ele>224</ele>
        <time>2018-03-10T11:12:40Z</time>
      </trkpt>
      <trkpt lat="43.47825" lon="1.43332">
        <ele>224</ele>
        <time>2018-03-10T11:12:41Z</time>
      </trkpt>
      <trkpt lat="43.47822" lon="1.43329">
        <ele>224</ele>
        <time>2018-03-10T11:12:41Z</time>
      </trkpt>
      <trkpt lat="43.4782" lon="1.43327">
        <ele>224</ele>
        <time>2018-03-10T11:12:41Z</time>
      </trkpt>
      <trkpt lat="43.47816" lon="1.43324">
        <ele>224</ele>
        <time>2018-03-10T11:13:00Z</time>
      </trkpt>
      <trkpt lat="43.47812" lon="1.43322">
        <ele>224</ele>
        <time>2018-03-10T11:13:01Z</time>
      </trkpt>
      <trkpt lat="43.47811" lon="1.43321">
        <ele>224</ele>
        <time>2018-03-10T11:13:01Z</time>
      </trkpt>
      <trkpt lat="43.4781" lon="1.43322">
        <ele>224</ele>
        <time>2018-03-10T11:13:01Z</time>
      </trkpt>
      <trkpt lat="43.47806" lon="1.43325">
        <ele>224</ele>
        <time>2018-03-10T11:13:01Z</time>
      </trkpt>
      <trkpt lat="43.478" lon="1.43327">
        <ele>224</ele>
        <time>2018-03-10T11:13:16Z</time>
      </trkpt>
      <trkpt lat="43.47795" lon="1.43325">
        <ele>224</ele>
        <time>2018-03-10T11:13:17Z</time>
      </trkpt>
      <trkpt lat="43.47789" lon="1.43326">
        <ele>216</ele>
        <time>2018-03-10T11:13:17Z</time>
      </trkpt>
      <trkpt lat="43.47785" lon="1.43328">
        <ele>216</ele>
        <time>2018-03-10T11:13:17Z</time>
      </trkpt>
      <trkpt lat="43.47779" lon="1.43326">
        <ele>216</ele>
        <time>2018-03-10T11:13:32Z</time>
      </trkpt>
      <trkpt lat="43.47773" lon="1.43322">
        <ele>216</ele>
        <time>2018-03-10T11:13:33Z</time>
      </trkpt>
      <trkpt lat="43.47767" lon="1.43318">
        <ele>216</ele>
        <time>2018-03-10T11:13:33Z</time>
      </trkpt>
      <trkpt lat="43.47762" lon="1.43312">
        <ele>216</ele>
        <time>2018-03-10T11:13:33Z</time>
      </trkpt>
      <trkpt lat="43.47758" lon="1.4331">
        <ele>216</ele>
        <time>2018-03-10T11:13:52Z</time>
      </trkpt>
      <trkpt lat="43.47755" lon="1.43308">
        <ele>216</ele>
        <time>2018-03-10T11:13:53Z</time>
      </trkpt>
      <trkpt lat="43.47753" lon="1.43307">
        <ele>216</ele>
        <time>2018-03-10T11:13:53Z</time>
      </trkpt>
      <trkpt lat="43.47751" lon="1.43306">
        <ele>216</ele>
        <time>2018-03-10T11:13:53Z</time>
      </trkpt>
      <trkpt lat="43.4775" lon="1.43303">
        <ele>216</ele>
        <time>2018-03-10T11:13:53Z</time>
      </trkpt>
      <trkpt lat="43.47747" lon="1.43302">
        <ele>216</ele>
        <time>2018-03-10T11:14:08Z</time>
      </trkpt>
      <trkpt lat="43.47742" lon="1.43303">
        <ele>216</ele>
        <time>2018-03-10T11:14:09Z</time>
      </trkpt>
      <trkpt lat="43.47737" lon="1.43299">
        <ele>216</ele>
        <time>2018-03-10T11:14:09Z</time>
      </trkpt>
      <trkpt lat="43.47735" lon="1.43298">
        <ele>216</ele>
        <time>2018-03-10T11:14:09Z</time>
      </trkpt>
      <trkpt lat="43.47731" lon="1.43298">
        <ele>216</ele>
        <time>2018-03-10T11:14:24Z</time>
      </trkpt>
      <trkpt lat="43.47728" lon="1.43297">
        <ele>216</ele>
        <time>2018-03-10T11:14:25Z</time>
      </trkpt>
      <trkpt lat="43.47724" lon="1.43297">
        <ele>216</ele>
        <time>2018-03-10T11:14:25Z</time>
      </trkpt>
      <trkpt lat="43.47721" lon="1.43297">
        <ele>216</ele>
        <time>2018-03-10T11:14:25Z</time>
      </trkpt>
      <trkpt lat="43.47715" lon="1.43295">
        <ele>216</ele>
        <time>2018-03-10T11:14:40Z</time>
      </trkpt>
      <trkpt lat="43.47711" lon="1.43295">
        <ele>216</ele>
        <time>2018-03-10T11:14:41Z</time>
      </trkpt>
      <trkpt lat="43.47706" lon="1.43297">
        <ele>229</ele>
        <time>2018-03-10T11:14:41Z</time>
      </trkpt>
      <trkpt lat="43.47702" lon="1.43297">
        <ele>229</ele>
        <time>2018-03-10T11:14:41Z</time>
      </trkpt>
      <trkpt lat="43.47696" lon="1.43295">
        <ele>229</ele>
        <time>2018-03-10T11:14:56Z</time>
      </trkpt>
      <trkpt lat="43.4769" lon="1.43294">
        <ele>229</ele>
        <time>2018-03-10T11:14:57Z</time>
      </trkpt>
      <trkpt lat="43.47686" lon="1.43295">
        <ele>229</ele>
        <time>2018-03-10T11:14:57Z</time>
      </trkpt>
      <trkpt lat="43.47681" lon="1.43298">
        <ele>229</ele>
        <time>2018-03-10T11:14:57Z</time>
      </trkpt>
      <trkpt lat="43.47678" lon="1.43299">
        <ele>229</ele>
        <time>2018-03-10T11:15:16Z</time>
      </trkpt>
      <trkpt lat="43.47676" lon="1.433">
        <ele>229</ele>
        <time>2018-03-10T11:15:17Z</time>
      </trkpt>
      <trkpt lat="43.47675" lon="1.43302">
        <ele>229</ele>
        <time>2018-03-10T11:15:17Z</time>
      </trkpt>
      <trkpt lat="43.47672" lon="1.43305">
        <ele>229</ele>
        <time>2018-03-10T11:15:17Z</time>
      </trkpt>
      <trkpt lat="43.47668" lon="1.43307">
        <ele>229</ele>
        <time>2018-03-10T11:15:17Z</time>
      </trkpt>
      <trkpt lat="43.47667" lon="1.43305">
        <ele>229</ele>
        <time>2018-03-10T11:15:36Z</time>
      </trkpt>
      <trkpt lat="43.47668" lon="1.43304">
        <ele>229</ele>
        <time>2018-03-10T11:15:37Z</time>
      </trkpt>
      <trkpt lat="43.47665" lon="1.43306">
        <ele>229</ele>
        <time>2018-03-10T11:15:37Z</time>
      </trkpt>
      <trkpt lat="43.47661" lon="1.43309">
        <ele>229</ele>
        <time>2018-03-10T11:15:37Z</time>
      </trkpt>
      <trkpt lat="43.47657" lon="1.43312">
        <ele>229</ele>
        <time>2018-03-10T11:15:37Z</time>
      </trkpt>
      <trkpt lat="43.47654" lon="1.43313">
        <ele>229</ele>
        <time>2018-03-10T11:15:52Z</time>
      </trkpt>
      <trkpt lat="43.47651" lon="1.43314">
        <ele>229</ele>
        <time>2018-03-10T11:15:53Z</time>
      </trkpt>
      <trkpt lat="43.47646" lon="1.43315">
        <ele>229</ele>
        <time>2018-03-10T11:15:53Z</time>
      </trkpt>
      <trkpt lat="43.47644" lon="1.43317">
        <ele>229</ele>
        <time>2018-03-10T11:15:53Z</time>
      </trkpt>
      <trkpt lat="43.4764" lon="1.4332">
        <ele>229</ele>
        <time>2018-03-10T11:16:08Z</time>
      </trkpt>
      <trkpt lat="43.47634" lon="1.43317">
        <ele>229</ele>
        <time>2018-03-10T11:16:09Z</time>
      </trkpt>
      <trkpt lat="43.4763" lon="1.4332">
        <ele>229</ele>
        <time>2018-03-10T11:16:09Z</time>
      </trkpt>
      <trkpt lat="43.47626" lon="1.43324">
        <ele>229</ele>
        <time>2018-03-10T11:16:09Z</time>
      </trkpt>
      <trkpt lat="43.47621" lon="1.43327">
        <ele>242</ele>
        <time>2018-03-10T11:16:24Z</time>
      </trkpt>
      <trkpt lat="43.47616" lon="1.43328">
        <ele>242</ele>
        <time>2018-03-10T11:16:25Z</time>
      </trkpt>
      <trkpt lat="43.47612" lon="1.43328">
        <ele>242</ele>
        <time>2018-03-10T11:16:25Z</time>
      </trkpt>
      <trkpt lat="43.47611" lon="1.43328">
        <ele>242</ele>
        <time>2018-03-10T11:16:25Z</time>
      </trkpt>
      <trkpt lat="43.4761" lon="1.43328">
        <ele>242</ele>
        <time>2018-03-10T11:16:44Z</time>
      </trkpt>
      <trkpt lat="43.47607" lon="1.43329">
        <ele>242</ele>
        <time>2018-03-10T11:16:45Z</time>
      </trkpt>
      <trkpt lat="43.47606" lon="1.43328">
        <ele>242</ele>
        <time>2018-03-10T11:16:45Z</time>
      </trkpt>
      <trkpt lat="43.47602" lon="1.43332">
        <ele>242</ele>
        <time>2018-03-10T11:16:45Z</time>
      </trkpt>
      <trkpt lat="43.47599" lon="1.43337">
        <ele>242</ele>
        <time>2018-03-10T11:16:45Z</time>
      </trkpt>
      <trkpt lat="43.47595" lon="1.43343">
        <ele>242</ele>
        <time>2018-03-10T11:17:00Z</time>
      </trkpt>
      <trkpt lat="43.4759" lon="1.43348">
        <ele>242</ele>
        <time>2018-03-10T11:17:01Z</time>
      </trkpt>
      <trkpt lat="43.47587" lon="1.4335">
        <ele>242</ele>
        <time>2018-03-10T11:17:01Z</time>
      </trkpt>
      <trkpt lat="43.47585" lon="1.43351">
        <ele>242</ele>
        <time>2018-03-10T11:17:01Z</time>
      </trkpt>
      <trkpt lat="43.47581" lon="1.43352">
        <ele>242</ele>
        <time>2018-03-10T11:17:16Z</time>
      </trkpt>
      <trkpt lat="43.47577" lon="1.43353">
        <ele>242</ele>
        <time>2018-03-10T11:17:17Z</time>
      </trkpt>
      <trkpt lat="43.47574" lon="1.43354">
        <ele>242</ele>
        <time>2018-03-10T11:17:17Z</time>
      </trkpt>
      <trkpt lat="43.4757" lon="1.43356">
        <ele>242</ele>
        <time>2018-03-10T11:17:17Z</time>
      </trkpt>
      <trkpt lat="43.47565" lon="1.43359">
        <ele>242</ele>
        <time>2018-03-10T11:17:32Z</time>
      </trkpt>
      <trkpt lat="43.47562" lon="1.43359">
        <ele>242</ele>
        <time>2018-03-10T11:17:33Z</time>
      </trkpt>
      <trkpt lat="43.47558" lon="1.4336">
        <ele>242</ele>
        <time>2018-03-10T11:17:33Z</time>
      </trkpt>
      <trkpt lat="43.47554" lon="1.43359">
        <ele>242</ele>
        <time>2018-03-10T11:17:33Z</time>
      </trkpt>
      <trkpt lat="43.47554" lon="1.43356">
        <ele>242</ele>
        <time>2018-03-10T11:17:48Z</time>
      </trkpt>
      <trkpt lat="43.47551" lon="1.43356">
        <ele>242</ele>
        <time>2018-03-10T11:17:49Z</time>
      </trkpt>
      <trkpt lat="43.47546" lon="1.43357">
        <ele>242</ele>
        <time>2018-03-10T11:17:49Z</time>
      </trkpt>
      <trkpt lat="43.47542" lon="1.43358">
        <ele>242</ele>
        <time>2018-03-10T11:17:49Z</time>
      </trkpt>
      <trkpt lat="43.47539" lon="1.43359">
        <ele>253</ele>
        <time>2018-03-10T11:18:08Z</time>
      </trkpt>
      <trkpt lat="43.47536" lon="1.43357">
        <ele>253</ele>
        <time>2018-03-10T11:18:09Z</time>
      </trkpt>
      <trkpt lat="43.47534" lon="1.43357">
        <ele>253</ele>
        <time>2018-03-10T11:18:09Z</time>
      </trkpt>
      <trkpt lat="43.47531" lon="1.43358">
        <ele>253</ele>
        <time>2018-03-10T11:18:09Z</time>
      </trkpt>
      <trkpt lat="43.47526" lon="1.43359">
        <ele>253</ele>
        <time>2018-03-10T11:18:09Z</time>
      </trkpt>
      <trkpt lat="43.47522" lon="1.43361">
        <ele>253</ele>
        <time>2018-03-10T11:18:24Z</time>
      </trkpt>
      <trkpt lat="43.47517" lon="1.43359">
        <ele>253</ele>
        <time>2018-03-10T11:18:25Z</time>
      </trkpt>
      <trkpt lat="43.47512" lon="1.4336">
        <ele>253</ele>
        <time>2018-03-10T11:18:25Z</time>
      </trkpt>
      <trkpt lat="43.47508" lon="1.43361">
        <ele>253</ele>
        <time>2018-03-10T11:18:25Z</time>
      </trkpt>
      <trkpt lat="43.47503" lon="1.43362">
        <ele>253</ele>
        <time>2018-03-10T11:18:40Z</time>
      </trkpt>
      <trkpt lat="43.47498" lon="1.43361">
        <ele>253</ele>
        <time>2018-03-10T11:18:41Z</time>
      </trkpt>
      <trkpt lat="43.47492" lon="1.43358">
        <ele>253</ele>
        <time>2018-03-10T11:18:41Z</time>
      </trkpt>
      <trkpt lat="43.47489" lon="1.43358">
        <ele>253</ele>
        <time>2018-03-10T11:18:41Z</time>
      </trkpt>
      <trkpt lat="43.47483" lon="1.43361">
        <ele>253</ele>
        <time>2018-03-10T11:19:36Z</time>
      </trkpt>
      <trkpt lat="43.47481" lon="1.43361">
        <ele>253</ele>
        <time>2018-03-10T11:19:37Z</time>
      </trkpt>
      <trkpt lat="43.47479" lon="1.4336">
        <ele>253</ele>
        <time>2018-03-10T11:19:37Z</time>
      </trkpt>
      <trkpt lat="43.47477" lon="1.43359">
        <ele>253</ele>
        <time>2018-03-10T11:19:37Z</time>
      </trkpt>
      <trkpt lat="43.47476" lon="1.43359">
        <ele>253</ele>
        <time>2018-03-10T11:19:37Z</time>
      </trkpt>
      <trkpt lat="43.47472" lon="1.43363">
        <ele>253</ele>
        <time>2018-03-10T11:21:04Z</time>
      </trkpt>
      <trkpt lat="43.47472" lon="1.43363">
        <ele>253</ele>
        <time>2018-03-10T11:21:05Z</time>
      </trkpt>
      <trkpt lat="43.4747" lon="1.43364">
        <ele>253</ele>
        <time>2018-03-10T11:21:05Z</time>
      </trkpt>
      <trkpt lat="43.47468" lon="1.43365">
        <ele>253</ele>
        <time>2018-03-10T11:21:05Z</time>
      </trkpt>
      <trkpt lat="43.47467" lon="1.43366">
        <ele>253</ele>
        <time>2018-03-10T11:21:05Z</time>
      </trkpt>
      <trkpt lat="43.47467" lon="1.4337">
        <ele>253</ele>
        <time>2018-03-10T11:24:00Z</time>
      </trkpt>
      <trkpt lat="43.47464" lon="1.4337">
        <ele>253</ele>
        <time>2018-03-10T11:24:01Z</time>
      </trkpt>
      <trkpt lat="43.47459" lon="1.43372">
        <ele>253</ele>
        <time>2018-03-10T11:24:01Z</time>
      </trkpt>
      <trkpt lat="43.47454" lon="1.43373">
        <ele>248</ele>
        <time>2018-03-10T11:24:01Z</time>
      </trkpt>
      <trkpt lat="43.47448" lon="1.43372">
        <ele>248</ele>
        <time>2018-03-10T11:24:01Z</time>
      </trkpt>
      <trkpt lat="43.47442" lon="1.43372">
        <ele>248</ele>
        <time>2018-03-10T11:24:16Z</time>
      </trkpt>
      <trkpt lat="43.47437" lon="1.43375">
        <ele>248</ele>
        <time>2018-03-10T11:24:17Z</time>
      </trkpt>
      <trkpt lat="43.47432" lon="1.43374">
        <ele>248</ele>
        <time>2018-03-10T11:24:17Z</time>
      </trkpt>
      <trkpt lat="43.4743" lon="1.43376">
        <ele>255</ele>
        <time>2018-03-10T11:24:17Z</time>
      </trkpt>
      <trkpt lat="43.47427" lon="1.43377">
        <ele>255</ele>
        <time>2018-03-10T11:24:32Z</time>
      </trkpt>
      <trkpt lat="43.47424" lon="1.43379">
        <ele>255</ele>
        <time>2018-03-10T11:24:33Z</time>
      </trkpt>
      <trkpt lat="43.4742" lon="1.43379">
        <ele>255</ele>
        <time>2018-03-10T11:24:33Z</time>
      </trkpt>
      <trkpt lat="43.47416" lon="1.43379">
        <ele>255</ele>
        <time>2018-03-10T11:24:33Z</time>
      </trkpt>
      <trkpt lat="43.47411" lon="1.43379">
        <ele>255</ele>
        <time>2018-03-10T11:24:48Z</time>
      </trkpt>
      <trkpt lat="43.47407" lon="1.43379">
        <ele>255</ele>
        <time>2018-03-10T11:24:49Z</time>
      </trkpt>
      <trkpt lat="43.47403" lon="1.43379">
        <ele>255</ele>
        <time>2018-03-10T11:24:49Z</time>
      </trkpt>
      <trkpt lat="43.474" lon="1.43382">
        <ele>255</ele>
        <time>2018-03-10T11:24:49Z</time>
      </trkpt>
      <trkpt lat="43.47395" lon="1.43385">
        <ele>255</ele>
        <time>2018-03-10T11:25:04Z</time>
      </trkpt>
      <trkpt lat="43.47388" lon="1.43389">
        <ele>255</ele>
        <time>2018-03-10T11:25:05Z</time>
      </trkpt>
      <trkpt lat="43.4738" lon="1.43391">
        <ele>255</ele>
        <time>2018-03-10T11:25:05Z</time>
      </trkpt>
      <trkpt lat="43.47374" lon="1.43393">
        <ele>254</ele>
        <time>2018-03-10T11:25:05Z</time>
      </trkpt>
      <trkpt lat="43.4737" lon="1.43393">
        <ele>254</ele>
        <time>2018-03-10T11:25:20Z</time>
      </trkpt>
      <trkpt lat="43.47366" lon="1.43395">
        <ele>254</ele>
        <time>2018-03-10T11:25:21Z</time>
      </trkpt>
      <trkpt lat="43.47362" lon="1.43391">
        <ele>254</ele>
        <time>2018-03-10T11:25:21Z</time>
      </trkpt>
      <trkpt lat="43.47357" lon="1.43392">
        <ele>254</ele>
        <time>2018-03-10T11:25:21Z</time>
      </trkpt>
      <trkpt lat="43.47352" lon="1.43392">
        <ele>254</ele>
        <time>2018-03-10T11:25:36Z</time>
      </trkpt>
      <trkpt lat="43.47345" lon="1.43391">
        <ele>254</ele>
        <time>2018-03-10T11:25:37Z</time>
      </trkpt>
      <trkpt lat="43.47341" lon="1.43393">
        <ele>254</ele>
        <time>2018-03-10T11:25:37Z</time>
      </trkpt>
      <trkpt lat="43.47336" lon="1.43397">
        <ele>254</ele>
        <time>2018-03-10T11:25:37Z</time>
      </trkpt>
      <trkpt lat="43.47332" lon="1.43401">
        <ele>254</ele>
        <time>2018-03-10T11:25:52Z</time>
      </trkpt>
      <trkpt lat="43.47326" lon="1.43404">
        <ele>254</ele>
        <time>2018-03-10T11:25:53Z</time>
      </trkpt>
      <trkpt lat="43.47322" lon="1.43405">
        <ele>254</ele>
        <time>2018-03-10T11:25:53Z</time>
      </trkpt>
      <trkpt lat="43.47318" lon="1.43404">
        <ele>254</ele>
        <time>2018-03-10T11:25:53Z</time>
      </trkpt>
      <trkpt lat="43.47315" lon="1.43399">
        <ele>254</ele>
        <time>2018-03-10T11:26:08Z</time>
      </trkpt>
      <trkpt lat="43.47311" lon="1.43402">
        <ele>254</ele>
        <time>2018-03-10T11:26:09Z</time>
      </trkpt>
      <trkpt lat="43.47307" lon="1.43402">
        <ele>254</ele>
        <time>2018-03-10T11:26:09Z</time>
      </trkpt>
      <trkpt lat="43.47302" lon="1.43404">
        <ele>254</ele>
        <time>2018-03-10T11:26:09Z</time>
      </trkpt>
      <trkpt lat="43.47298" lon="1.43405">
        <ele>254</ele>
        <time>2018-03-10T11:26:24Z</time>
      </trkpt>
      <trkpt lat="43.47293" lon="1.43405">
        <ele>254</ele>
        <time>2018-03-10T11:26:25Z</time>
      </trkpt>
      <trkpt lat="43.47288" lon="1.43405">
        <ele>253</ele>
        <time>2018-03-10T11:26:25Z</time>
      </trkpt>
      <trkpt lat="43.47283" lon="1.43404">
        <ele>253</ele>
        <time>2018-03-10T11:26:25Z</time>
      </trkpt>
      <trkpt lat="43.47279" lon="1.43405">
        <ele>253</ele>
        <time>2018-03-10T11:26:40Z</time>
      </trkpt>
      <trkpt lat="43.47276" lon="1.43406">
        <ele>253</ele>
        <time>2018-03-10T11:26:41Z</time>
      </trkpt>
      <trkpt lat="43.47272" lon="1.43408">
        <ele>253</ele>
        <time>2018-03-10T11:26:41Z</time>
      </trkpt>
      <trkpt lat="43.47269" lon="1.43409">
        <ele>253</ele>
        <time>2018-03-10T11:26:41Z</time>
      </trkpt>
      <trkpt lat="43.47266" lon="1.4341">
        <ele>253</ele>
        <time>2018-03-10T11:26:56Z</time>
      </trkpt>
      <trkpt lat="43.47264" lon="1.43411">
        <ele>253</ele>
        <time>2018-03-10T11:26:57Z</time>
      </trkpt>
      <trkpt lat="43.47259" lon="1.43414">
        <ele>253</ele>
        <time>2018-03-10T11:26:57Z</time>
      </trkpt>
      <trkpt lat="43.47254" lon="1.43415">
        <ele>253</ele>
        <time>2018-03-10T11:26:57Z</time>
      </trkpt>
      <trkpt lat="43.47249" lon="1.43413">
        <ele>253</ele>
        <time>2018-03-10T11:27:12Z</time>
      </trkpt>
      <trkpt lat="43.47242" lon="1.43416">
        <ele>253</ele>
        <time>2018-03-10T11:27:13Z</time>
      </trkpt>
      <trkpt lat="43.47236" lon="1.43416">
        <ele>253</ele>
        <time>2018-03-10T11:27:13Z</time>
      </trkpt>
      <trkpt lat="43.47231" lon="1.43418">
        <ele>253</ele>
        <time>2018-03-10T11:27:13Z</time>
      </trkpt>
      <trkpt lat="43.47227" lon="1.43419">
        <ele>253</ele>
        <time>2018-03-10T11:27:28Z</time>
      </trkpt>
      <trkpt lat="43.47222" lon="1.43418">
        <ele>253</ele>
        <time>2018-03-10T11:27:29Z</time>
      </trkpt>
      <trkpt lat="43.47217" lon="1.43419">
        <ele>253</ele>
        <time>2018-03-10T11:27:29Z</time>
      </trkpt>
      <trkpt lat="43.47212" lon="1.43419">
        <ele>253</ele>
        <time>2018-03-10T11:27:29Z</time>
      </trkpt>
      <trkpt lat="43.47206" lon="1.4342">
        <ele>243</ele>
        <time>2018-03-10T11:27:44Z</time>
      </trkpt>
      <trkpt lat="43.47202" lon="1.43422">
        <ele>243</ele>
        <time>2018-03-10T11:27:45Z</time>
      </trkpt>
      <trkpt lat="43.472" lon="1.43421">
        <ele>243</ele>
        <time>2018-03-10T11:27:45Z</time>
      </trkpt>
      <trkpt lat="43.47197" lon="1.43418">
        <ele>243</ele>
        <time>2018-03-10T11:27:45Z</time>
      </trkpt>
      <trkpt lat="43.47193" lon="1.43413">
        <ele>243</ele>
        <time>2018-03-10T11:28:00Z</time>
      </trkpt>
      <trkpt lat="43.47191" lon="1.43405">
        <ele>243</ele>
        <time>2018-03-10T11:28:01Z</time>
      </trkpt>
      <trkpt lat="43.4719" lon="1.43397">
        <ele>243</ele>
        <time>2018-03-10T11:28:01Z</time>
      </trkpt>
      <trkpt lat="43.47189" lon="1.43392">
        <ele>243</ele>
        <time>2018-03-10T11:28:01Z</time>
      </trkpt>
      <trkpt lat="43.47188" lon="1.43387">
        <ele>243</ele>
        <time>2018-03-10T11:28:16Z</time>
      </trkpt>
      <trkpt lat="43.47187" lon="1.4338">
        <ele>243</ele>
        <time>2018-03-10T11:28:17Z</time>
      </trkpt>
      <trkpt lat="43.47186" lon="1.43374">
        <ele>247</ele>
        <time>2018-03-10T11:28:17Z</time>
      </trkpt>
      <trkpt lat="43.47185" lon="1.43367">
        <ele>247</ele>
        <time>2018-03-10T11:28:17Z</time>
      </trkpt>
      <trkpt lat="43.47184" lon="1.4336">
        <ele>247</ele>
        <time>2018-03-10T11:28:32Z</time>
      </trkpt>
      <trkpt lat="43.47183" lon="1.43354">
        <ele>247</ele>
        <time>2018-03-10T11:28:33Z</time>
      </trkpt>
      <trkpt lat="43.47183" lon="1.43346">
        <ele>247</ele>
        <time>2018-03-10T11:28:33Z</time>
      </trkpt>
      <trkpt lat="43.47183" lon="1.43339">
        <ele>247</ele>
        <time>2018-03-10T11:28:33Z</time>
      </trkpt>
      <trkpt lat="43.47182" lon="1.43333">
        <ele>247</ele>
        <time>2018-03-10T11:28:48Z</time>
      </trkpt>
      <trkpt lat="43.47182" lon="1.43328">
        <ele>247</ele>
        <time>2018-03-10T11:28:49Z</time>
      </trkpt>
      <trkpt lat="43.4718" lon="1.4332">
        <ele>247</ele>
        <time>2018-03-10T11:28:49Z</time>
      </trkpt>
      <trkpt lat="43.47179" lon="1.43313">
        <ele>247</ele>
        <time>2018-03-10T11:28:49Z</time>
      </trkpt>
      <trkpt lat="43.4718" lon="1.43306">
        <ele>247</ele>
        <time>2018-03-10T11:29:04Z</time>
      </trkpt>
      <trkpt lat="43.4718" lon="1.433">
        <ele>247</ele>
        <time>2018-03-10T11:29:05Z</time>
      </trkpt>
      <trkpt lat="43.4718" lon="1.43293">
        <ele>247</ele>
        <time>2018-03-10T11:29:05Z</time>
      </trkpt>
      <trkpt lat="43.4718" lon="1.43286">
        <ele>249</ele>
        <time>2018-03-10T11:29:05Z</time>
      </trkpt>
      <trkpt lat="43.47182" lon="1.4328">
        <ele>249</ele>
        <time>2018-03-10T11:29:20Z</time>
      </trkpt>
      <trkpt lat="43.47182" lon="1.43276">
        <ele>249</ele>
        <time>2018-03-10T11:29:21Z</time>
      </trkpt>
      <trkpt lat="43.47185" lon="1.43271">
        <ele>249</ele>
        <time>2018-03-10T11:29:21Z</time>
      </trkpt>
      <trkpt lat="43.47186" lon="1.43265">
        <ele>249</ele>
        <time>2018-03-10T11:29:21Z</time>
      </trkpt>
      <trkpt lat="43.47186" lon="1.43259">
        <ele>249</ele>
        <time>2018-03-10T11:29:36Z</time>
      </trkpt>
      <trkpt lat="43.47187" lon="1.43253">
        <ele>249</ele>
        <time>2018-03-10T11:29:37Z</time>
      </trkpt>
      <trkpt lat="43.47187" lon="1.43247">
        <ele>249</ele>
        <time>2018-03-10T11:29:37Z</time>
      </trkpt>
      <trkpt lat="43.47188" lon="1.43237">
        <ele>249</ele>
        <time>2018-03-10T11:29:37Z</time>
      </trkpt>
      <trkpt lat="43.47188" lon="1.43229">
        <ele>249</ele>
        <time>2018-03-10T11:29:52Z</time>
      </trkpt>
      <trkpt lat="43.47188" lon="1.43224">
        <ele>249</ele>
        <time>2018-03-10T11:29:53Z</time>
      </trkpt>
      <trkpt lat="43.47187" lon="1.43218">
        <ele>249</ele>
        <time>2018-03-10T11:29:53Z</time>
      </trkpt>
      <trkpt lat="43.47185" lon="1.43213">
        <ele>249</ele>
        <time>2018-03-10T11:29:53Z</time>
      </trkpt>
      <trkpt lat="43.47182" lon="1.43198">
        <ele>248</ele>
        <time>2018-03-10T11:31:56Z</time>
      </trkpt>
      <trkpt lat="43.47182" lon="1.43197">
        <ele>248</ele>
        <time>2018-03-10T11:31:57Z</time>
      </trkpt>
      <trkpt lat="43.47181" lon="1.43192">
        <ele>248</ele>
        <time>2018-03-10T11:31:57Z</time>
      </trkpt>
      <trkpt lat="43.47182" lon="1.43185">
        <ele>248</ele>
        <time>2018-03-10T11:31:57Z</time>
      </trkpt>
      <trkpt lat="43.47185" lon="1.43178">
        <ele>248</ele>
        <time>2018-03-10T11:31:57Z</time>
      </trkpt>
      <trkpt lat="43.47187" lon="1.4318">
        <ele>248</ele>
        <time>2018-03-10T11:32:48Z</time>
      </trkpt>
      <trkpt lat="43.47187" lon="1.4318">
        <ele>248</ele>
        <time>2018-03-10T11:32:49Z</time>
      </trkpt>
      <trkpt lat="43.47189" lon="1.43173">
        <ele>248</ele>
        <time>2018-03-10T11:32:49Z</time>
      </trkpt>
      <trkpt lat="43.47191" lon="1.43165">
        <ele>248</ele>
        <time>2018-03-10T11:32:49Z</time>
      </trkpt>
      <trkpt lat="43.47191" lon="1.43159">
        <ele>248</ele>
        <time>2018-03-10T11:32:49Z</time>
      </trkpt>
      <trkpt lat="43.47191" lon="1.43151">
        <ele>248</ele>
        <time>2018-03-10T11:33:04Z</time>
      </trkpt>
      <trkpt lat="43.47192" lon="1.43144">
        <ele>248</ele>
        <time>2018-03-10T11:33:05Z</time>
      </trkpt>
      <trkpt lat="43.47195" lon="1.43138">
        <ele>248</ele>
        <time>2018-03-10T11:33:05Z</time>
      </trkpt>
      <trkpt lat="43.47195" lon="1.43137">
        <ele>248</ele>
        <time>2018-03-10T11:33:05Z</time>
      </trkpt>
      <trkpt lat="43.47197" lon="1.43132">
        <ele>248</ele>
        <time>2018-03-10T11:33:20Z</time>
      </trkpt>
      <trkpt lat="43.47198" lon="1.43126">
        <ele>248</ele>
        <time>2018-03-10T11:33:21Z</time>
      </trkpt>
      <trkpt lat="43.472" lon="1.43119">
        <ele>247</ele>
        <time>2018-03-10T11:33:21Z</time>
      </trkpt>
      <trkpt lat="43.47206" lon="1.43105">
        <ele>247</ele>
        <time>2018-03-10T11:33:21Z</time>
      </trkpt>
      <trkpt lat="43.47209" lon="1.43094">
        <ele>248</ele>
        <time>2018-03-10T11:33:36Z</time>
      </trkpt>
      <trkpt lat="43.47211" lon="1.43086">
        <ele>248</ele>
        <time>2018-03-10T11:33:37Z</time>
      </trkpt>
      <trkpt lat="43.47212" lon="1.43082">
        <ele>248</ele>
        <time>2018-03-10T11:33:37Z</time>
      </trkpt>
      <trkpt lat="43.47215" lon="1.43075">
        <ele>248</ele>
        <time>2018-03-10T11:33:37Z</time>
      </trkpt>
      <trkpt lat="43.47217" lon="1.43069">
        <ele>248</ele>
        <time>2018-03-10T11:33:52Z</time>
      </trkpt>
      <trkpt lat="43.47219" lon="1.43065">
        <ele>248</ele>
        <time>2018-03-10T11:33:53Z</time>
      </trkpt>
      <trkpt lat="43.47224" lon="1.43058">
        <ele>248</ele>
        <time>2018-03-10T11:33:53Z</time>
      </trkpt>
      <trkpt lat="43.47226" lon="1.43051">
        <ele>248</ele>
        <time>2018-03-10T11:33:53Z</time>
      </trkpt>
      <trkpt lat="43.47227" lon="1.43043">
        <ele>248</ele>
        <time>2018-03-10T11:34:08Z</time>
      </trkpt>
      <trkpt lat="43.47229" lon="1.43035">
        <ele>247</ele>
        <time>2018-03-10T11:34:09Z</time>
      </trkpt>
      <trkpt lat="43.47231" lon="1.43029">
        <ele>247</ele>
        <time>2018-03-10T11:34:09Z</time>
      </trkpt>
      <trkpt lat="43.47234" lon="1.43023">
        <ele>247</ele>
        <time>2018-03-10T11:34:09Z</time>
      </trkpt>
      <trkpt lat="43.47235" lon="1.43018">
        <ele>247</ele>
        <time>2018-03-10T11:34:24Z</time>
      </trkpt>
      <trkpt lat="43.47237" lon="1.43011">
        <ele>247</ele>
        <time>2018-03-10T11:34:25Z</time>
      </trkpt>
      <trkpt lat="43.47238" lon="1.43007">
        <ele>247</ele>
        <time>2018-03-10T11:34:25Z</time>
      </trkpt>
      <trkpt lat="43.4724" lon="1.43">
        <ele>247</ele>
        <time>2018-03-10T11:34:25Z</time>
      </trkpt>
      <trkpt lat="43.47243" lon="1.42994">
        <ele>247</ele>
        <time>2018-03-10T11:34:40Z</time>
      </trkpt>
      <trkpt lat="43.47246" lon="1.4299">
        <ele>247</ele>
        <time>2018-03-10T11:34:41Z</time>
      </trkpt>
      <trkpt lat="43.47249" lon="1.42984">
        <ele>247</ele>
        <time>2018-03-10T11:34:41Z</time>
      </trkpt>
      <trkpt lat="43.47252" lon="1.42976">
        <ele>247</ele>
        <time>2018-03-10T11:34:41Z</time>
      </trkpt>
      <trkpt lat="43.47253" lon="1.42972">
        <ele>247</ele>
        <time>2018-03-10T11:34:56Z</time>
      </trkpt>
      <trkpt lat="43.47256" lon="1.42965">
        <ele>247</ele>
        <time>2018-03-10T11:34:57Z</time>
      </trkpt>
      <trkpt lat="43.47257" lon="1.42961">
        <ele>247</ele>
        <time>2018-03-10T11:34:57Z</time>
      </trkpt>
      <trkpt lat="43.4726" lon="1.42954">
        <ele>242</ele>
        <time>2018-03-10T11:34:57Z</time>
      </trkpt>
      <trkpt lat="43.47262" lon="1.42948">
        <ele>242</ele>
        <time>2018-03-10T11:35:12Z</time>
      </trkpt>
      <trkpt lat="43.47264" lon="1.42943">
        <ele>242</ele>
        <time>2018-03-10T11:35:13Z</time>
      </trkpt>
      <trkpt lat="43.47266" lon="1.42937">
        <ele>242</ele>
        <time>2018-03-10T11:35:13Z</time>
      </trkpt>
      <trkpt lat="43.47269" lon="1.42932">
        <ele>242</ele>
        <time>2018-03-10T11:35:13Z</time>
      </trkpt>
      <trkpt lat="43.47271" lon="1.42927">
        <ele>242</ele>
        <time>2018-03-10T11:35:28Z</time>
      </trkpt>
      <trkpt lat="43.47273" lon="1.42922">
        <ele>242</ele>
        <time>2018-03-10T11:35:29Z</time>
      </trkpt>
      <trkpt lat="43.47276" lon="1.42917">
        <ele>242</ele>
        <time>2018-03-10T11:35:29Z</time>
      </trkpt>
      <trkpt lat="43.47278" lon="1.42909">
        <ele>242</ele>
        <time>2018-03-10T11:35:29Z</time>
      </trkpt>
      <trkpt lat="43.4728" lon="1.42905">
        <ele>242</ele>
        <time>2018-03-10T11:35:44Z</time>
      </trkpt>
      <trkpt lat="43.47283" lon="1.42897">
        <ele>242</ele>
        <time>2018-03-10T11:35:45Z</time>
      </trkpt>
      <trkpt lat="43.47285" lon="1.42893">
        <ele>242</ele>
        <time>2018-03-10T11:35:45Z</time>
      </trkpt>
      <trkpt lat="43.47287" lon="1.42886">
        <ele>242</ele>
        <time>2018-03-10T11:35:45Z</time>
      </trkpt>
      <trkpt lat="43.47288" lon="1.42881">
        <ele>242</ele>
        <time>2018-03-10T11:36:00Z</time>
      </trkpt>
      <trkpt lat="43.47289" lon="1.42876">
        <ele>242</ele>
        <time>2018-03-10T11:36:01Z</time>
      </trkpt>
      <trkpt lat="43.47292" lon="1.42872">
        <ele>238</ele>
        <time>2018-03-10T11:36:01Z</time>
      </trkpt>
      <trkpt lat="43.47294" lon="1.42866">
        <ele>238</ele>
        <time>2018-03-10T11:36:01Z</time>
      </trkpt>
      <trkpt lat="43.47295" lon="1.42861">
        <ele>238</ele>
        <time>2018-03-10T11:36:16Z</time>
      </trkpt>
      <trkpt lat="43.47297" lon="1.42855">
        <ele>238</ele>
        <time>2018-03-10T11:36:17Z</time>
      </trkpt>
      <trkpt lat="43.47301" lon="1.42849">
        <ele>238</ele>
        <time>2018-03-10T11:36:17Z</time>
      </trkpt>
      <trkpt lat="43.47304" lon="1.42843">
        <ele>238</ele>
        <time>2018-03-10T11:36:17Z</time>
      </trkpt>
      <trkpt lat="43.47306" lon="1.42839">
        <ele>238</ele>
        <time>2018-03-10T11:36:32Z</time>
      </trkpt>
      <trkpt lat="43.47307" lon="1.42832">
        <ele>238</ele>
        <time>2018-03-10T11:36:33Z</time>
      </trkpt>
      <trkpt lat="43.47309" lon="1.42824">
        <ele>238</ele>
        <time>2018-03-10T11:36:33Z</time>
      </trkpt>
      <trkpt lat="43.4731" lon="1.4282">
        <ele>238</ele>
        <time>2018-03-10T11:36:33Z</time>
      </trkpt>
      <trkpt lat="43.47312" lon="1.42815">
        <ele>238</ele>
        <time>2018-03-10T11:36:48Z</time>
      </trkpt>
      <trkpt lat="43.47314" lon="1.42809">
        <ele>238</ele>
        <time>2018-03-10T11:36:49Z</time>
      </trkpt>
      <trkpt lat="43.47316" lon="1.42802">
        <ele>238</ele>
        <time>2018-03-10T11:36:49Z</time>
      </trkpt>
      <trkpt lat="43.47317" lon="1.42797">
        <ele>238</ele>
        <time>2018-03-10T11:36:49Z</time>
      </trkpt>
      <trkpt lat="43.47318" lon="1.42792">
        <ele>238</ele>
        <time>2018-03-10T11:37:04Z</time>
      </trkpt>
      <trkpt lat="43.47321" lon="1.42787">
        <ele>231</ele>
        <time>2018-03-10T11:37:05Z</time>
      </trkpt>
      <trkpt lat="43.47323" lon="1.4278">
        <ele>231</ele>
        <time>2018-03-10T11:37:05Z</time>
      </trkpt>
      <trkpt lat="43.47325" lon="1.42774">
        <ele>231</ele>
        <time>2018-03-10T11:37:05Z</time>
      </trkpt>
      <trkpt lat="43.47327" lon="1.42768">
        <ele>231</ele>
        <time>2018-03-10T11:37:20Z</time>
      </trkpt>
      <trkpt lat="43.4733" lon="1.42762">
        <ele>231</ele>
        <time>2018-03-10T11:37:21Z</time>
      </trkpt>
      <trkpt lat="43.47332" lon="1.42757">
        <ele>231</ele>
        <time>2018-03-10T11:37:21Z</time>
      </trkpt>
      <trkpt lat="43.47334" lon="1.42752">
        <ele>231</ele>
        <time>2018-03-10T11:37:21Z</time>
      </trkpt>
      <trkpt lat="43.47336" lon="1.42747">
        <ele>231</ele>
        <time>2018-03-10T11:37:36Z</time>
      </trkpt>
      <trkpt lat="43.47338" lon="1.42741">
        <ele>231</ele>
        <time>2018-03-10T11:37:37Z</time>
      </trkpt>
      <trkpt lat="43.47341" lon="1.42735">
        <ele>231</ele>
        <time>2018-03-10T11:37:37Z</time>
      </trkpt>
      <trkpt lat="43.47343" lon="1.42728">
        <ele>231</ele>
        <time>2018-03-10T11:37:37Z</time>
      </trkpt>
      <trkpt lat="43.47345" lon="1.42722">
        <ele>231</ele>
        <time>2018-03-10T11:37:52Z</time>
      </trkpt>
      <trkpt lat="43.47347" lon="1.42716">
        <ele>231</ele>
        <time>2018-03-10T11:37:53Z</time>
      </trkpt>
      <trkpt lat="43.47349" lon="1.4271">
        <ele>231</ele>
        <time>2018-03-10T11:37:53Z</time>
      </trkpt>
      <trkpt lat="43.47353" lon="1.42703">
        <ele>221</ele>
        <time>2018-03-10T11:37:53Z</time>
      </trkpt>
      <trkpt lat="43.47354" lon="1.42699">
        <ele>221</ele>
        <time>2018-03-10T11:38:08Z</time>
      </trkpt>
      <trkpt lat="43.47355" lon="1.42693">
        <ele>221</ele>
        <time>2018-03-10T11:38:09Z</time>
      </trkpt>
      <trkpt lat="43.47357" lon="1.42689">
        <ele>221</ele>
        <time>2018-03-10T11:38:09Z</time>
      </trkpt>
      <trkpt lat="43.47359" lon="1.42684">
        <ele>221</ele>
        <time>2018-03-10T11:38:09Z</time>
      </trkpt>
      <trkpt lat="43.4736" lon="1.42678">
        <ele>221</ele>
        <time>2018-03-10T11:38:24Z</time>
      </trkpt>
      <trkpt lat="43.47363" lon="1.42672">
        <ele>221</ele>
        <time>2018-03-10T11:38:25Z</time>
      </trkpt>
      <trkpt lat="43.47365" lon="1.42665">
        <ele>221</ele>
        <time>2018-03-10T11:38:25Z</time>
      </trkpt>
      <trkpt lat="43.47369" lon="1.42658">
        <ele>221</ele>
        <time>2018-03-10T11:38:25Z</time>
      </trkpt>
      <trkpt lat="43.47371" lon="1.42654">
        <ele>221</ele>
        <time>2018-03-10T11:38:40Z</time>
      </trkpt>
      <trkpt lat="43.47374" lon="1.42648">
        <ele>221</ele>
        <time>2018-03-10T11:38:41Z</time>
      </trkpt>
      <trkpt lat="43.47375" lon="1.42642">
        <ele>223</ele>
        <time>2018-03-10T11:38:41Z</time>
      </trkpt>
      <trkpt lat="43.47377" lon="1.42636">
        <ele>223</ele>
        <time>2018-03-10T11:38:41Z</time>
      </trkpt>
      <trkpt lat="43.47379" lon="1.42631">
        <ele>223</ele>
        <time>2018-03-10T11:38:56Z</time>
      </trkpt>
      <trkpt lat="43.47381" lon="1.42626">
        <ele>223</ele>
        <time>2018-03-10T11:38:57Z</time>
      </trkpt>
      <trkpt lat="43.47386" lon="1.42621">
        <ele>216</ele>
        <time>2018-03-10T11:38:57Z</time>
      </trkpt>
      <trkpt lat="43.47388" lon="1.42618">
        <ele>216</ele>
        <time>2018-03-10T11:38:57Z</time>
      </trkpt>
      <trkpt lat="43.47392" lon="1.42609">
        <ele>216</ele>
        <time>2018-03-10T11:39:20Z</time>
      </trkpt>
      <trkpt lat="43.47392" lon="1.42607">
        <ele>216</ele>
        <time>2018-03-10T11:39:21Z</time>
      </trkpt>
      <trkpt lat="43.47393" lon="1.42607">
        <ele>216</ele>
        <time>2018-03-10T11:39:21Z</time>
      </trkpt>
      <trkpt lat="43.47396" lon="1.42608">
        <ele>216</ele>
        <time>2018-03-10T11:39:21Z</time>
      </trkpt>
      <trkpt lat="43.47401" lon="1.42611">
        <ele>216</ele>
        <time>2018-03-10T11:39:21Z</time>
      </trkpt>
      <trkpt lat="43.47406" lon="1.42614">
        <ele>216</ele>
        <time>2018-03-10T11:39:36Z</time>
      </trkpt>
      <trkpt lat="43.47409" lon="1.42618">
        <ele>216</ele>
        <time>2018-03-10T11:39:37Z</time>
      </trkpt>
      <trkpt lat="43.47413" lon="1.42619">
        <ele>216</ele>
        <time>2018-03-10T11:39:37Z</time>
      </trkpt>
      <trkpt lat="43.47418" lon="1.42623">
        <ele>216</ele>
        <time>2018-03-10T11:39:37Z</time>
      </trkpt>
      <trkpt lat="43.47422" lon="1.42625">
        <ele>216</ele>
        <time>2018-03-10T11:39:52Z</time>
      </trkpt>
      <trkpt lat="43.47429" lon="1.42629">
        <ele>223</ele>
        <time>2018-03-10T11:39:53Z</time>
      </trkpt>
      <trkpt lat="43.47433" lon="1.42631">
        <ele>223</ele>
        <time>2018-03-10T11:39:53Z</time>
      </trkpt>
      <trkpt lat="43.47439" lon="1.42632">
        <ele>223</ele>
        <time>2018-03-10T11:39:53Z</time>
      </trkpt>
      <trkpt lat="43.47443" lon="1.4263">
        <ele>223</ele>
        <time>2018-03-10T11:40:08Z</time>
      </trkpt>
      <trkpt lat="43.47445" lon="1.42625">
        <ele>216</ele>
        <time>2018-03-10T11:40:09Z</time>
      </trkpt>
      <trkpt lat="43.4745" lon="1.42619">
        <ele>216</ele>
        <time>2018-03-10T11:40:09Z</time>
      </trkpt>
      <trkpt lat="43.47454" lon="1.42611">
        <ele>216</ele>
        <time>2018-03-10T11:40:09Z</time>
      </trkpt>
      <trkpt lat="43.47455" lon="1.42608">
        <ele>216</ele>
        <time>2018-03-10T11:40:28Z</time>
      </trkpt>
      <trkpt lat="43.47454" lon="1.42609">
        <ele>216</ele>
        <time>2018-03-10T11:40:29Z</time>
      </trkpt>
      <trkpt lat="43.47454" lon="1.42604">
        <ele>216</ele>
        <time>2018-03-10T11:40:29Z</time>
      </trkpt>
      <trkpt lat="43.47454" lon="1.42598">
        <ele>216</ele>
        <time>2018-03-10T11:40:29Z</time>
      </trkpt>
      <trkpt lat="43.47455" lon="1.4259">
        <ele>216</ele>
        <time>2018-03-10T11:40:29Z</time>
      </trkpt>
      <trkpt lat="43.47456" lon="1.42582">
        <ele>216</ele>
        <time>2018-03-10T11:40:44Z</time>
      </trkpt>
      <trkpt lat="43.47455" lon="1.42575">
        <ele>216</ele>
        <time>2018-03-10T11:40:45Z</time>
      </trkpt>
      <trkpt lat="43.47456" lon="1.42567">
        <ele>216</ele>
        <time>2018-03-10T11:40:45Z</time>
      </trkpt>
      <trkpt lat="43.47455" lon="1.42558">
        <ele>216</ele>
        <time>2018-03-10T11:40:45Z</time>
      </trkpt>
      <trkpt lat="43.47454" lon="1.42552">
        <ele>216</ele>
        <time>2018-03-10T11:41:00Z</time>
      </trkpt>
      <trkpt lat="43.47454" lon="1.42541">
        <ele>204</ele>
        <time>2018-03-10T11:41:01Z</time>
      </trkpt>
      <trkpt lat="43.47455" lon="1.42536">
        <ele>204</ele>
        <time>2018-03-10T11:41:01Z</time>
      </trkpt>
      <trkpt lat="43.47456" lon="1.42529">
        <ele>204</ele>
        <time>2018-03-10T11:41:01Z</time>
      </trkpt>
      <trkpt lat="43.47456" lon="1.42524">
        <ele>204</ele>
        <time>2018-03-10T11:41:16Z</time>
      </trkpt>
      <trkpt lat="43.47456" lon="1.42518">
        <ele>204</ele>
        <time>2018-03-10T11:41:17Z</time>
      </trkpt>
      <trkpt lat="43.47459" lon="1.42511">
        <ele>202</ele>
        <time>2018-03-10T11:41:17Z</time>
      </trkpt>
      <trkpt lat="43.47459" lon="1.42505">
        <ele>202</ele>
        <time>2018-03-10T11:41:17Z</time>
      </trkpt>
      <trkpt lat="43.47459" lon="1.42498">
        <ele>202</ele>
        <time>2018-03-10T11:41:32Z</time>
      </trkpt>
      <trkpt lat="43.47458" lon="1.4249">
        <ele>204</ele>
        <time>2018-03-10T11:41:33Z</time>
      </trkpt>
      <trkpt lat="43.47459" lon="1.42485">
        <ele>202</ele>
        <time>2018-03-10T11:41:33Z</time>
      </trkpt>
      <trkpt lat="43.47461" lon="1.42483">
        <ele>202</ele>
        <time>2018-03-10T11:41:33Z</time>
      </trkpt>
      <trkpt lat="43.47462" lon="1.42477">
        <ele>202</ele>
        <time>2018-03-10T11:41:48Z</time>
      </trkpt>
      <trkpt lat="43.47464" lon="1.42469">
        <ele>202</ele>
        <time>2018-03-10T11:41:49Z</time>
      </trkpt>
      <trkpt lat="43.47466" lon="1.42462">
        <ele>202</ele>
        <time>2018-03-10T11:41:49Z</time>
      </trkpt>
      <trkpt lat="43.47467" lon="1.42456">
        <ele>197</ele>
        <time>2018-03-10T11:41:49Z</time>
      </trkpt>
      <trkpt lat="43.47469" lon="1.42451">
        <ele>197</ele>
        <time>2018-03-10T11:42:04Z</time>
      </trkpt>
      <trkpt lat="43.47469" lon="1.42447">
        <ele>197</ele>
        <time>2018-03-10T11:42:05Z</time>
      </trkpt>
      <trkpt lat="43.4747" lon="1.4244">
        <ele>197</ele>
        <time>2018-03-10T11:42:05Z</time>
      </trkpt>
      <trkpt lat="43.47473" lon="1.42433">
        <ele>197</ele>
        <time>2018-03-10T11:42:05Z</time>
      </trkpt>
      <trkpt lat="43.47473" lon="1.42426">
        <ele>197</ele>
        <time>2018-03-10T11:42:20Z</time>
      </trkpt>
      <trkpt lat="43.47472" lon="1.4242">
        <ele>197</ele>
        <time>2018-03-10T11:42:21Z</time>
      </trkpt>
      <trkpt lat="43.47473" lon="1.42414">
        <ele>197</ele>
        <time>2018-03-10T11:42:21Z</time>
      </trkpt>
      <trkpt lat="43.47476" lon="1.42408">
        <ele>197</ele>
        <time>2018-03-10T11:42:21Z</time>
      </trkpt>
      <trkpt lat="43.4748" lon="1.42401">
        <ele>197</ele>
        <time>2018-03-10T11:42:36Z</time>
      </trkpt>
      <trkpt lat="43.47481" lon="1.42394">
        <ele>197</ele>
        <time>2018-03-10T11:42:37Z</time>
      </trkpt>
      <trkpt lat="43.47483" lon="1.4239">
        <ele>197</ele>
        <time>2018-03-10T11:42:37Z</time>
      </trkpt>
      <trkpt lat="43.47487" lon="1.42385">
        <ele>197</ele>
        <time>2018-03-10T11:42:37Z</time>
      </trkpt>
      <trkpt lat="43.47488" lon="1.4238">
        <ele>197</ele>
        <time>2018-03-10T11:42:52Z</time>
      </trkpt>
      <trkpt lat="43.47489" lon="1.42375">
        <ele>197</ele>
        <time>2018-03-10T11:42:53Z</time>
      </trkpt>
      <trkpt lat="43.47493" lon="1.42367">
        <ele>193</ele>
        <time>2018-03-10T11:42:53Z</time>
      </trkpt>
      <trkpt lat="43.47494" lon="1.42362">
        <ele>193</ele>
        <time>2018-03-10T11:42:53Z</time>
      </trkpt>
      <trkpt lat="43.47495" lon="1.42354">
        <ele>193</ele>
        <time>2018-03-10T11:43:08Z</time>
      </trkpt>
      <trkpt lat="43.47497" lon="1.42349">
        <ele>193</ele>
        <time>2018-03-10T11:43:09Z</time>
      </trkpt>
      <trkpt lat="43.47498" lon="1.42344">
        <ele>193</ele>
        <time>2018-03-10T11:43:09Z</time>
      </trkpt>
      <trkpt lat="43.475" lon="1.42338">
        <ele>193</ele>
        <time>2018-03-10T11:43:09Z</time>
      </trkpt>
      <trkpt lat="43.475" lon="1.42331">
        <ele>193</ele>
        <time>2018-03-10T11:43:24Z</time>
      </trkpt>
      <trkpt lat="43.47499" lon="1.42327">
        <ele>193</ele>
        <time>2018-03-10T11:43:25Z</time>
      </trkpt>
      <trkpt lat="43.47499" lon="1.42321">
        <ele>193</ele>
        <time>2018-03-10T11:43:25Z</time>
      </trkpt>
      <trkpt lat="43.475" lon="1.42313">
        <ele>193</ele>
        <time>2018-03-10T11:43:25Z</time>
      </trkpt>
      <trkpt lat="43.47502" lon="1.42304">
        <ele>193</ele>
        <time>2018-03-10T11:43:40Z</time>
      </trkpt>
      <trkpt lat="43.47504" lon="1.423">
        <ele>193</ele>
        <time>2018-03-10T11:43:41Z</time>
      </trkpt>
      <trkpt lat="43.47505" lon="1.42291">
        <ele>189</ele>
        <time>2018-03-10T11:43:41Z</time>
      </trkpt>
      <trkpt lat="43.47505" lon="1.42286">
        <ele>189</ele>
        <time>2018-03-10T11:43:41Z</time>
      </trkpt>
      <trkpt lat="43.47506" lon="1.42282">
        <ele>189</ele>
        <time>2018-03-10T11:43:56Z</time>
      </trkpt>
      <trkpt lat="43.47508" lon="1.42276">
        <ele>189</ele>
        <time>2018-03-10T11:43:57Z</time>
      </trkpt>
      <trkpt lat="43.4751" lon="1.42268">
        <ele>189</ele>
        <time>2018-03-10T11:43:57Z</time>
      </trkpt>
      <trkpt lat="43.47511" lon="1.42266">
        <ele>189</ele>
        <time>2018-03-10T11:43:57Z</time>
      </trkpt>
      <trkpt lat="43.47509" lon="1.42257">
        <ele>189</ele>
        <time>2018-03-10T11:44:12Z</time>
      </trkpt>
      <trkpt lat="43.4751" lon="1.42251">
        <ele>189</ele>
        <time>2018-03-10T11:44:13Z</time>
      </trkpt>
      <trkpt lat="43.47511" lon="1.42245">
        <ele>189</ele>
        <time>2018-03-10T11:44:13Z</time>
      </trkpt>
      <trkpt lat="43.4751" lon="1.42241">
        <ele>189</ele>
        <time>2018-03-10T11:44:13Z</time>
      </trkpt>
      <trkpt lat="43.4751" lon="1.42233">
        <ele>189</ele>
        <time>2018-03-10T11:44:28Z</time>
      </trkpt>
      <trkpt lat="43.47511" lon="1.42229">
        <ele>189</ele>
        <time>2018-03-10T11:44:29Z</time>
      </trkpt>
      <trkpt lat="43.4751" lon="1.4222">
        <ele>189</ele>
        <time>2018-03-10T11:44:29Z</time>
      </trkpt>
      <trkpt lat="43.4751" lon="1.42211">
        <ele>189</ele>
        <time>2018-03-10T11:44:29Z</time>
      </trkpt>
      <trkpt lat="43.47512" lon="1.42205">
        <ele>186</ele>
        <time>2018-03-10T11:44:44Z</time>
      </trkpt>
      <trkpt lat="43.47514" lon="1.42198">
        <ele>186</ele>
        <time>2018-03-10T11:44:45Z</time>
      </trkpt>
      <trkpt lat="43.47517" lon="1.42193">
        <ele>186</ele>
        <time>2018-03-10T11:44:45Z</time>
      </trkpt>
      <trkpt lat="43.47519" lon="1.4219">
        <ele>186</ele>
        <time>2018-03-10T11:44:45Z</time>
      </trkpt>
      <trkpt lat="43.47519" lon="1.42183">
        <ele>186</ele>
        <time>2018-03-10T11:45:00Z</time>
      </trkpt>
      <trkpt lat="43.4752" lon="1.42178">
        <ele>186</ele>
        <time>2018-03-10T11:45:01Z</time>
      </trkpt>
      <trkpt lat="43.4752" lon="1.4217">
        <ele>186</ele>
        <time>2018-03-10T11:45:01Z</time>
      </trkpt>
      <trkpt lat="43.47523" lon="1.42166">
        <ele>186</ele>
        <time>2018-03-10T11:45:01Z</time>
      </trkpt>
      <trkpt lat="43.47527" lon="1.42161">
        <ele>186</ele>
        <time>2018-03-10T11:45:16Z</time>
      </trkpt>
      <trkpt lat="43.47528" lon="1.42157">
        <ele>186</ele>
        <time>2018-03-10T11:45:17Z</time>
      </trkpt>
      <trkpt lat="43.47531" lon="1.42153">
        <ele>186</ele>
        <time>2018-03-10T11:45:17Z</time>
      </trkpt>
      <trkpt lat="43.47535" lon="1.42148">
        <ele>186</ele>
        <time>2018-03-10T11:45:17Z</time>
      </trkpt>
      <trkpt lat="43.47539" lon="1.42142">
        <ele>186</ele>
        <time>2018-03-10T11:45:32Z</time>
      </trkpt>
      <trkpt lat="43.47541" lon="1.42136">
        <ele>186</ele>
        <time>2018-03-10T11:45:33Z</time>
      </trkpt>
      <trkpt lat="43.47543" lon="1.4213">
        <ele>179</ele>
        <time>2018-03-10T11:45:33Z</time>
      </trkpt>
      <trkpt lat="43.47545" lon="1.42124">
        <ele>174</ele>
        <time>2018-03-10T11:45:33Z</time>
      </trkpt>
      <trkpt lat="43.47549" lon="1.4212">
        <ele>174</ele>
        <time>2018-03-10T11:45:48Z</time>
      </trkpt>
      <trkpt lat="43.47553" lon="1.42118">
        <ele>174</ele>
        <time>2018-03-10T11:45:49Z</time>
      </trkpt>
      <trkpt lat="43.47555" lon="1.42114">
        <ele>174</ele>
        <time>2018-03-10T11:45:49Z</time>
      </trkpt>
      <trkpt lat="43.47558" lon="1.4211">
        <ele>174</ele>
        <time>2018-03-10T11:45:49Z</time>
      </trkpt>
      <trkpt lat="43.47562" lon="1.42105">
        <ele>174</ele>
        <time>2018-03-10T11:46:04Z</time>
      </trkpt>
      <trkpt lat="43.47567" lon="1.42097">
        <ele>174</ele>
        <time>2018-03-10T11:46:05Z</time>
      </trkpt>
      <trkpt lat="43.47569" lon="1.42093">
        <ele>174</ele>
        <time>2018-03-10T11:46:05Z</time>
      </trkpt>
      <trkpt lat="43.47571" lon="1.42089">
        <ele>174</ele>
        <time>2018-03-10T11:46:05Z</time>
      </trkpt>
      <trkpt lat="43.47574" lon="1.42084">
        <ele>174</ele>
        <time>2018-03-10T11:46:20Z</time>
      </trkpt>
      <trkpt lat="43.47576" lon="1.42078">
        <ele>174</ele>
        <time>2018-03-10T11:46:21Z</time>
      </trkpt>
      <trkpt lat="43.47578" lon="1.42073">
        <ele>174</ele>
        <time>2018-03-10T11:46:21Z</time>
      </trkpt>
      <trkpt lat="43.47581" lon="1.4207">
        <ele>174</ele>
        <time>2018-03-10T11:46:21Z</time>
      </trkpt>
      <trkpt lat="43.47582" lon="1.42067">
        <ele>174</ele>
        <time>2018-03-10T11:46:44Z</time>
      </trkpt>
      <trkpt lat="43.47583" lon="1.42066">
        <ele>174</ele>
        <time>2018-03-10T11:46:45Z</time>
      </trkpt>
      <trkpt lat="43.47585" lon="1.42061">
        <ele>174</ele>
        <time>2018-03-10T11:46:45Z</time>
      </trkpt>
      <trkpt lat="43.47586" lon="1.4206">
        <ele>174</ele>
        <time>2018-03-10T11:46:45Z</time>
      </trkpt>
      <trkpt lat="43.47586" lon="1.42058">
        <ele>174</ele>
        <time>2018-03-10T11:46:45Z</time>
      </trkpt>
      <trkpt lat="43.4759" lon="1.42053">
        <ele>174</ele>
        <time>2018-03-10T11:48:24Z</time>
      </trkpt>
      <trkpt lat="43.47591" lon="1.42053">
        <ele>174</ele>
        <time>2018-03-10T11:48:25Z</time>
      </trkpt>
      <trkpt lat="43.47591" lon="1.42053">
        <ele>174</ele>
        <time>2018-03-10T11:48:25Z</time>
      </trkpt>
      <trkpt lat="43.47592" lon="1.4205">
        <ele>174</ele>
        <time>2018-03-10T11:48:25Z</time>
      </trkpt>
      <trkpt lat="43.47593" lon="1.42045">
        <ele>174</ele>
        <time>2018-03-10T11:48:25Z</time>
      </trkpt>
      <trkpt lat="43.47593" lon="1.42041">
        <ele>165</ele>
        <time>2018-03-10T11:48:40Z</time>
      </trkpt>
      <trkpt lat="43.47592" lon="1.42034">
        <ele>165</ele>
        <time>2018-03-10T11:48:41Z</time>
      </trkpt>
      <trkpt lat="43.47591" lon="1.4203">
        <ele>165</ele>
        <time>2018-03-10T11:48:41Z</time>
      </trkpt>
      <trkpt lat="43.4759" lon="1.42028">
        <ele>165</ele>
        <time>2018-03-10T11:48:41Z</time>
      </trkpt>
      <trkpt lat="43.47589" lon="1.42023">
        <ele>165</ele>
        <time>2018-03-10T11:48:56Z</time>
      </trkpt>
      <trkpt lat="43.47588" lon="1.42018">
        <ele>165</ele>
        <time>2018-03-10T11:48:57Z</time>
      </trkpt>
      <trkpt lat="43.47586" lon="1.42009">
        <ele>165</ele>
        <time>2018-03-10T11:48:57Z</time>
      </trkpt>
      <trkpt lat="43.47584" lon="1.42005">
        <ele>165</ele>
        <time>2018-03-10T11:48:57Z</time>
      </trkpt>
      <trkpt lat="43.47582" lon="1.42">
        <ele>165</ele>
        <time>2018-03-10T11:49:12Z</time>
      </trkpt>
      <trkpt lat="43.47579" lon="1.41996">
        <ele>165</ele>
        <time>2018-03-10T11:49:13Z</time>
      </trkpt>
      <trkpt lat="43.47577" lon="1.4199">
        <ele>165</ele>
        <time>2018-03-10T11:49:13Z</time>
      </trkpt>
      <trkpt lat="43.47573" lon="1.41986">
        <ele>165</ele>
        <time>2018-03-10T11:49:13Z</time>
      </trkpt>
      <trkpt lat="43.47569" lon="1.41984">
        <ele>165</ele>
        <time>2018-03-10T11:49:28Z</time>
      </trkpt>
      <trkpt lat="43.47567" lon="1.41978">
        <ele>165</ele>
        <time>2018-03-10T11:49:29Z</time>
      </trkpt>
      <trkpt lat="43.47564" lon="1.41973">
        <ele>165</ele>
        <time>2018-03-10T11:49:29Z</time>
      </trkpt>
      <trkpt lat="43.47561" lon="1.41972">
        <ele>165</ele>
        <time>2018-03-10T11:49:29Z</time>
      </trkpt>
      <trkpt lat="43.47557" lon="1.41968">
        <ele>165</ele>
        <time>2018-03-10T11:49:44Z</time>
      </trkpt>
      <trkpt lat="43.47554" lon="1.41965">
        <ele>165</ele>
        <time>2018-03-10T11:49:45Z</time>
      </trkpt>
      <trkpt lat="43.47547" lon="1.41959">
        <ele>165</ele>
        <time>2018-03-10T11:49:45Z</time>
      </trkpt>
      <trkpt lat="43.47542" lon="1.41957">
        <ele>157</ele>
        <time>2018-03-10T11:49:45Z</time>
      </trkpt>
      <trkpt lat="43.47538" lon="1.41957">
        <ele>159</ele>
        <time>2018-03-10T11:50:00Z</time>
      </trkpt>
      <trkpt lat="43.47534" lon="1.41957">
        <ele>159</ele>
        <time>2018-03-10T11:50:01Z</time>
      </trkpt>
      <trkpt lat="43.4753" lon="1.41957">
        <ele>159</ele>
        <time>2018-03-10T11:50:01Z</time>
      </trkpt>
      <trkpt lat="43.47524" lon="1.41957">
        <ele>159</ele>
        <time>2018-03-10T11:50:01Z</time>
      </trkpt>
      <trkpt lat="43.4752" lon="1.41956">
        <ele>159</ele>
        <time>2018-03-10T11:50:16Z</time>
      </trkpt>
      <trkpt lat="43.47515" lon="1.41954">
        <ele>159</ele>
        <time>2018-03-10T11:50:17Z</time>
      </trkpt>
      <trkpt lat="43.4751" lon="1.41956">
        <ele>159</ele>
        <time>2018-03-10T11:50:17Z</time>
      </trkpt>
      <trkpt lat="43.47507" lon="1.41957">
        <ele>159</ele>
        <time>2018-03-10T11:50:17Z</time>
      </trkpt>
      <trkpt lat="43.47503" lon="1.41959">
        <ele>164</ele>
        <time>2018-03-10T11:50:32Z</time>
      </trkpt>
      <trkpt lat="43.475" lon="1.41962">
        <ele>164</ele>
        <time>2018-03-10T11:50:33Z</time>
      </trkpt>
      <trkpt lat="43.47496" lon="1.41965">
        <ele>164</ele>
        <time>2018-03-10T11:50:33Z</time>
      </trkpt>
      <trkpt lat="43.47492" lon="1.41968">
        <ele>164</ele>
        <time>2018-03-10T11:50:33Z</time>
      </trkpt>
      <trkpt lat="43.47489" lon="1.41969">
        <ele>164</ele>
        <time>2018-03-10T11:50:48Z</time>
      </trkpt>
      <trkpt lat="43.47483" lon="1.41969">
        <ele>164</ele>
        <time>2018-03-10T11:50:49Z</time>
      </trkpt>
      <trkpt lat="43.4748" lon="1.4197">
        <ele>164</ele>
        <time>2018-03-10T11:50:49Z</time>
      </trkpt>
      <trkpt lat="43.47476" lon="1.41971">
        <ele>164</ele>
        <time>2018-03-10T11:50:49Z</time>
      </trkpt>
      <trkpt lat="43.47472" lon="1.41972">
        <ele>164</ele>
        <time>2018-03-10T11:51:04Z</time>
      </trkpt>
      <trkpt lat="43.4747" lon="1.41972">
        <ele>164</ele>
        <time>2018-03-10T11:51:05Z</time>
      </trkpt>
      <trkpt lat="43.47466" lon="1.41974">
        <ele>164</ele>
        <time>2018-03-10T11:51:05Z</time>
      </trkpt>
      <trkpt lat="43.47461" lon="1.41976">
        <ele>164</ele>
        <time>2018-03-10T11:51:05Z</time>
      </trkpt>
      <trkpt lat="43.47457" lon="1.41978">
        <ele>164</ele>
        <time>2018-03-10T11:51:20Z</time>
      </trkpt>
      <trkpt lat="43.47451" lon="1.41981">
        <ele>164</ele>
        <time>2018-03-10T11:51:21Z</time>
      </trkpt>
      <trkpt lat="43.47448" lon="1.41981">
        <ele>164</ele>
        <time>2018-03-10T11:51:21Z</time>
      </trkpt>
      <trkpt lat="43.47442" lon="1.41984">
        <ele>164</ele>
        <time>2018-03-10T11:51:21Z</time>
      </trkpt>
      <trkpt lat="43.47438" lon="1.41986">
        <ele>164</ele>
        <time>2018-03-10T11:51:36Z</time>
      </trkpt>
      <trkpt lat="43.47432" lon="1.41987">
        <ele>164</ele>
        <time>2018-03-10T11:51:37Z</time>
      </trkpt>
      <trkpt lat="43.47428" lon="1.41988">
        <ele>164</ele>
        <time>2018-03-10T11:51:37Z</time>
      </trkpt>
      <trkpt lat="43.47425" lon="1.41989">
        <ele>164</ele>
        <time>2018-03-10T11:51:37Z</time>
      </trkpt>
      <trkpt lat="43.47419" lon="1.41992">
        <ele>164</ele>
        <time>2018-03-10T11:52:00Z</time>
      </trkpt>
      <trkpt lat="43.47418" lon="1.41992">
        <ele>164</ele>
        <time>2018-03-10T11:52:01Z</time>
      </trkpt>
      <trkpt lat="43.47417" lon="1.41992">
        <ele>164</ele>
        <time>2018-03-10T11:52:01Z</time>
      </trkpt>
      <trkpt lat="43.47412" lon="1.41993">
        <ele>164</ele>
        <time>2018-03-10T11:52:01Z</time>
      </trkpt>
      <trkpt lat="43.47406" lon="1.41996">
        <ele>164</ele>
        <time>2018-03-10T11:52:01Z</time>
      </trkpt>
      <trkpt lat="43.47402" lon="1.41996">
        <ele>164</ele>
        <time>2018-03-10T11:52:16Z</time>
      </trkpt>
      <trkpt lat="43.47395" lon="1.41999">
        <ele>164</ele>
        <time>2018-03-10T11:52:17Z</time>
      </trkpt>
      <trkpt lat="43.4739" lon="1.42002">
        <ele>164</ele>
        <time>2018-03-10T11:52:17Z</time>
      </trkpt>
      <trkpt lat="43.47386" lon="1.42005">
        <ele>164</ele>
        <time>2018-03-10T11:52:17Z</time>
      </trkpt>
      <trkpt lat="43.47381" lon="1.42007">
        <ele>164</ele>
        <time>2018-03-10T11:52:32Z</time>
      </trkpt>
      <trkpt lat="43.47377" lon="1.42008">
        <ele>164</ele>
        <time>2018-03-10T11:52:33Z</time>
      </trkpt>
      <trkpt lat="43.47372" lon="1.42011">
        <ele>162</ele>
        <time>2018-03-10T11:52:33Z</time>
      </trkpt>
      <trkpt lat="43.47368" lon="1.42012">
        <ele>162</ele>
        <time>2018-03-10T11:52:33Z</time>
      </trkpt>
      <trkpt lat="43.47363" lon="1.42016">
        <ele>162</ele>
        <time>2018-03-10T11:52:48Z</time>
      </trkpt>
      <trkpt lat="43.47356" lon="1.42017">
        <ele>162</ele>
        <time>2018-03-10T11:52:49Z</time>
      </trkpt>
      <trkpt lat="43.47352" lon="1.42018">
        <ele>162</ele>
        <time>2018-03-10T11:52:49Z</time>
      </trkpt>
      <trkpt lat="43.47344" lon="1.42015">
        <ele>162</ele>
        <time>2018-03-10T11:52:49Z</time>
      </trkpt>
      <trkpt lat="43.47339" lon="1.42012">
        <ele>162</ele>
        <time>2018-03-10T11:53:04Z</time>
      </trkpt>
      <trkpt lat="43.47338" lon="1.42017">
        <ele>162</ele>
        <time>2018-03-10T11:53:05Z</time>
      </trkpt>
      <trkpt lat="43.47335" lon="1.42021">
        <ele>162</ele>
        <time>2018-03-10T11:53:05Z</time>
      </trkpt>
      <trkpt lat="43.4733" lon="1.42023">
        <ele>162</ele>
        <time>2018-03-10T11:53:05Z</time>
      </trkpt>
      <trkpt lat="43.47323" lon="1.42022">
        <ele>162</ele>
        <time>2018-03-10T11:53:20Z</time>
      </trkpt>
      <trkpt lat="43.47319" lon="1.42022">
        <ele>162</ele>
        <time>2018-03-10T11:53:21Z</time>
      </trkpt>
      <trkpt lat="43.47315" lon="1.42023">
        <ele>162</ele>
        <time>2018-03-10T11:53:21Z</time>
      </trkpt>
      <trkpt lat="43.47309" lon="1.42021">
        <ele>162</ele>
        <time>2018-03-10T11:53:21Z</time>
      </trkpt>
      <trkpt lat="43.47303" lon="1.42021">
        <ele>162</ele>
        <time>2018-03-10T11:53:36Z</time>
      </trkpt>
      <trkpt lat="43.47299" lon="1.42022">
        <ele>162</ele>
        <time>2018-03-10T11:53:37Z</time>
      </trkpt>
      <trkpt lat="43.47296" lon="1.42024">
        <ele>162</ele>
        <time>2018-03-10T11:53:37Z</time>
      </trkpt>
      <trkpt lat="43.4729" lon="1.42025">
        <ele>159</ele>
        <time>2018-03-10T11:53:37Z</time>
      </trkpt>
      <trkpt lat="43.47284" lon="1.42026">
        <ele>159</ele>
        <time>2018-03-10T11:53:52Z</time>
      </trkpt>
      <trkpt lat="43.4728" lon="1.42026">
        <ele>159</ele>
        <time>2018-03-10T11:53:53Z</time>
      </trkpt>
      <trkpt lat="43.47273" lon="1.42027">
        <ele>159</ele>
        <time>2018-03-10T11:53:53Z</time>
      </trkpt>
      <trkpt lat="43.47268" lon="1.42027">
        <ele>159</ele>
        <time>2018-03-10T11:53:53Z</time>
      </trkpt>
      <trkpt lat="43.47265" lon="1.42026">
        <ele>159</ele>
        <time>2018-03-10T11:54:08Z</time>
      </trkpt>
      <trkpt lat="43.4726" lon="1.42028">
        <ele>159</ele>
        <time>2018-03-10T11:54:09Z</time>
      </trkpt>
      <trkpt lat="43.47257" lon="1.42029">
        <ele>159</ele>
        <time>2018-03-10T11:54:09Z</time>
      </trkpt>
      <trkpt lat="43.47252" lon="1.4203">
        <ele>159</ele>
        <time>2018-03-10T11:54:09Z</time>
      </trkpt>
      <trkpt lat="43.47247" lon="1.42032">
        <ele>159</ele>
        <time>2018-03-10T11:54:24Z</time>
      </trkpt>
      <trkpt lat="43.47242" lon="1.42032">
        <ele>159</ele>
        <time>2018-03-10T11:54:25Z</time>
      </trkpt>
      <trkpt lat="43.47235" lon="1.42032">
        <ele>159</ele>
        <time>2018-03-10T11:54:25Z</time>
      </trkpt>
      <trkpt lat="43.4723" lon="1.42032">
        <ele>159</ele>
        <time>2018-03-10T11:54:25Z</time>
      </trkpt>
      <trkpt lat="43.47226" lon="1.42031">
        <ele>159</ele>
        <time>2018-03-10T11:54:40Z</time>
      </trkpt>
      <trkpt lat="43.47221" lon="1.42033">
        <ele>159</ele>
        <time>2018-03-10T11:54:41Z</time>
      </trkpt>
      <trkpt lat="43.47216" lon="1.42034">
        <ele>159</ele>
        <time>2018-03-10T11:54:41Z</time>
      </trkpt>
      <trkpt lat="43.4721" lon="1.42036">
        <ele>159</ele>
        <time>2018-03-10T11:54:41Z</time>
      </trkpt>
      <trkpt lat="43.47206" lon="1.42036">
        <ele>157</ele>
        <time>2018-03-10T11:54:56Z</time>
      </trkpt>
      <trkpt lat="43.472" lon="1.42037">
        <ele>157</ele>
        <time>2018-03-10T11:54:57Z</time>
      </trkpt>
      <trkpt lat="43.47195" lon="1.42039">
        <ele>157</ele>
        <time>2018-03-10T11:54:57Z</time>
      </trkpt>
      <trkpt lat="43.47192" lon="1.42039">
        <ele>157</ele>
        <time>2018-03-10T11:54:57Z</time>
      </trkpt>
      <trkpt lat="43.47184" lon="1.42039">
        <ele>157</ele>
        <time>2018-03-10T11:55:12Z</time>
      </trkpt>
      <trkpt lat="43.4718" lon="1.42039">
        <ele>157</ele>
        <time>2018-03-10T11:55:13Z</time>
      </trkpt>
      <trkpt lat="43.47174" lon="1.42042">
        <ele>164</ele>
        <time>2018-03-10T11:55:13Z</time>
      </trkpt>
      <trkpt lat="43.47171" lon="1.42044">
        <ele>164</ele>
        <time>2018-03-10T11:55:13Z</time>
      </trkpt>
      <trkpt lat="43.47165" lon="1.42045">
        <ele>164</ele>
        <time>2018-03-10T11:55:28Z</time>
      </trkpt>
      <trkpt lat="43.47161" lon="1.42046">
        <ele>164</ele>
        <time>2018-03-10T11:55:29Z</time>
      </trkpt>
      <trkpt lat="43.47156" lon="1.42047">
        <ele>164</ele>
        <time>2018-03-10T11:55:29Z</time>
      </trkpt>
      <trkpt lat="43.47151" lon="1.42051">
        <ele>164</ele>
        <time>2018-03-10T11:55:29Z</time>
      </trkpt>
      <trkpt lat="43.47148" lon="1.42055">
        <ele>164</ele>
        <time>2018-03-10T11:55:44Z</time>
      </trkpt>
      <trkpt lat="43.47144" lon="1.4206">
        <ele>164</ele>
        <time>2018-03-10T11:55:45Z</time>
      </trkpt>
      <trkpt lat="43.47141" lon="1.42064">
        <ele>164</ele>
        <time>2018-03-10T11:55:45Z</time>
      </trkpt>
      <trkpt lat="43.47137" lon="1.42068">
        <ele>164</ele>
        <time>2018-03-10T11:55:45Z</time>
      </trkpt>
      <trkpt lat="43.47133" lon="1.42071">
        <ele>164</ele>
        <time>2018-03-10T11:56:00Z</time>
      </trkpt>
      <trkpt lat="43.47129" lon="1.42074">
        <ele>164</ele>
        <time>2018-03-10T11:56:01Z</time>
      </trkpt>
      <trkpt lat="43.47124" lon="1.42076">
        <ele>161</ele>
        <time>2018-03-10T11:56:01Z</time>
      </trkpt>
      <trkpt lat="43.47121" lon="1.42077">
        <ele>161</ele>
        <time>2018-03-10T11:56:01Z</time>
      </trkpt>
      <trkpt lat="43.47116" lon="1.42076">
        <ele>161</ele>
        <time>2018-03-10T11:56:16Z</time>
      </trkpt>
      <trkpt lat="43.47109" lon="1.42076">
        <ele>161</ele>
        <time>2018-03-10T11:56:17Z</time>
      </trkpt>
      <trkpt lat="43.47105" lon="1.42077">
        <ele>161</ele>
        <time>2018-03-10T11:56:17Z</time>
      </trkpt>
      <trkpt lat="43.47099" lon="1.42076">
        <ele>161</ele>
        <time>2018-03-10T11:56:17Z</time>
      </trkpt>
      <trkpt lat="43.47096" lon="1.42075">
        <ele>161</ele>
        <time>2018-03-10T11:56:32Z</time>
      </trkpt>
      <trkpt lat="43.47093" lon="1.42076">
        <ele>161</ele>
        <time>2018-03-10T11:56:33Z</time>
      </trkpt>
      <trkpt lat="43.47086" lon="1.42074">
        <ele>161</ele>
        <time>2018-03-10T11:56:33Z</time>
      </trkpt>
      <trkpt lat="43.47081" lon="1.42073">
        <ele>161</ele>
        <time>2018-03-10T11:56:33Z</time>
      </trkpt>
      <trkpt lat="43.47075" lon="1.42071">
        <ele>161</ele>
        <time>2018-03-10T11:56:48Z</time>
      </trkpt>
      <trkpt lat="43.4707" lon="1.42071">
        <ele>161</ele>
        <time>2018-03-10T11:56:49Z</time>
      </trkpt>
      <trkpt lat="43.47067" lon="1.42071">
        <ele>161</ele>
        <time>2018-03-10T11:56:49Z</time>
      </trkpt>
      <trkpt lat="43.47065" lon="1.42071">
        <ele>161</ele>
        <time>2018-03-10T11:56:49Z</time>
      </trkpt>
      <trkpt lat="43.47064" lon="1.42071">
        <ele>161</ele>
        <time>2018-03-10T11:57:04Z</time>
      </trkpt>
      <trkpt lat="43.47059" lon="1.42072">
        <ele>161</ele>
        <time>2018-03-10T11:57:05Z</time>
      </trkpt>
      <trkpt lat="43.47055" lon="1.42071">
        <ele>161</ele>
        <time>2018-03-10T11:57:05Z</time>
      </trkpt>
      <trkpt lat="43.47049" lon="1.42071">
        <ele>161</ele>
        <time>2018-03-10T11:57:05Z</time>
      </trkpt>
      <trkpt lat="43.47044" lon="1.42069">
        <ele>161</ele>
        <time>2018-03-10T11:57:20Z</time>
      </trkpt>
      <trkpt lat="43.47037" lon="1.4207">
        <ele>162</ele>
        <time>2018-03-10T11:57:21Z</time>
      </trkpt>
      <trkpt lat="43.47033" lon="1.42069">
        <ele>162</ele>
        <time>2018-03-10T11:57:21Z</time>
      </trkpt>
      <trkpt lat="43.47029" lon="1.4207">
        <ele>162</ele>
        <time>2018-03-10T11:57:21Z</time>
      </trkpt>
      <trkpt lat="43.47024" lon="1.42071">
        <ele>162</ele>
        <time>2018-03-10T11:57:36Z</time>
      </trkpt>
      <trkpt lat="43.4702" lon="1.42071">
        <ele>162</ele>
        <time>2018-03-10T11:57:37Z</time>
      </trkpt>
      <trkpt lat="43.47013" lon="1.42072">
        <ele>162</ele>
        <time>2018-03-10T11:57:37Z</time>
      </trkpt>
      <trkpt lat="43.47009" lon="1.42074">
        <ele>162</ele>
        <time>2018-03-10T11:57:37Z</time>
      </trkpt>
      <trkpt lat="43.47004" lon="1.42074">
        <ele>162</ele>
        <time>2018-03-10T11:57:52Z</time>
      </trkpt>
      <trkpt lat="43.46997" lon="1.42074">
        <ele>162</ele>
        <time>2018-03-10T11:57:53Z</time>
      </trkpt>
      <trkpt lat="43.46994" lon="1.42074">
        <ele>162</ele>
        <time>2018-03-10T11:57:53Z</time>
      </trkpt>
      <trkpt lat="43.46989" lon="1.42078">
        <ele>162</ele>
        <time>2018-03-10T11:57:53Z</time>
      </trkpt>
      <trkpt lat="43.46986" lon="1.4208">
        <ele>162</ele>
        <time>2018-03-10T11:58:08Z</time>
      </trkpt>
      <trkpt lat="43.46982" lon="1.42082">
        <ele>162</ele>
        <time>2018-03-10T11:58:09Z</time>
      </trkpt>
      <trkpt lat="43.46977" lon="1.42085">
        <ele>162</ele>
        <time>2018-03-10T11:58:09Z</time>
      </trkpt>
      <trkpt lat="43.46975" lon="1.42087">
        <ele>162</ele>
        <time>2018-03-10T11:58:09Z</time>
      </trkpt>
      <trkpt lat="43.46972" lon="1.4209">
        <ele>162</ele>
        <time>2018-03-10T11:58:24Z</time>
      </trkpt>
      <trkpt lat="43.46967" lon="1.42094">
        <ele>162</ele>
        <time>2018-03-10T11:58:25Z</time>
      </trkpt>
      <trkpt lat="43.46962" lon="1.42095">
        <ele>162</ele>
        <time>2018-03-10T11:58:25Z</time>
      </trkpt>
      <trkpt lat="43.46957" lon="1.42095">
        <ele>157</ele>
        <time>2018-03-10T11:58:25Z</time>
      </trkpt>
      <trkpt lat="43.46953" lon="1.42097">
        <ele>157</ele>
        <time>2018-03-10T11:58:40Z</time>
      </trkpt>
      <trkpt lat="43.46948" lon="1.42099">
        <ele>157</ele>
        <time>2018-03-10T11:58:41Z</time>
      </trkpt>
      <trkpt lat="43.46943" lon="1.42101">
        <ele>157</ele>
        <time>2018-03-10T11:58:41Z</time>
      </trkpt>
      <trkpt lat="43.4694" lon="1.42104">
        <ele>157</ele>
        <time>2018-03-10T11:58:41Z</time>
      </trkpt>
      <trkpt lat="43.46934" lon="1.42105">
        <ele>157</ele>
        <time>2018-03-10T11:58:56Z</time>
      </trkpt>
      <trkpt lat="43.46931" lon="1.42104">
        <ele>157</ele>
        <time>2018-03-10T11:58:57Z</time>
      </trkpt>
      <trkpt lat="43.46925" lon="1.42105">
        <ele>157</ele>
        <time>2018-03-10T11:58:57Z</time>
      </trkpt>
      <trkpt lat="43.46919" lon="1.42107">
        <ele>157</ele>
        <time>2018-03-10T11:58:57Z</time>
      </trkpt>
      <trkpt lat="43.46915" lon="1.42108">
        <ele>157</ele>
        <time>2018-03-10T11:59:12Z</time>
      </trkpt>
      <trkpt lat="43.46909" lon="1.42108">
        <ele>157</ele>
        <time>2018-03-10T11:59:13Z</time>
      </trkpt>
      <trkpt lat="43.46906" lon="1.42108">
        <ele>157</ele>
        <time>2018-03-10T11:59:13Z</time>
      </trkpt>
      <trkpt lat="43.469" lon="1.42107">
        <ele>157</ele>
        <time>2018-03-10T11:59:13Z</time>
      </trkpt>
      <trkpt lat="43.46894" lon="1.42105">
        <ele>157</ele>
        <time>2018-03-10T11:59:28Z</time>
      </trkpt>
      <trkpt lat="43.46891" lon="1.42106">
        <ele>157</ele>
        <time>2018-03-10T11:59:29Z</time>
      </trkpt>
      <trkpt lat="43.46886" lon="1.42107">
        <ele>157</ele>
        <time>2018-03-10T11:59:29Z</time>
      </trkpt>
      <trkpt lat="43.46883" lon="1.42107">
        <ele>157</ele>
        <time>2018-03-10T11:59:29Z</time>
      </trkpt>
      <trkpt lat="43.46878" lon="1.42106">
        <ele>157</ele>
        <time>2018-03-10T11:59:44Z</time>
      </trkpt>
      <trkpt lat="43.46872" lon="1.42104">
        <ele>157</ele>
        <time>2018-03-10T11:59:45Z</time>
      </trkpt>
      <trkpt lat="43.46865" lon="1.42103">
        <ele>157</ele>
        <time>2018-03-10T11:59:45Z</time>
      </trkpt>
      <trkpt lat="43.46861" lon="1.42104">
        <ele>157</ele>
        <time>2018-03-10T11:59:45Z</time>
      </trkpt>
      <trkpt lat="43.46857" lon="1.42105">
        <ele>157</ele>
        <time>2018-03-10T12:00:00Z</time>
      </trkpt>
      <trkpt lat="43.4685" lon="1.42104">
        <ele>157</ele>
        <time>2018-03-10T12:00:01Z</time>
      </trkpt>
      <trkpt lat="43.46846" lon="1.42104">
        <ele>157</ele>
        <time>2018-03-10T12:00:01Z</time>
      </trkpt>
      <trkpt lat="43.46842" lon="1.42106">
        <ele>157</ele>
        <time>2018-03-10T12:00:01Z</time>
      </trkpt>
      <trkpt lat="43.46837" lon="1.42107">
        <ele>157</ele>
        <time>2018-03-10T12:00:16Z</time>
      </trkpt>
      <trkpt lat="43.46832" lon="1.42107">
        <ele>157</ele>
        <time>2018-03-10T12:00:17Z</time>
      </trkpt>
      <trkpt lat="43.46829" lon="1.42105">
        <ele>157</ele>
        <time>2018-03-10T12:00:17Z</time>
      </trkpt>
      <trkpt lat="43.46824" lon="1.42105">
        <ele>157</ele>
        <time>2018-03-10T12:00:17Z</time>
      </trkpt>
      <trkpt lat="43.4682" lon="1.42106">
        <ele>157</ele>
        <time>2018-03-10T12:00:32Z</time>
      </trkpt>
      <trkpt lat="43.46815" lon="1.42106">
        <ele>157</ele>
        <time>2018-03-10T12:00:33Z</time>
      </trkpt>
      <trkpt lat="43.4681" lon="1.42105">
        <ele>157</ele>
        <time>2018-03-10T12:00:33Z</time>
      </trkpt>
      <trkpt lat="43.46803" lon="1.42104">
        <ele>157</ele>
        <time>2018-03-10T12:00:33Z</time>
      </trkpt>
      <trkpt lat="43.46799" lon="1.42104">
        <ele>157</ele>
        <time>2018-03-10T12:00:48Z</time>
      </trkpt>
      <trkpt lat="43.46791" lon="1.42103">
        <ele>157</ele>
        <time>2018-03-10T12:00:49Z</time>
      </trkpt>
      <trkpt lat="43.46787" lon="1.42104">
        <ele>157</ele>
        <time>2018-03-10T12:00:49Z</time>
      </trkpt>
      <trkpt lat="43.46785" lon="1.42107">
        <ele>157</ele>
        <time>2018-03-10T12:00:49Z</time>
      </trkpt>
      <trkpt lat="43.46781" lon="1.4211">
        <ele>157</ele>
        <time>2018-03-10T12:01:04Z</time>
      </trkpt>
      <trkpt lat="43.46777" lon="1.42111">
        <ele>157</ele>
        <time>2018-03-10T12:01:05Z</time>
      </trkpt>
      <trkpt lat="43.46772" lon="1.42112">
        <ele>157</ele>
        <time>2018-03-10T12:01:05Z</time>
      </trkpt>
      <trkpt lat="43.46765" lon="1.42112">
        <ele>157</ele>
        <time>2018-03-10T12:01:05Z</time>
      </trkpt>
      <trkpt lat="43.46761" lon="1.42112">
        <ele>157</ele>
        <time>2018-03-10T12:01:20Z</time>
      </trkpt>
      <trkpt lat="43.46757" lon="1.42113">
        <ele>157</ele>
        <time>2018-03-10T12:01:21Z</time>
      </trkpt>
      <trkpt lat="43.46753" lon="1.42115">
        <ele>157</ele>
        <time>2018-03-10T12:01:21Z</time>
      </trkpt>
      <trkpt lat="43.46749" lon="1.4212">
        <ele>157</ele>
        <time>2018-03-10T12:01:21Z</time>
      </trkpt>
      <trkpt lat="43.46744" lon="1.42122">
        <ele>157</ele>
        <time>2018-03-10T12:01:36Z</time>
      </trkpt>
      <trkpt lat="43.46739" lon="1.42125">
        <ele>159</ele>
        <time>2018-03-10T12:01:37Z</time>
      </trkpt>
      <trkpt lat="43.46735" lon="1.42126">
        <ele>159</ele>
        <time>2018-03-10T12:01:37Z</time>
      </trkpt>
      <trkpt lat="43.46728" lon="1.42126">
        <ele>159</ele>
        <time>2018-03-10T12:01:37Z</time>
      </trkpt>
      <trkpt lat="43.46724" lon="1.42127">
        <ele>159</ele>
        <time>2018-03-10T12:01:52Z</time>
      </trkpt>
      <trkpt lat="43.46717" lon="1.42127">
        <ele>159</ele>
        <time>2018-03-10T12:01:53Z</time>
      </trkpt>
      <trkpt lat="43.46713" lon="1.4213">
        <ele>159</ele>
        <time>2018-03-10T12:01:53Z</time>
      </trkpt>
      <trkpt lat="43.46708" lon="1.42131">
        <ele>158</ele>
        <time>2018-03-10T12:01:53Z</time>
      </trkpt>
      <trkpt lat="43.46703" lon="1.42133">
        <ele>158</ele>
        <time>2018-03-10T12:02:08Z</time>
      </trkpt>
      <trkpt lat="43.467" lon="1.42135">
        <ele>158</ele>
        <time>2018-03-10T12:02:09Z</time>
      </trkpt>
      <trkpt lat="43.46696" lon="1.42137">
        <ele>158</ele>
        <time>2018-03-10T12:02:09Z</time>
      </trkpt>
      <trkpt lat="43.46691" lon="1.42139">
        <ele>158</ele>
        <time>2018-03-10T12:02:09Z</time>
      </trkpt>
      <trkpt lat="43.46686" lon="1.42142">
        <ele>158</ele>
        <time>2018-03-10T12:02:24Z</time>
      </trkpt>
      <trkpt lat="43.46683" lon="1.42144">
        <ele>158</ele>
        <time>2018-03-10T12:02:25Z</time>
      </trkpt>
      <trkpt lat="43.46678" lon="1.42145">
        <ele>158</ele>
        <time>2018-03-10T12:02:25Z</time>
      </trkpt>
      <trkpt lat="43.46672" lon="1.42147">
        <ele>158</ele>
        <time>2018-03-10T12:02:25Z</time>
      </trkpt>
      <trkpt lat="43.46668" lon="1.42147">
        <ele>158</ele>
        <time>2018-03-10T12:02:40Z</time>
      </trkpt>
      <trkpt lat="43.46662" lon="1.42149">
        <ele>158</ele>
        <time>2018-03-10T12:02:41Z</time>
      </trkpt>
      <trkpt lat="43.46658" lon="1.42151">
        <ele>158</ele>
        <time>2018-03-10T12:02:41Z</time>
      </trkpt>
      <trkpt lat="43.46652" lon="1.42151">
        <ele>158</ele>
        <time>2018-03-10T12:02:41Z</time>
      </trkpt>
      <trkpt lat="43.46649" lon="1.42152">
        <ele>158</ele>
        <time>2018-03-10T12:02:56Z</time>
      </trkpt>
      <trkpt lat="43.46644" lon="1.42155">
        <ele>158</ele>
        <time>2018-03-10T12:02:57Z</time>
      </trkpt>
      <trkpt lat="43.4664" lon="1.42158">
        <ele>158</ele>
        <time>2018-03-10T12:02:57Z</time>
      </trkpt>
      <trkpt lat="43.46636" lon="1.4216">
        <ele>158</ele>
        <time>2018-03-10T12:02:57Z</time>
      </trkpt>
      <trkpt lat="43.46632" lon="1.42163">
        <ele>158</ele>
        <time>2018-03-10T12:03:12Z</time>
      </trkpt>
      <trkpt lat="43.46628" lon="1.42166">
        <ele>158</ele>
        <time>2018-03-10T12:03:13Z</time>
      </trkpt>
      <trkpt lat="43.46624" lon="1.42167">
        <ele>158</ele>
        <time>2018-03-10T12:03:13Z</time>
      </trkpt>
      <trkpt lat="43.46619" lon="1.4217">
        <ele>158</ele>
        <time>2018-03-10T12:03:13Z</time>
      </trkpt>
      <trkpt lat="43.46614" lon="1.42171">
        <ele>158</ele>
        <time>2018-03-10T12:03:28Z</time>
      </trkpt>
      <trkpt lat="43.46608" lon="1.42173">
        <ele>158</ele>
        <time>2018-03-10T12:03:29Z</time>
      </trkpt>
      <trkpt lat="43.46604" lon="1.42175">
        <ele>158</ele>
        <time>2018-03-10T12:03:29Z</time>
      </trkpt>
      <trkpt lat="43.46599" lon="1.42176">
        <ele>158</ele>
        <time>2018-03-10T12:03:29Z</time>
      </trkpt>
      <trkpt lat="43.46595" lon="1.42177">
        <ele>158</ele>
        <time>2018-03-10T12:03:44Z</time>
      </trkpt>
      <trkpt lat="43.46591" lon="1.42178">
        <ele>158</ele>
        <time>2018-03-10T12:03:45Z</time>
      </trkpt>
      <trkpt lat="43.46585" lon="1.42182">
        <ele>158</ele>
        <time>2018-03-10T12:03:45Z</time>
      </trkpt>
      <trkpt lat="43.46581" lon="1.42181">
        <ele>158</ele>
        <time>2018-03-10T12:03:45Z</time>
      </trkpt>
      <trkpt lat="43.46575" lon="1.42181">
        <ele>158</ele>
        <time>2018-03-10T12:04:00Z</time>
      </trkpt>
      <trkpt lat="43.46568" lon="1.42183">
        <ele>158</ele>
        <time>2018-03-10T12:04:01Z</time>
      </trkpt>
      <trkpt lat="43.46565" lon="1.42185">
        <ele>158</ele>
        <time>2018-03-10T12:04:01Z</time>
      </trkpt>
      <trkpt lat="43.4656" lon="1.42187">
        <ele>158</ele>
        <time>2018-03-10T12:04:01Z</time>
      </trkpt>
      <trkpt lat="43.46556" lon="1.42189">
        <ele>158</ele>
        <time>2018-03-10T12:04:16Z</time>
      </trkpt>
      <trkpt lat="43.46551" lon="1.42191">
        <ele>158</ele>
        <time>2018-03-10T12:04:17Z</time>
      </trkpt>
      <trkpt lat="43.46547" lon="1.42194">
        <ele>158</ele>
        <time>2018-03-10T12:04:17Z</time>
      </trkpt>
      <trkpt lat="43.46542" lon="1.42194">
        <ele>158</ele>
        <time>2018-03-10T12:04:17Z</time>
      </trkpt>
      <trkpt lat="43.46536" lon="1.42195">
        <ele>158</ele>
        <time>2018-03-10T12:04:32Z</time>
      </trkpt>
      <trkpt lat="43.46531" lon="1.42197">
        <ele>158</ele>
        <time>2018-03-10T12:04:33Z</time>
      </trkpt>
      <trkpt lat="43.46526" lon="1.42199">
        <ele>158</ele>
        <time>2018-03-10T12:04:33Z</time>
      </trkpt>
      <trkpt lat="43.46521" lon="1.42203">
        <ele>158</ele>
        <time>2018-03-10T12:04:33Z</time>
      </trkpt>
      <trkpt lat="43.46518" lon="1.42204">
        <ele>158</ele>
        <time>2018-03-10T12:04:48Z</time>
      </trkpt>
      <trkpt lat="43.46512" lon="1.42208">
        <ele>158</ele>
        <time>2018-03-10T12:04:49Z</time>
      </trkpt>
      <trkpt lat="43.46509" lon="1.42209">
        <ele>158</ele>
        <time>2018-03-10T12:04:49Z</time>
      </trkpt>
      <trkpt lat="43.46504" lon="1.42209">
        <ele>158</ele>
        <time>2018-03-10T12:04:49Z</time>
      </trkpt>
      <trkpt lat="43.46499" lon="1.4221">
        <ele>158</ele>
        <time>2018-03-10T12:05:04Z</time>
      </trkpt>
      <trkpt lat="43.46494" lon="1.42211">
        <ele>158</ele>
        <time>2018-03-10T12:05:05Z</time>
      </trkpt>
      <trkpt lat="43.4649" lon="1.42213">
        <ele>158</ele>
        <time>2018-03-10T12:05:05Z</time>
      </trkpt>
      <trkpt lat="43.46487" lon="1.42215">
        <ele>158</ele>
        <time>2018-03-10T12:05:05Z</time>
      </trkpt>
      <trkpt lat="43.46481" lon="1.42218">
        <ele>158</ele>
        <time>2018-03-10T12:05:20Z</time>
      </trkpt>
      <trkpt lat="43.46478" lon="1.42222">
        <ele>158</ele>
        <time>2018-03-10T12:05:21Z</time>
      </trkpt>
      <trkpt lat="43.46473" lon="1.42224">
        <ele>158</ele>
        <time>2018-03-10T12:05:21Z</time>
      </trkpt>
      <trkpt lat="43.46469" lon="1.42225">
        <ele>158</ele>
        <time>2018-03-10T12:05:21Z</time>
      </trkpt>
      <trkpt lat="43.46464" lon="1.42227">
        <ele>158</ele>
        <time>2018-03-10T12:05:36Z</time>
      </trkpt>
      <trkpt lat="43.46459" lon="1.42229">
        <ele>158</ele>
        <time>2018-03-10T12:05:37Z</time>
      </trkpt>
      <trkpt lat="43.46456" lon="1.42231">
        <ele>158</ele>
        <time>2018-03-10T12:05:37Z</time>
      </trkpt>
      <trkpt lat="43.46451" lon="1.42233">
        <ele>158</ele>
        <time>2018-03-10T12:05:37Z</time>
      </trkpt>
      <trkpt lat="43.46447" lon="1.42236">
        <ele>158</ele>
        <time>2018-03-10T12:05:52Z</time>
      </trkpt>
      <trkpt lat="43.46443" lon="1.42238">
        <ele>158</ele>
        <time>2018-03-10T12:05:53Z</time>
      </trkpt>
      <trkpt lat="43.46438" lon="1.4224">
        <ele>158</ele>
        <time>2018-03-10T12:05:53Z</time>
      </trkpt>
      <trkpt lat="43.46432" lon="1.42242">
        <ele>158</ele>
        <time>2018-03-10T12:05:53Z</time>
      </trkpt>
      <trkpt lat="43.46428" lon="1.42243">
        <ele>158</ele>
        <time>2018-03-10T12:06:08Z</time>
      </trkpt>
      <trkpt lat="43.46424" lon="1.42245">
        <ele>158</ele>
        <time>2018-03-10T12:06:09Z</time>
      </trkpt>
      <trkpt lat="43.46419" lon="1.42247">
        <ele>158</ele>
        <time>2018-03-10T12:06:09Z</time>
      </trkpt>
      <trkpt lat="43.46414" lon="1.4225">
        <ele>158</ele>
        <time>2018-03-10T12:06:09Z</time>
      </trkpt>
      <trkpt lat="43.46408" lon="1.42253">
        <ele>158</ele>
        <time>2018-03-10T12:06:24Z</time>
      </trkpt>
      <trkpt lat="43.46405" lon="1.42256">
        <ele>158</ele>
        <time>2018-03-10T12:06:25Z</time>
      </trkpt>
      <trkpt lat="43.46401" lon="1.42259">
        <ele>158</ele>
        <time>2018-03-10T12:06:25Z</time>
      </trkpt>
      <trkpt lat="43.46396" lon="1.42261">
        <ele>158</ele>
        <time>2018-03-10T12:06:25Z</time>
      </trkpt>
      <trkpt lat="43.46392" lon="1.42263">
        <ele>158</ele>
        <time>2018-03-10T12:06:40Z</time>
      </trkpt>
      <trkpt lat="43.46389" lon="1.42265">
        <ele>158</ele>
        <time>2018-03-10T12:06:41Z</time>
      </trkpt>
      <trkpt lat="43.46386" lon="1.42268">
        <ele>158</ele>
        <time>2018-03-10T12:06:41Z</time>
      </trkpt>
      <trkpt lat="43.46382" lon="1.42271">
        <ele>158</ele>
        <time>2018-03-10T12:06:41Z</time>
      </trkpt>
      <trkpt lat="43.46379" lon="1.42275">
        <ele>158</ele>
        <time>2018-03-10T12:06:56Z</time>
      </trkpt>
      <trkpt lat="43.46374" lon="1.4228">
        <ele>158</ele>
        <time>2018-03-10T12:06:57Z</time>
      </trkpt>
      <trkpt lat="43.46369" lon="1.42286">
        <ele>158</ele>
        <time>2018-03-10T12:06:57Z</time>
      </trkpt>
      <trkpt lat="43.46364" lon="1.42291">
        <ele>158</ele>
        <time>2018-03-10T12:06:57Z</time>
      </trkpt>
      <trkpt lat="43.4636" lon="1.42295">
        <ele>159</ele>
        <time>2018-03-10T12:07:12Z</time>
      </trkpt>
      <trkpt lat="43.46356" lon="1.42298">
        <ele>159</ele>
        <time>2018-03-10T12:07:13Z</time>
      </trkpt>
      <trkpt lat="43.46352" lon="1.423">
        <ele>159</ele>
        <time>2018-03-10T12:07:13Z</time>
      </trkpt>
      <trkpt lat="43.46348" lon="1.42302">
        <ele>159</ele>
        <time>2018-03-10T12:07:13Z</time>
      </trkpt>
      <trkpt lat="43.46345" lon="1.42305">
        <ele>159</ele>
        <time>2018-03-10T12:07:28Z</time>
      </trkpt>
      <trkpt lat="43.46339" lon="1.4231">
        <ele>159</ele>
        <time>2018-03-10T12:07:29Z</time>
      </trkpt>
      <trkpt lat="43.46335" lon="1.42314">
        <ele>159</ele>
        <time>2018-03-10T12:07:29Z</time>
      </trkpt>
      <trkpt lat="43.4633" lon="1.42319">
        <ele>159</ele>
        <time>2018-03-10T12:07:29Z</time>
      </trkpt>
      <trkpt lat="43.46326" lon="1.42323">
        <ele>159</ele>
        <time>2018-03-10T12:07:44Z</time>
      </trkpt>
      <trkpt lat="43.46322" lon="1.42326">
        <ele>159</ele>
        <time>2018-03-10T12:07:45Z</time>
      </trkpt>
      <trkpt lat="43.46318" lon="1.42329">
        <ele>159</ele>
        <time>2018-03-10T12:07:45Z</time>
      </trkpt>
      <trkpt lat="43.46315" lon="1.42331">
        <ele>159</ele>
        <time>2018-03-10T12:07:45Z</time>
      </trkpt>
      <trkpt lat="43.46311" lon="1.42333">
        <ele>159</ele>
        <time>2018-03-10T12:08:00Z</time>
      </trkpt>
      <trkpt lat="43.46306" lon="1.42337">
        <ele>159</ele>
        <time>2018-03-10T12:08:01Z</time>
      </trkpt>
      <trkpt lat="43.46303" lon="1.42339">
        <ele>159</ele>
        <time>2018-03-10T12:08:01Z</time>
      </trkpt>
      <trkpt lat="43.46299" lon="1.42343">
        <ele>159</ele>
        <time>2018-03-10T12:08:01Z</time>
      </trkpt>
      <trkpt lat="43.46294" lon="1.42349">
        <ele>159</ele>
        <time>2018-03-10T12:08:16Z</time>
      </trkpt>
      <trkpt lat="43.46289" lon="1.42354">
        <ele>159</ele>
        <time>2018-03-10T12:08:17Z</time>
      </trkpt>
      <trkpt lat="43.46286" lon="1.42356">
        <ele>159</ele>
        <time>2018-03-10T12:08:17Z</time>
      </trkpt>
      <trkpt lat="43.46282" lon="1.42359">
        <ele>159</ele>
        <time>2018-03-10T12:08:17Z</time>
      </trkpt>
      <trkpt lat="43.46279" lon="1.42361">
        <ele>159</ele>
        <time>2018-03-10T12:08:32Z</time>
      </trkpt>
      <trkpt lat="43.46274" lon="1.42364">
        <ele>159</ele>
        <time>2018-03-10T12:08:33Z</time>
      </trkpt>
      <trkpt lat="43.4627" lon="1.42367">
        <ele>159</ele>
        <time>2018-03-10T12:08:33Z</time>
      </trkpt>
      <trkpt lat="43.46266" lon="1.42371">
        <ele>159</ele>
        <time>2018-03-10T12:08:33Z</time>
      </trkpt>
      <trkpt lat="43.46262" lon="1.42375">
        <ele>159</ele>
        <time>2018-03-10T12:08:48Z</time>
      </trkpt>
      <trkpt lat="43.46257" lon="1.42379">
        <ele>159</ele>
        <time>2018-03-10T12:08:49Z</time>
      </trkpt>
      <trkpt lat="43.46253" lon="1.42384">
        <ele>159</ele>
        <time>2018-03-10T12:08:49Z</time>
      </trkpt>
      <trkpt lat="43.46248" lon="1.42389">
        <ele>159</ele>
        <time>2018-03-10T12:08:49Z</time>
      </trkpt>
      <trkpt lat="43.46244" lon="1.42393">
        <ele>159</ele>
        <time>2018-03-10T12:09:04Z</time>
      </trkpt>
      <trkpt lat="43.46239" lon="1.42398">
        <ele>159</ele>
        <time>2018-03-10T12:09:05Z</time>
      </trkpt>
      <trkpt lat="43.46234" lon="1.42403">
        <ele>159</ele>
        <time>2018-03-10T12:09:05Z</time>
      </trkpt>
      <trkpt lat="43.46232" lon="1.42405">
        <ele>159</ele>
        <time>2018-03-10T12:09:05Z</time>
      </trkpt>
      <trkpt lat="43.46229" lon="1.4241">
        <ele>159</ele>
        <time>2018-03-10T12:09:20Z</time>
      </trkpt>
      <trkpt lat="43.46225" lon="1.42414">
        <ele>159</ele>
        <time>2018-03-10T12:09:21Z</time>
      </trkpt>
      <trkpt lat="43.46222" lon="1.42416">
        <ele>159</ele>
        <time>2018-03-10T12:09:21Z</time>
      </trkpt>
      <trkpt lat="43.46218" lon="1.42419">
        <ele>159</ele>
        <time>2018-03-10T12:09:21Z</time>
      </trkpt>
      <trkpt lat="43.46215" lon="1.42422">
        <ele>159</ele>
        <time>2018-03-10T12:09:36Z</time>
      </trkpt>
      <trkpt lat="43.4621" lon="1.42428">
        <ele>159</ele>
        <time>2018-03-10T12:09:37Z</time>
      </trkpt>
      <trkpt lat="43.46205" lon="1.42432">
        <ele>162</ele>
        <time>2018-03-10T12:09:37Z</time>
      </trkpt>
      <trkpt lat="43.46201" lon="1.42434">
        <ele>162</ele>
        <time>2018-03-10T12:09:37Z</time>
      </trkpt>
      <trkpt lat="43.46197" lon="1.42437">
        <ele>162</ele>
        <time>2018-03-10T12:09:52Z</time>
      </trkpt>
      <trkpt lat="43.46194" lon="1.42439">
        <ele>162</ele>
        <time>2018-03-10T12:09:53Z</time>
      </trkpt>
      <trkpt lat="43.46191" lon="1.4244">
        <ele>162</ele>
        <time>2018-03-10T12:09:53Z</time>
      </trkpt>
      <trkpt lat="43.46186" lon="1.42443">
        <ele>162</ele>
        <time>2018-03-10T12:09:53Z</time>
      </trkpt>
      <trkpt lat="43.46184" lon="1.42446">
        <ele>162</ele>
        <time>2018-03-10T12:10:08Z</time>
      </trkpt>
      <trkpt lat="43.46182" lon="1.42451">
        <ele>162</ele>
        <time>2018-03-10T12:10:09Z</time>
      </trkpt>
      <trkpt lat="43.46178" lon="1.42455">
        <ele>162</ele>
        <time>2018-03-10T12:10:09Z</time>
      </trkpt>
      <trkpt lat="43.46176" lon="1.4246">
        <ele>162</ele>
        <time>2018-03-10T12:10:09Z</time>
      </trkpt>
      <trkpt lat="43.46175" lon="1.42466">
        <ele>162</ele>
        <time>2018-03-10T12:10:24Z</time>
      </trkpt>
      <trkpt lat="43.46175" lon="1.42473">
        <ele>162</ele>
        <time>2018-03-10T12:10:25Z</time>
      </trkpt>
      <trkpt lat="43.46175" lon="1.4248">
        <ele>162</ele>
        <time>2018-03-10T12:10:25Z</time>
      </trkpt>
      <trkpt lat="43.46174" lon="1.42487">
        <ele>162</ele>
        <time>2018-03-10T12:10:25Z</time>
      </trkpt>
      <trkpt lat="43.46173" lon="1.42495">
        <ele>162</ele>
        <time>2018-03-10T12:10:40Z</time>
      </trkpt>
      <trkpt lat="43.46173" lon="1.42502">
        <ele>162</ele>
        <time>2018-03-10T12:10:41Z</time>
      </trkpt>
      <trkpt lat="43.46175" lon="1.42511">
        <ele>162</ele>
        <time>2018-03-10T12:10:41Z</time>
      </trkpt>
      <trkpt lat="43.46175" lon="1.42515">
        <ele>162</ele>
        <time>2018-03-10T12:10:41Z</time>
      </trkpt>
      <trkpt lat="43.46175" lon="1.42519">
        <ele>162</ele>
        <time>2018-03-10T12:10:56Z</time>
      </trkpt>
      <trkpt lat="43.46176" lon="1.42524">
        <ele>162</ele>
        <time>2018-03-10T12:10:57Z</time>
      </trkpt>
      <trkpt lat="43.46175" lon="1.42529">
        <ele>162</ele>
        <time>2018-03-10T12:10:57Z</time>
      </trkpt>
      <trkpt lat="43.46173" lon="1.42535">
        <ele>162</ele>
        <time>2018-03-10T12:10:57Z</time>
      </trkpt>
      <trkpt lat="43.46171" lon="1.42537">
        <ele>162</ele>
        <time>2018-03-10T12:12:00Z</time>
      </trkpt>
      <trkpt lat="43.46168" lon="1.42543">
        <ele>164</ele>
        <time>2018-03-10T12:12:01Z</time>
      </trkpt>
      <trkpt lat="43.46164" lon="1.42549">
        <ele>164</ele>
        <time>2018-03-10T12:12:01Z</time>
      </trkpt>
      <trkpt lat="43.46159" lon="1.42553">
        <ele>164</ele>
        <time>2018-03-10T12:12:01Z</time>
      </trkpt>
      <trkpt lat="43.46157" lon="1.42556">
        <ele>164</ele>
        <time>2018-03-10T12:12:01Z</time>
      </trkpt>
      <trkpt lat="43.46147" lon="1.42554">
        <ele>164</ele>
        <time>2018-03-10T12:14:44Z</time>
      </trkpt>
      <trkpt lat="43.46145" lon="1.42553">
        <ele>164</ele>
        <time>2018-03-10T12:14:45Z</time>
      </trkpt>
      <trkpt lat="43.46143" lon="1.42553">
        <ele>164</ele>
        <time>2018-03-10T12:14:45Z</time>
      </trkpt>
      <trkpt lat="43.4614" lon="1.42551">
        <ele>164</ele>
        <time>2018-03-10T12:14:45Z</time>
      </trkpt>
      <trkpt lat="43.46136" lon="1.42549">
        <ele>164</ele>
        <time>2018-03-10T12:14:45Z</time>
      </trkpt>
      <trkpt lat="43.46131" lon="1.42547">
        <ele>164</ele>
        <time>2018-03-10T12:15:00Z</time>
      </trkpt>
      <trkpt lat="43.46126" lon="1.42545">
        <ele>164</ele>
        <time>2018-03-10T12:15:01Z</time>
      </trkpt>
      <trkpt lat="43.46122" lon="1.42542">
        <ele>163</ele>
        <time>2018-03-10T12:15:01Z</time>
      </trkpt>
      <trkpt lat="43.46118" lon="1.4254">
        <ele>163</ele>
        <time>2018-03-10T12:15:01Z</time>
      </trkpt>
      <trkpt lat="43.46114" lon="1.42539">
        <ele>163</ele>
        <time>2018-03-10T12:15:16Z</time>
      </trkpt>
      <trkpt lat="43.4611" lon="1.42538">
        <ele>163</ele>
        <time>2018-03-10T12:15:17Z</time>
      </trkpt>
      <trkpt lat="43.46105" lon="1.42538">
        <ele>163</ele>
        <time>2018-03-10T12:15:17Z</time>
      </trkpt>
      <trkpt lat="43.461" lon="1.42538">
        <ele>163</ele>
        <time>2018-03-10T12:15:17Z</time>
      </trkpt>
      <trkpt lat="43.46094" lon="1.42536">
        <ele>163</ele>
        <time>2018-03-10T12:15:32Z</time>
      </trkpt>
      <trkpt lat="43.4609" lon="1.42537">
        <ele>163</ele>
        <time>2018-03-10T12:15:33Z</time>
      </trkpt>
      <trkpt lat="43.46085" lon="1.42538">
        <ele>163</ele>
        <time>2018-03-10T12:15:33Z</time>
      </trkpt>
      <trkpt lat="43.46081" lon="1.42541">
        <ele>163</ele>
        <time>2018-03-10T12:15:33Z</time>
      </trkpt>
      <trkpt lat="43.46076" lon="1.42542">
        <ele>164</ele>
        <time>2018-03-10T12:15:48Z</time>
      </trkpt>
      <trkpt lat="43.46072" lon="1.42545">
        <ele>164</ele>
        <time>2018-03-10T12:15:49Z</time>
      </trkpt>
      <trkpt lat="43.46067" lon="1.4255">
        <ele>164</ele>
        <time>2018-03-10T12:15:49Z</time>
      </trkpt>
      <trkpt lat="43.46064" lon="1.42554">
        <ele>164</ele>
        <time>2018-03-10T12:15:49Z</time>
      </trkpt>
      <trkpt lat="43.4606" lon="1.42558">
        <ele>164</ele>
        <time>2018-03-10T12:16:04Z</time>
      </trkpt>
      <trkpt lat="43.46055" lon="1.42563">
        <ele>164</ele>
        <time>2018-03-10T12:16:05Z</time>
      </trkpt>
      <trkpt lat="43.46052" lon="1.42566">
        <ele>164</ele>
        <time>2018-03-10T12:16:05Z</time>
      </trkpt>
      <trkpt lat="43.46048" lon="1.4257">
        <ele>164</ele>
        <time>2018-03-10T12:16:05Z</time>
      </trkpt>
      <trkpt lat="43.46045" lon="1.42573">
        <ele>164</ele>
        <time>2018-03-10T12:16:20Z</time>
      </trkpt>
      <trkpt lat="43.4604" lon="1.42576">
        <ele>161</ele>
        <time>2018-03-10T12:16:21Z</time>
      </trkpt>
      <trkpt lat="43.46036" lon="1.42579">
        <ele>161</ele>
        <time>2018-03-10T12:16:21Z</time>
      </trkpt>
      <trkpt lat="43.46032" lon="1.42582">
        <ele>161</ele>
        <time>2018-03-10T12:16:21Z</time>
      </trkpt>
      <trkpt lat="43.46028" lon="1.42585">
        <ele>161</ele>
        <time>2018-03-10T12:16:36Z</time>
      </trkpt>
      <trkpt lat="43.46023" lon="1.42587">
        <ele>161</ele>
        <time>2018-03-10T12:16:37Z</time>
      </trkpt>
      <trkpt lat="43.46019" lon="1.42591">
        <ele>161</ele>
        <time>2018-03-10T12:16:37Z</time>
      </trkpt>
      <trkpt lat="43.46015" lon="1.42595">
        <ele>161</ele>
        <time>2018-03-10T12:16:37Z</time>
      </trkpt>
      <trkpt lat="43.46011" lon="1.42599">
        <ele>161</ele>
        <time>2018-03-10T12:16:52Z</time>
      </trkpt>
      <trkpt lat="43.46007" lon="1.42603">
        <ele>161</ele>
        <time>2018-03-10T12:16:53Z</time>
      </trkpt>
      <trkpt lat="43.46005" lon="1.42606">
        <ele>161</ele>
        <time>2018-03-10T12:16:53Z</time>
      </trkpt>
      <trkpt lat="43.46001" lon="1.42611">
        <ele>161</ele>
        <time>2018-03-10T12:16:53Z</time>
      </trkpt>
      <trkpt lat="43.45997" lon="1.42617">
        <ele>161</ele>
        <time>2018-03-10T12:17:08Z</time>
      </trkpt>
      <trkpt lat="43.45993" lon="1.42622">
        <ele>161</ele>
        <time>2018-03-10T12:17:09Z</time>
      </trkpt>
      <trkpt lat="43.4599" lon="1.42627">
        <ele>168</ele>
        <time>2018-03-10T12:17:09Z</time>
      </trkpt>
      <trkpt lat="43.45985" lon="1.42631">
        <ele>168</ele>
        <time>2018-03-10T12:17:09Z</time>
      </trkpt>
      <trkpt lat="43.45981" lon="1.42633">
        <ele>168</ele>
        <time>2018-03-10T12:17:28Z</time>
      </trkpt>
      <trkpt lat="43.45976" lon="1.42636">
        <ele>168</ele>
        <time>2018-03-10T12:17:29Z</time>
      </trkpt>
      <trkpt lat="43.45974" lon="1.42636">
        <ele>168</ele>
        <time>2018-03-10T12:17:29Z</time>
      </trkpt>
      <trkpt lat="43.45974" lon="1.4263">
        <ele>168</ele>
        <time>2018-03-10T12:17:29Z</time>
      </trkpt>
      <trkpt lat="43.45971" lon="1.42625">
        <ele>161</ele>
        <time>2018-03-10T12:17:29Z</time>
      </trkpt>
      <trkpt lat="43.45963" lon="1.42612">
        <ele>161</ele>
        <time>2018-03-10T12:18:00Z</time>
      </trkpt>
      <trkpt lat="43.4596" lon="1.42606">
        <ele>161</ele>
        <time>2018-03-10T12:18:01Z</time>
      </trkpt>
      <trkpt lat="43.45955" lon="1.42602">
        <ele>161</ele>
        <time>2018-03-10T12:18:01Z</time>
      </trkpt>
      <trkpt lat="43.4595" lon="1.42598">
        <ele>161</ele>
        <time>2018-03-10T12:18:01Z</time>
      </trkpt>
      <trkpt lat="43.45946" lon="1.42598">
        <ele>161</ele>
        <time>2018-03-10T12:18:01Z</time>
      </trkpt>
      <trkpt lat="43.45944" lon="1.42594">
        <ele>161</ele>
        <time>2018-03-10T12:18:16Z</time>
      </trkpt>
      <trkpt lat="43.45939" lon="1.42591">
        <ele>161</ele>
        <time>2018-03-10T12:18:17Z</time>
      </trkpt>
      <trkpt lat="43.45935" lon="1.42587">
        <ele>161</ele>
        <time>2018-03-10T12:18:17Z</time>
      </trkpt>
      <trkpt lat="43.4593" lon="1.42584">
        <ele>161</ele>
        <time>2018-03-10T12:18:17Z</time>
      </trkpt>
      <trkpt lat="43.45925" lon="1.42582">
        <ele>161</ele>
        <time>2018-03-10T12:18:32Z</time>
      </trkpt>
      <trkpt lat="43.45922" lon="1.42581">
        <ele>161</ele>
        <time>2018-03-10T12:18:33Z</time>
      </trkpt>
      <trkpt lat="43.45919" lon="1.42576">
        <ele>161</ele>
        <time>2018-03-10T12:18:33Z</time>
      </trkpt>
      <trkpt lat="43.45915" lon="1.42572">
        <ele>161</ele>
        <time>2018-03-10T12:18:33Z</time>
      </trkpt>
      <trkpt lat="43.45912" lon="1.42567">
        <ele>161</ele>
        <time>2018-03-10T12:18:48Z</time>
      </trkpt>
      <trkpt lat="43.45908" lon="1.42565">
        <ele>161</ele>
        <time>2018-03-10T12:18:49Z</time>
      </trkpt>
      <trkpt lat="43.45902" lon="1.42562">
        <ele>161</ele>
        <time>2018-03-10T12:18:49Z</time>
      </trkpt>
      <trkpt lat="43.45897" lon="1.42561">
        <ele>161</ele>
        <time>2018-03-10T12:18:49Z</time>
      </trkpt>
      <trkpt lat="43.45892" lon="1.42562">
        <ele>161</ele>
        <time>2018-03-10T12:19:04Z</time>
      </trkpt>
      <trkpt lat="43.45887" lon="1.42564">
        <ele>161</ele>
        <time>2018-03-10T12:19:05Z</time>
      </trkpt>
      <trkpt lat="43.45885" lon="1.42564">
        <ele>161</ele>
        <time>2018-03-10T12:19:05Z</time>
      </trkpt>
      <trkpt lat="43.45882" lon="1.42567">
        <ele>161</ele>
        <time>2018-03-10T12:19:05Z</time>
      </trkpt>
      <trkpt lat="43.4588" lon="1.4257">
        <ele>161</ele>
        <time>2018-03-10T12:19:20Z</time>
      </trkpt>
      <trkpt lat="43.45879" lon="1.42573">
        <ele>161</ele>
        <time>2018-03-10T12:19:21Z</time>
      </trkpt>
      <trkpt lat="43.45878" lon="1.42576">
        <ele>161</ele>
        <time>2018-03-10T12:19:21Z</time>
      </trkpt>
      <trkpt lat="43.45877" lon="1.42582">
        <ele>161</ele>
        <time>2018-03-10T12:19:21Z</time>
      </trkpt>
      <trkpt lat="43.45874" lon="1.42591">
        <ele>162</ele>
        <time>2018-03-10T12:19:36Z</time>
      </trkpt>
      <trkpt lat="43.45871" lon="1.42596">
        <ele>162</ele>
        <time>2018-03-10T12:19:37Z</time>
      </trkpt>
      <trkpt lat="43.45869" lon="1.42602">
        <ele>162</ele>
        <time>2018-03-10T12:19:37Z</time>
      </trkpt>
      <trkpt lat="43.45868" lon="1.42609">
        <ele>162</ele>
        <time>2018-03-10T12:19:37Z</time>
      </trkpt>
      <trkpt lat="43.45866" lon="1.42616">
        <ele>162</ele>
        <time>2018-03-10T12:19:52Z</time>
      </trkpt>
      <trkpt lat="43.45864" lon="1.4262">
        <ele>162</ele>
        <time>2018-03-10T12:19:53Z</time>
      </trkpt>
      <trkpt lat="43.45863" lon="1.42626">
        <ele>165</ele>
        <time>2018-03-10T12:19:53Z</time>
      </trkpt>
      <trkpt lat="43.45863" lon="1.42633">
        <ele>165</ele>
        <time>2018-03-10T12:19:53Z</time>
      </trkpt>
      <trkpt lat="43.45862" lon="1.42643">
        <ele>165</ele>
        <time>2018-03-10T12:20:08Z</time>
      </trkpt>
      <trkpt lat="43.4586" lon="1.42648">
        <ele>165</ele>
        <time>2018-03-10T12:20:09Z</time>
      </trkpt>
      <trkpt lat="43.45859" lon="1.42654">
        <ele>165</ele>
        <time>2018-03-10T12:20:09Z</time>
      </trkpt>
      <trkpt lat="43.45858" lon="1.42661">
        <ele>165</ele>
        <time>2018-03-10T12:20:09Z</time>
      </trkpt>
      <trkpt lat="43.45856" lon="1.42667">
        <ele>165</ele>
        <time>2018-03-10T12:20:24Z</time>
      </trkpt>
      <trkpt lat="43.45855" lon="1.42674">
        <ele>165</ele>
        <time>2018-03-10T12:20:25Z</time>
      </trkpt>
      <trkpt lat="43.45853" lon="1.42679">
        <ele>165</ele>
        <time>2018-03-10T12:20:25Z</time>
      </trkpt>
      <trkpt lat="43.45852" lon="1.42684">
        <ele>165</ele>
        <time>2018-03-10T12:20:25Z</time>
      </trkpt>
      <trkpt lat="43.45851" lon="1.42689">
        <ele>165</ele>
        <time>2018-03-10T12:20:40Z</time>
      </trkpt>
      <trkpt lat="43.45849" lon="1.42693">
        <ele>165</ele>
        <time>2018-03-10T12:20:41Z</time>
      </trkpt>
      <trkpt lat="43.45848" lon="1.42697">
        <ele>165</ele>
        <time>2018-03-10T12:20:41Z</time>
      </trkpt>
      <trkpt lat="43.45846" lon="1.42702">
        <ele>165</ele>
        <time>2018-03-10T12:20:41Z</time>
      </trkpt>
      <trkpt lat="43.45845" lon="1.42707">
        <ele>165</ele>
        <time>2018-03-10T12:20:56Z</time>
      </trkpt>
      <trkpt lat="43.45844" lon="1.42713">
        <ele>166</ele>
        <time>2018-03-10T12:20:57Z</time>
      </trkpt>
      <trkpt lat="43.45843" lon="1.4272">
        <ele>166</ele>
        <time>2018-03-10T12:20:57Z</time>
      </trkpt>
      <trkpt lat="43.4584" lon="1.42726">
        <ele>166</ele>
        <time>2018-03-10T12:20:57Z</time>
      </trkpt>
      <trkpt lat="43.4584" lon="1.4273">
        <ele>166</ele>
        <time>2018-03-10T12:21:12Z</time>
      </trkpt>
      <trkpt lat="43.45839" lon="1.42733">
        <ele>166</ele>
        <time>2018-03-10T12:21:13Z</time>
      </trkpt>
      <trkpt lat="43.45839" lon="1.42737">
        <ele>166</ele>
        <time>2018-03-10T12:21:13Z</time>
      </trkpt>
      <trkpt lat="43.45839" lon="1.42743">
        <ele>166</ele>
        <time>2018-03-10T12:21:13Z</time>
      </trkpt>
      <trkpt lat="43.45837" lon="1.42752">
        <ele>166</ele>
        <time>2018-03-10T12:21:28Z</time>
      </trkpt>
      <trkpt lat="43.45834" lon="1.42762">
        <ele>166</ele>
        <time>2018-03-10T12:21:29Z</time>
      </trkpt>
      <trkpt lat="43.45831" lon="1.42767">
        <ele>166</ele>
        <time>2018-03-10T12:21:29Z</time>
      </trkpt>
      <trkpt lat="43.45829" lon="1.42771">
        <ele>166</ele>
        <time>2018-03-10T12:21:29Z</time>
      </trkpt>
      <trkpt lat="43.45826" lon="1.42777">
        <ele>166</ele>
        <time>2018-03-10T12:21:44Z</time>
      </trkpt>
      <trkpt lat="43.45823" lon="1.42786">
        <ele>166</ele>
        <time>2018-03-10T12:21:45Z</time>
      </trkpt>
      <trkpt lat="43.45819" lon="1.42792">
        <ele>171</ele>
        <time>2018-03-10T12:21:45Z</time>
      </trkpt>
      <trkpt lat="43.45814" lon="1.42798">
        <ele>171</ele>
        <time>2018-03-10T12:21:45Z</time>
      </trkpt>
      <trkpt lat="43.45811" lon="1.42809">
        <ele>171</ele>
        <time>2018-03-10T12:22:00Z</time>
      </trkpt>
      <trkpt lat="43.45807" lon="1.42814">
        <ele>171</ele>
        <time>2018-03-10T12:22:01Z</time>
      </trkpt>
      <trkpt lat="43.45803" lon="1.4282">
        <ele>171</ele>
        <time>2018-03-10T12:22:01Z</time>
      </trkpt>
      <trkpt lat="43.45799" lon="1.42825">
        <ele>171</ele>
        <time>2018-03-10T12:22:01Z</time>
      </trkpt>
      <trkpt lat="43.45796" lon="1.42828">
        <ele>171</ele>
        <time>2018-03-10T12:22:16Z</time>
      </trkpt>
      <trkpt lat="43.45792" lon="1.42832">
        <ele>171</ele>
        <time>2018-03-10T12:22:17Z</time>
      </trkpt>
      <trkpt lat="43.4579" lon="1.42836">
        <ele>164</ele>
        <time>2018-03-10T12:22:17Z</time>
      </trkpt>
      <trkpt lat="43.45789" lon="1.4284">
        <ele>164</ele>
        <time>2018-03-10T12:22:17Z</time>
      </trkpt>
      <trkpt lat="43.45788" lon="1.42843">
        <ele>164</ele>
        <time>2018-03-10T12:22:32Z</time>
      </trkpt>
      <trkpt lat="43.45785" lon="1.42845">
        <ele>164</ele>
        <time>2018-03-10T12:22:33Z</time>
      </trkpt>
      <trkpt lat="43.45784" lon="1.42847">
        <ele>164</ele>
        <time>2018-03-10T12:22:33Z</time>
      </trkpt>
      <trkpt lat="43.45779" lon="1.42852">
        <ele>164</ele>
        <time>2018-03-10T12:22:33Z</time>
      </trkpt>
      <trkpt lat="43.45777" lon="1.42856">
        <ele>164</ele>
        <time>2018-03-10T12:22:48Z</time>
      </trkpt>
      <trkpt lat="43.45776" lon="1.42862">
        <ele>164</ele>
        <time>2018-03-10T12:22:49Z</time>
      </trkpt>
      <trkpt lat="43.45773" lon="1.42868">
        <ele>164</ele>
        <time>2018-03-10T12:22:49Z</time>
      </trkpt>
      <trkpt lat="43.45772" lon="1.42876">
        <ele>168</ele>
        <time>2018-03-10T12:22:49Z</time>
      </trkpt>
      <trkpt lat="43.45769" lon="1.42885">
        <ele>168</ele>
        <time>2018-03-10T12:23:04Z</time>
      </trkpt>
      <trkpt lat="43.45767" lon="1.42891">
        <ele>168</ele>
        <time>2018-03-10T12:23:05Z</time>
      </trkpt>
      <trkpt lat="43.45765" lon="1.42896">
        <ele>168</ele>
        <time>2018-03-10T12:23:05Z</time>
      </trkpt>
      <trkpt lat="43.45765" lon="1.42901">
        <ele>168</ele>
        <time>2018-03-10T12:23:05Z</time>
      </trkpt>
      <trkpt lat="43.45764" lon="1.42906">
        <ele>168</ele>
        <time>2018-03-10T12:23:20Z</time>
      </trkpt>
      <trkpt lat="43.45761" lon="1.42909">
        <ele>168</ele>
        <time>2018-03-10T12:23:21Z</time>
      </trkpt>
      <trkpt lat="43.45759" lon="1.42914">
        <ele>168</ele>
        <time>2018-03-10T12:23:21Z</time>
      </trkpt>
      <trkpt lat="43.45759" lon="1.4292">
        <ele>168</ele>
        <time>2018-03-10T12:23:21Z</time>
      </trkpt>
      <trkpt lat="43.45757" lon="1.42925">
        <ele>168</ele>
        <time>2018-03-10T12:23:36Z</time>
      </trkpt>
      <trkpt lat="43.45756" lon="1.42931">
        <ele>168</ele>
        <time>2018-03-10T12:23:37Z</time>
      </trkpt>
      <trkpt lat="43.45756" lon="1.42936">
        <ele>168</ele>
        <time>2018-03-10T12:23:37Z</time>
      </trkpt>
      <trkpt lat="43.45754" lon="1.42943">
        <ele>168</ele>
        <time>2018-03-10T12:23:37Z</time>
      </trkpt>
      <trkpt lat="43.45751" lon="1.42953">
        <ele>168</ele>
        <time>2018-03-10T12:23:52Z</time>
      </trkpt>
      <trkpt lat="43.45752" lon="1.4296">
        <ele>172</ele>
        <time>2018-03-10T12:23:53Z</time>
      </trkpt>
      <trkpt lat="43.45753" lon="1.42963">
        <ele>172</ele>
        <time>2018-03-10T12:23:53Z</time>
      </trkpt>
      <trkpt lat="43.45755" lon="1.42968">
        <ele>172</ele>
        <time>2018-03-10T12:23:53Z</time>
      </trkpt>
      <trkpt lat="43.45753" lon="1.42973">
        <ele>172</ele>
        <time>2018-03-10T12:24:08Z</time>
      </trkpt>
      <trkpt lat="43.45749" lon="1.42978">
        <ele>172</ele>
        <time>2018-03-10T12:24:09Z</time>
      </trkpt>
      <trkpt lat="43.45746" lon="1.42983">
        <ele>172</ele>
        <time>2018-03-10T12:24:09Z</time>
      </trkpt>
      <trkpt lat="43.45746" lon="1.42987">
        <ele>172</ele>
        <time>2018-03-10T12:24:09Z</time>
      </trkpt>
      <trkpt lat="43.45747" lon="1.42989">
        <ele>172</ele>
        <time>2018-03-10T12:24:28Z</time>
      </trkpt>
      <trkpt lat="43.45746" lon="1.42992">
        <ele>172</ele>
        <time>2018-03-10T12:24:29Z</time>
      </trkpt>
      <trkpt lat="43.45746" lon="1.42997">
        <ele>172</ele>
        <time>2018-03-10T12:24:29Z</time>
      </trkpt>
      <trkpt lat="43.45747" lon="1.43002">
        <ele>172</ele>
        <time>2018-03-10T12:24:29Z</time>
      </trkpt>
      <trkpt lat="43.45746" lon="1.43005">
        <ele>172</ele>
        <time>2018-03-10T12:24:29Z</time>
      </trkpt>
      <trkpt lat="43.45745" lon="1.43011">
        <ele>172</ele>
        <time>2018-03-10T12:24:44Z</time>
      </trkpt>
      <trkpt lat="43.45744" lon="1.43017">
        <ele>172</ele>
        <time>2018-03-10T12:24:45Z</time>
      </trkpt>
      <trkpt lat="43.45744" lon="1.43022">
        <ele>172</ele>
        <time>2018-03-10T12:24:45Z</time>
      </trkpt>
      <trkpt lat="43.45745" lon="1.43027">
        <ele>172</ele>
        <time>2018-03-10T12:24:45Z</time>
      </trkpt>
      <trkpt lat="43.45745" lon="1.43032">
        <ele>172</ele>
        <time>2018-03-10T12:25:00Z</time>
      </trkpt>
      <trkpt lat="43.45743" lon="1.43037">
        <ele>172</ele>
        <time>2018-03-10T12:25:01Z</time>
      </trkpt>
      <trkpt lat="43.45743" lon="1.43039">
        <ele>172</ele>
        <time>2018-03-10T12:25:01Z</time>
      </trkpt>
      <trkpt lat="43.45742" lon="1.43045">
        <ele>180</ele>
        <time>2018-03-10T12:25:01Z</time>
      </trkpt>
      <trkpt lat="43.45743" lon="1.43048">
        <ele>180</ele>
        <time>2018-03-10T12:25:20Z</time>
      </trkpt>
      <trkpt lat="43.45742" lon="1.43051">
        <ele>180</ele>
        <time>2018-03-10T12:25:21Z</time>
      </trkpt>
      <trkpt lat="43.45741" lon="1.43055">
        <ele>180</ele>
        <time>2018-03-10T12:25:21Z</time>
      </trkpt>
      <trkpt lat="43.45741" lon="1.43058">
        <ele>180</ele>
        <time>2018-03-10T12:25:21Z</time>
      </trkpt>
      <trkpt lat="43.45738" lon="1.43063">
        <ele>180</ele>
        <time>2018-03-10T12:25:21Z</time>
      </trkpt>
      <trkpt lat="43.45734" lon="1.43071">
        <ele>180</ele>
        <time>2018-03-10T12:25:36Z</time>
      </trkpt>
      <trkpt lat="43.4573" lon="1.43076">
        <ele>180</ele>
        <time>2018-03-10T12:25:37Z</time>
      </trkpt>
      <trkpt lat="43.45729" lon="1.43081">
        <ele>180</ele>
        <time>2018-03-10T12:25:37Z</time>
      </trkpt>
      <trkpt lat="43.45725" lon="1.43087">
        <ele>180</ele>
        <time>2018-03-10T12:25:37Z</time>
      </trkpt>
      <trkpt lat="43.4572" lon="1.43093">
        <ele>180</ele>
        <time>2018-03-10T12:25:52Z</time>
      </trkpt>
      <trkpt lat="43.45713" lon="1.43097">
        <ele>180</ele>
        <time>2018-03-10T12:25:53Z</time>
      </trkpt>
      <trkpt lat="43.45711" lon="1.43104">
        <ele>180</ele>
        <time>2018-03-10T12:25:53Z</time>
      </trkpt>
      <trkpt lat="43.45708" lon="1.43106">
        <ele>164</ele>
        <time>2018-03-10T12:25:53Z</time>
      </trkpt>
      <trkpt lat="43.45707" lon="1.43107">
        <ele>164</ele>
        <time>2018-03-10T12:26:08Z</time>
      </trkpt>
      <trkpt lat="43.45707" lon="1.43113">
        <ele>164</ele>
        <time>2018-03-10T12:26:09Z</time>
      </trkpt>
      <trkpt lat="43.45707" lon="1.43118">
        <ele>164</ele>
        <time>2018-03-10T12:26:09Z</time>
      </trkpt>
      <trkpt lat="43.45704" lon="1.43123">
        <ele>164</ele>
        <time>2018-03-10T12:26:09Z</time>
      </trkpt>
      <trkpt lat="43.45702" lon="1.43124">
        <ele>164</ele>
        <time>2018-03-10T12:26:28Z</time>
      </trkpt>
      <trkpt lat="43.45701" lon="1.43127">
        <ele>170</ele>
        <time>2018-03-10T12:26:29Z</time>
      </trkpt>
      <trkpt lat="43.45699" lon="1.43129">
        <ele>170</ele>
        <time>2018-03-10T12:26:29Z</time>
      </trkpt>
      <trkpt lat="43.45699" lon="1.43131">
        <ele>170</ele>
        <time>2018-03-10T12:26:29Z</time>
      </trkpt>
      <trkpt lat="43.45696" lon="1.43134">
        <ele>170</ele>
        <time>2018-03-10T12:26:29Z</time>
      </trkpt>
      <trkpt lat="43.45698" lon="1.43136">
        <ele>170</ele>
        <time>2018-03-10T12:27:00Z</time>
      </trkpt>
      <trkpt lat="43.457" lon="1.4314">
        <ele>170</ele>
        <time>2018-03-10T12:27:01Z</time>
      </trkpt>
      <trkpt lat="43.457" lon="1.43142">
        <ele>170</ele>
        <time>2018-03-10T12:27:01Z</time>
      </trkpt>
      <trkpt lat="43.45699" lon="1.43146">
        <ele>170</ele>
        <time>2018-03-10T12:27:01Z</time>
      </trkpt>
      <trkpt lat="43.45695" lon="1.43152">
        <ele>170</ele>
        <time>2018-03-10T12:27:01Z</time>
      </trkpt>
      <trkpt lat="43.45692" lon="1.43159">
        <ele>170</ele>
        <time>2018-03-10T12:27:16Z</time>
      </trkpt>
      <trkpt lat="43.45693" lon="1.43163">
        <ele>170</ele>
        <time>2018-03-10T12:27:17Z</time>
      </trkpt>
      <trkpt lat="43.45689" lon="1.43167">
        <ele>170</ele>
        <time>2018-03-10T12:27:17Z</time>
      </trkpt>
      <trkpt lat="43.45687" lon="1.4317">
        <ele>170</ele>
        <time>2018-03-10T12:27:17Z</time>
      </trkpt>
      <trkpt lat="43.45682" lon="1.43173">
        <ele>170</ele>
        <time>2018-03-10T12:27:40Z</time>
      </trkpt>
      <trkpt lat="43.45682" lon="1.43176">
        <ele>170</ele>
        <time>2018-03-10T12:27:41Z</time>
      </trkpt>
      <trkpt lat="43.45683" lon="1.43179">
        <ele>170</ele>
        <time>2018-03-10T12:27:41Z</time>
      </trkpt>
      <trkpt lat="43.45684" lon="1.43182">
        <ele>170</ele>
        <time>2018-03-10T12:27:41Z</time>
      </trkpt>
      <trkpt lat="43.45685" lon="1.43184">
        <ele>170</ele>
        <time>2018-03-10T12:27:41Z</time>
      </trkpt>
      <trkpt lat="43.45685" lon="1.43189">
        <ele>170</ele>
        <time>2018-03-10T12:28:08Z</time>
      </trkpt>
      <trkpt lat="43.45685" lon="1.43191">
        <ele>170</ele>
        <time>2018-03-10T12:28:09Z</time>
      </trkpt>
      <trkpt lat="43.45688" lon="1.43193">
        <ele>170</ele>
        <time>2018-03-10T12:28:09Z</time>
      </trkpt>
      <trkpt lat="43.4569" lon="1.43194">
        <ele>170</ele>
        <time>2018-03-10T12:28:09Z</time>
      </trkpt>
      <trkpt lat="43.45692" lon="1.43195">
        <ele>170</ele>
        <time>2018-03-10T12:28:09Z</time>
      </trkpt>
      <trkpt lat="43.4569" lon="1.432">
        <ele>170</ele>
        <time>2018-03-10T12:28:32Z</time>
      </trkpt>
      <trkpt lat="43.45691" lon="1.43201">
        <ele>170</ele>
        <time>2018-03-10T12:28:33Z</time>
      </trkpt>
      <trkpt lat="43.45694" lon="1.43203">
        <ele>170</ele>
        <time>2018-03-10T12:28:33Z</time>
      </trkpt>
      <trkpt lat="43.45696" lon="1.43207">
        <ele>170</ele>
        <time>2018-03-10T12:28:33Z</time>
      </trkpt>
      <trkpt lat="43.45699" lon="1.43207">
        <ele>170</ele>
        <time>2018-03-10T12:28:33Z</time>
      </trkpt>
      <trkpt lat="43.45703" lon="1.43207">
        <ele>170</ele>
        <time>2018-03-10T12:28:48Z</time>
      </trkpt>
      <trkpt lat="43.45707" lon="1.43207">
        <ele>170</ele>
        <time>2018-03-10T12:28:49Z</time>
      </trkpt>
      <trkpt lat="43.45712" lon="1.43204">
        <ele>201</ele>
        <time>2018-03-10T12:28:49Z</time>
      </trkpt>
      <trkpt lat="43.45715" lon="1.43202">
        <ele>201</ele>
        <time>2018-03-10T12:28:49Z</time>
      </trkpt>
      <trkpt lat="43.45717" lon="1.43199">
        <ele>201</ele>
        <time>2018-03-10T12:29:08Z</time>
      </trkpt>
      <trkpt lat="43.45718" lon="1.43196">
        <ele>201</ele>
        <time>2018-03-10T12:29:09Z</time>
      </trkpt>
      <trkpt lat="43.4572" lon="1.43194">
        <ele>201</ele>
        <time>2018-03-10T12:29:09Z</time>
      </trkpt>
      <trkpt lat="43.45722" lon="1.43192">
        <ele>201</ele>
        <time>2018-03-10T12:29:09Z</time>
      </trkpt>
      <trkpt lat="43.45724" lon="1.4319">
        <ele>201</ele>
        <time>2018-03-10T12:29:09Z</time>
      </trkpt>
      <trkpt lat="43.45724" lon="1.43186">
        <ele>201</ele>
        <time>2018-03-10T12:29:28Z</time>
      </trkpt>
      <trkpt lat="43.45725" lon="1.43184">
        <ele>201</ele>
        <time>2018-03-10T12:29:29Z</time>
      </trkpt>
      <trkpt lat="43.45727" lon="1.43183">
        <ele>201</ele>
        <time>2018-03-10T12:29:29Z</time>
      </trkpt>
      <trkpt lat="43.45729" lon="1.4318">
        <ele>201</ele>
        <time>2018-03-10T12:29:29Z</time>
      </trkpt>
      <trkpt lat="43.45732" lon="1.43178">
        <ele>201</ele>
        <time>2018-03-10T12:29:29Z</time>
      </trkpt>
      <trkpt lat="43.45734" lon="1.43179">
        <ele>201</ele>
        <time>2018-03-10T12:30:00Z</time>
      </trkpt>
      <trkpt lat="43.45734" lon="1.43181">
        <ele>201</ele>
        <time>2018-03-10T12:30:01Z</time>
      </trkpt>
      <trkpt lat="43.45733" lon="1.43183">
        <ele>201</ele>
        <time>2018-03-10T12:30:01Z</time>
      </trkpt>
      <trkpt lat="43.4573" lon="1.43185">
        <ele>201</ele>
        <time>2018-03-10T12:30:01Z</time>
      </trkpt>
      <trkpt lat="43.45728" lon="1.4319">
        <ele>201</ele>
        <time>2018-03-10T12:30:01Z</time>
      </trkpt>
      <trkpt lat="43.45727" lon="1.43196">
        <ele>201</ele>
        <time>2018-03-10T12:30:16Z</time>
      </trkpt>
      <trkpt lat="43.45726" lon="1.43199">
        <ele>201</ele>
        <time>2018-03-10T12:30:17Z</time>
      </trkpt>
      <trkpt lat="43.45725" lon="1.43203">
        <ele>201</ele>
        <time>2018-03-10T12:30:17Z</time>
      </trkpt>
      <trkpt lat="43.45723" lon="1.43208">
        <ele>201</ele>
        <time>2018-03-10T12:30:17Z</time>
      </trkpt>
      <trkpt lat="43.45721" lon="1.43211">
        <ele>224</ele>
        <time>2018-03-10T12:30:32Z</time>
      </trkpt>
      <trkpt lat="43.45719" lon="1.43216">
        <ele>224</ele>
        <time>2018-03-10T12:30:33Z</time>
      </trkpt>
      <trkpt lat="43.45717" lon="1.43219">
        <ele>224</ele>
        <time>2018-03-10T12:30:33Z</time>
      </trkpt>
      <trkpt lat="43.45715" lon="1.43222">
        <ele>224</ele>
        <time>2018-03-10T12:30:33Z</time>
      </trkpt>
      <trkpt lat="43.45715" lon="1.43224">
        <ele>224</ele>
        <time>2018-03-10T12:30:48Z</time>
      </trkpt>
      <trkpt lat="43.45711" lon="1.43226">
        <ele>224</ele>
        <time>2018-03-10T12:30:49Z</time>
      </trkpt>
      <trkpt lat="43.45708" lon="1.43232">
        <ele>192</ele>
        <time>2018-03-10T12:30:49Z</time>
      </trkpt>
      <trkpt lat="43.45703" lon="1.43235">
        <ele>192</ele>
        <time>2018-03-10T12:30:49Z</time>
      </trkpt>
      <trkpt lat="43.45696" lon="1.43249">
        <ele>192</ele>
        <time>2018-03-10T12:31:20Z</time>
      </trkpt>
      <trkpt lat="43.45699" lon="1.4325">
        <ele>192</ele>
        <time>2018-03-10T12:31:21Z</time>
      </trkpt>
      <trkpt lat="43.45702" lon="1.4325">
        <ele>192</ele>
        <time>2018-03-10T12:31:21Z</time>
      </trkpt>
      <trkpt lat="43.45706" lon="1.4325">
        <ele>192</ele>
        <time>2018-03-10T12:31:21Z</time>
      </trkpt>
      <trkpt lat="43.45711" lon="1.4325">
        <ele>224</ele>
        <time>2018-03-10T12:31:21Z</time>
      </trkpt>
      <trkpt lat="43.45715" lon="1.4325">
        <ele>224</ele>
        <time>2018-03-10T12:31:40Z</time>
      </trkpt>
      <trkpt lat="43.45716" lon="1.4325">
        <ele>224</ele>
        <time>2018-03-10T12:31:41Z</time>
      </trkpt>
      <trkpt lat="43.4572" lon="1.4325">
        <ele>224</ele>
        <time>2018-03-10T12:31:41Z</time>
      </trkpt>
      <trkpt lat="43.45723" lon="1.4325">
        <ele>224</ele>
        <time>2018-03-10T12:31:41Z</time>
      </trkpt>
      <trkpt lat="43.45726" lon="1.43249">
        <ele>224</ele>
        <time>2018-03-10T12:31:41Z</time>
      </trkpt>
      <trkpt lat="43.45729" lon="1.43247">
        <ele>224</ele>
        <time>2018-03-10T12:31:56Z</time>
      </trkpt>
      <trkpt lat="43.45735" lon="1.43246">
        <ele>224</ele>
        <time>2018-03-10T12:31:57Z</time>
      </trkpt>
      <trkpt lat="43.45738" lon="1.43247">
        <ele>224</ele>
        <time>2018-03-10T12:31:57Z</time>
      </trkpt>
      <trkpt lat="43.45741" lon="1.43243">
        <ele>224</ele>
        <time>2018-03-10T12:31:57Z</time>
      </trkpt>
      <trkpt lat="43.45749" lon="1.43233">
        <ele>224</ele>
        <time>2018-03-10T12:32:28Z</time>
      </trkpt>
      <trkpt lat="43.4575" lon="1.43236">
        <ele>224</ele>
        <time>2018-03-10T12:32:29Z</time>
      </trkpt>
      <trkpt lat="43.45751" lon="1.4324">
        <ele>224</ele>
        <time>2018-03-10T12:32:29Z</time>
      </trkpt>
      <trkpt lat="43.45753" lon="1.43244">
        <ele>224</ele>
        <time>2018-03-10T12:32:29Z</time>
      </trkpt>
      <trkpt lat="43.45755" lon="1.43249">
        <ele>224</ele>
        <time>2018-03-10T12:32:29Z</time>
      </trkpt>
      <trkpt lat="43.45756" lon="1.43252">
        <ele>224</ele>
        <time>2018-03-10T12:32:44Z</time>
      </trkpt>
      <trkpt lat="43.45758" lon="1.43257">
        <ele>224</ele>
        <time>2018-03-10T12:32:45Z</time>
      </trkpt>
      <trkpt lat="43.45759" lon="1.43264">
        <ele>224</ele>
        <time>2018-03-10T12:32:45Z</time>
      </trkpt>
      <trkpt lat="43.4576" lon="1.43265">
        <ele>224</ele>
        <time>2018-03-10T12:32:45Z</time>
      </trkpt>
      <trkpt lat="43.4576" lon="1.43262">
        <ele>224</ele>
        <time>2018-03-10T12:34:12Z</time>
      </trkpt>
      <trkpt lat="43.45758" lon="1.43258">
        <ele>224</ele>
        <time>2018-03-10T12:34:13Z</time>
      </trkpt>
      <trkpt lat="43.45756" lon="1.43254">
        <ele>224</ele>
        <time>2018-03-10T12:34:13Z</time>
      </trkpt>
      <trkpt lat="43.45754" lon="1.43249">
        <ele>224</ele>
        <time>2018-03-10T12:34:13Z</time>
      </trkpt>
      <trkpt lat="43.45752" lon="1.43245">
        <ele>224</ele>
        <time>2018-03-10T12:34:13Z</time>
      </trkpt>
      <trkpt lat="43.45749" lon="1.43241">
        <ele>224</ele>
        <time>2018-03-10T12:35:16Z</time>
      </trkpt>
      <trkpt lat="43.45749" lon="1.43241">
        <ele>224</ele>
        <time>2018-03-10T12:35:17Z</time>
      </trkpt>
      <trkpt lat="43.45748" lon="1.43239">
        <ele>224</ele>
        <time>2018-03-10T12:35:17Z</time>
      </trkpt>
      <trkpt lat="43.45748" lon="1.43232">
        <ele>224</ele>
        <time>2018-03-10T12:35:17Z</time>
      </trkpt>
      <trkpt lat="43.45748" lon="1.43228">
        <ele>224</ele>
        <time>2018-03-10T12:35:17Z</time>
      </trkpt>
      <trkpt lat="43.45748" lon="1.43227">
        <ele>224</ele>
        <time>2018-03-10T12:36:20Z</time>
      </trkpt>
      <trkpt lat="43.45748" lon="1.43229">
        <ele>224</ele>
        <time>2018-03-10T12:36:21Z</time>
      </trkpt>
      <trkpt lat="43.4575" lon="1.43234">
        <ele>224</ele>
        <time>2018-03-10T12:36:21Z</time>
      </trkpt>
      <trkpt lat="43.45752" lon="1.43239">
        <ele>224</ele>
        <time>2018-03-10T12:36:21Z</time>
      </trkpt>
      <trkpt lat="43.45753" lon="1.4324">
        <ele>224</ele>
        <time>2018-03-10T12:36:21Z</time>
      </trkpt>
      <trkpt lat="43.45754" lon="1.43239">
        <ele>224</ele>
        <time>2018-03-10T12:36:48Z</time>
      </trkpt>
      <trkpt lat="43.45754" lon="1.43239">
        <ele>224</ele>
        <time>2018-03-10T12:36:49Z</time>
      </trkpt>
      <trkpt lat="43.45755" lon="1.43242">
        <ele>224</ele>
        <time>2018-03-10T12:36:49Z</time>
      </trkpt>
      <trkpt lat="43.45756" lon="1.43248">
        <ele>224</ele>
        <time>2018-03-10T12:36:49Z</time>
      </trkpt>
      <trkpt lat="43.45758" lon="1.43258">
        <ele>224</ele>
        <time>2018-03-10T12:36:49Z</time>
      </trkpt>
      <trkpt lat="43.45761" lon="1.43268">
        <ele>224</ele>
        <time>2018-03-10T12:37:48Z</time>
      </trkpt>
      <trkpt lat="43.45761" lon="1.43268">
        <ele>224</ele>
        <time>2018-03-10T12:37:49Z</time>
      </trkpt>
      <trkpt lat="43.45761" lon="1.43268">
        <ele>224</ele>
        <time>2018-03-10T12:37:49Z</time>
      </trkpt>
      <trkpt lat="43.45763" lon="1.43271">
        <ele>224</ele>
        <time>2018-03-10T12:37:49Z</time>
      </trkpt>
      <trkpt lat="43.45764" lon="1.43272">
        <ele>224</ele>
        <time>2018-03-10T12:37:49Z</time>
      </trkpt>
      <trkpt lat="43.45765" lon="1.43271">
        <ele>224</ele>
        <time>2018-03-10T12:42:12Z</time>
      </trkpt>
      <trkpt lat="43.45765" lon="1.4327">
        <ele>224</ele>
        <time>2018-03-10T12:42:13Z</time>
      </trkpt>
      <trkpt lat="43.45765" lon="1.43267">
        <ele>224</ele>
        <time>2018-03-10T12:42:13Z</time>
      </trkpt>
      <trkpt lat="43.45767" lon="1.43265">
        <ele>224</ele>
        <time>2018-03-10T12:42:13Z</time>
      </trkpt>
      <trkpt lat="43.45769" lon="1.4326">
        <ele>224</ele>
        <time>2018-03-10T12:42:13Z</time>
      </trkpt>
      <trkpt lat="43.45773" lon="1.43254">
        <ele>224</ele>
        <time>2018-03-10T12:42:28Z</time>
      </trkpt>
      <trkpt lat="43.45773" lon="1.43247">
        <ele>224</ele>
        <time>2018-03-10T12:42:29Z</time>
      </trkpt>
      <trkpt lat="43.45774" lon="1.43241">
        <ele>224</ele>
        <time>2018-03-10T12:42:29Z</time>
      </trkpt>
      <trkpt lat="43.45775" lon="1.43236">
        <ele>224</ele>
        <time>2018-03-10T12:42:29Z</time>
      </trkpt>
      <trkpt lat="43.45772" lon="1.43229">
        <ele>224</ele>
        <time>2018-03-10T12:43:04Z</time>
      </trkpt>
      <trkpt lat="43.45772" lon="1.43229">
        <ele>224</ele>
        <time>2018-03-10T12:43:05Z</time>
      </trkpt>
      <trkpt lat="43.45771" lon="1.43231">
        <ele>224</ele>
        <time>2018-03-10T12:43:05Z</time>
      </trkpt>
      <trkpt lat="43.45771" lon="1.43235">
        <ele>224</ele>
        <time>2018-03-10T12:43:05Z</time>
      </trkpt>
      <trkpt lat="43.45769" lon="1.43242">
        <ele>224</ele>
        <time>2018-03-10T12:43:05Z</time>
      </trkpt>
      <trkpt lat="43.45771" lon="1.43244">
        <ele>224</ele>
        <time>2018-03-10T12:43:20Z</time>
      </trkpt>
      <trkpt lat="43.45776" lon="1.43243">
        <ele>224</ele>
        <time>2018-03-10T12:43:21Z</time>
      </trkpt>
      <trkpt lat="43.4578" lon="1.43243">
        <ele>224</ele>
        <time>2018-03-10T12:43:21Z</time>
      </trkpt>
      <trkpt lat="43.45787" lon="1.43243">
        <ele>224</ele>
        <time>2018-03-10T12:43:21Z</time>
      </trkpt>
      <trkpt lat="43.45791" lon="1.43246">
        <ele>224</ele>
        <time>2018-03-10T12:43:56Z</time>
      </trkpt>
      <trkpt lat="43.45792" lon="1.43246">
        <ele>229</ele>
        <time>2018-03-10T12:43:57Z</time>
      </trkpt>
      <trkpt lat="43.45796" lon="1.43247">
        <ele>229</ele>
        <time>2018-03-10T12:43:57Z</time>
      </trkpt>
      <trkpt lat="43.45797" lon="1.43247">
        <ele>229</ele>
        <time>2018-03-10T12:43:57Z</time>
      </trkpt>
      <trkpt lat="43.458" lon="1.43246">
        <ele>229</ele>
        <time>2018-03-10T12:43:57Z</time>
      </trkpt>
      <trkpt lat="43.458" lon="1.43244">
        <ele>229</ele>
        <time>2018-03-10T12:44:40Z</time>
      </trkpt>
      <trkpt lat="43.45802" lon="1.43244">
        <ele>229</ele>
        <time>2018-03-10T12:44:41Z</time>
      </trkpt>
      <trkpt lat="43.45805" lon="1.43245">
        <ele>229</ele>
        <time>2018-03-10T12:44:41Z</time>
      </trkpt>
      <trkpt lat="43.45808" lon="1.43245">
        <ele>229</ele>
        <time>2018-03-10T12:44:41Z</time>
      </trkpt>
      <trkpt lat="43.45809" lon="1.43247">
        <ele>229</ele>
        <time>2018-03-10T12:44:41Z</time>
      </trkpt>
      <trkpt lat="43.45818" lon="1.43249">
        <ele>229</ele>
        <time>2018-03-10T12:45:12Z</time>
      </trkpt>
      <trkpt lat="43.45819" lon="1.43248">
        <ele>229</ele>
        <time>2018-03-10T12:45:13Z</time>
      </trkpt>
      <trkpt lat="43.45819" lon="1.43249">
        <ele>229</ele>
        <time>2018-03-10T12:45:13Z</time>
      </trkpt>
      <trkpt lat="43.4582" lon="1.43245">
        <ele>229</ele>
        <time>2018-03-10T12:45:13Z</time>
      </trkpt>
      <trkpt lat="43.45822" lon="1.43242">
        <ele>229</ele>
        <time>2018-03-10T12:45:13Z</time>
      </trkpt>
      <trkpt lat="43.45825" lon="1.4324">
        <ele>229</ele>
        <time>2018-03-10T12:45:28Z</time>
      </trkpt>
      <trkpt lat="43.45827" lon="1.43245">
        <ele>229</ele>
        <time>2018-03-10T12:45:29Z</time>
      </trkpt>
      <trkpt lat="43.45827" lon="1.43251">
        <ele>229</ele>
        <time>2018-03-10T12:45:29Z</time>
      </trkpt>
      <trkpt lat="43.45829" lon="1.43252">
        <ele>229</ele>
        <time>2018-03-10T12:45:29Z</time>
      </trkpt>
      <trkpt lat="43.45833" lon="1.43252">
        <ele>229</ele>
        <time>2018-03-10T12:45:44Z</time>
      </trkpt>
      <trkpt lat="43.45837" lon="1.43252">
        <ele>229</ele>
        <time>2018-03-10T12:45:45Z</time>
      </trkpt>
      <trkpt lat="43.45839" lon="1.43246">
        <ele>229</ele>
        <time>2018-03-10T12:45:45Z</time>
      </trkpt>
      <trkpt lat="43.4584" lon="1.43243">
        <ele>229</ele>
        <time>2018-03-10T12:45:45Z</time>
      </trkpt>
    </trkseg>
  </trk>
</gpx>